[[{"header":{"parameterUnit":"m.s-1","parameterCategory":1,"la1":30.6,"la2":28.766,"lo1":-90.7593,"lo2":-88.6598,"dy":0.0162,"dx":0.0183,"nx":116,"ny":114,"refTime":"2023-07-15T00:00:00:Z","depth":0,"parameterNumber":2,"parameterNumberName":"U-component_of_WINDS"},"data":[0.0,0.0,0.0,0.0,0.0,0.0,0.0,0.0,0.0,0.0,0.0,0.0,0.0,0.0,0.0,0.0,0.0,0.0,0.0,0.0,0.0,0.0,0.0,0.0,0.0,0.0,0.0,0.0,0.0,0.0,0.0,0.0,0.0,0.0,0.0,0.0,0.0,0.0,0.0,0.0,0.0,0.0,0.0,0.0,0.0,0.0,0.0,0.0,0.0,0.0,0.0,0.0,0.0,0.0,0.0,0.0,0.0,0.0,0.0,0.0,0.0,0.0,0.0,0.0,0.0,0.0,0.0,0.0,0.0,0.0,0.0,0.0,0.0,0.0,0.0,0.0,0.0,0.0,0.0,0.0,0.0,0.0,0.0,0.0,0.0,0.0,0.0,0.0,0.0,0.0,0.0,0.0,0.0,0.0,0.0,0.0,0.0,0.0,0.0,0.0,0.0,0.0,0.0,0.0,0.0,0.0,0.0,0.0,0.0,0.0,0.0,0.0,0.0,0.0,0.0,0.0,0.0,0.0,0.0,0.0,0.0,0.0,0.0,0.0,0.0,0.0,0.0,0.0,0.0,0.0,0.0,0.0,0.0,0.0,0.0,0.0,0.0,0.0,0.0,0.0,0.0,0.0,0.0,0.0,0.0,0.0,0.0,0.0,0.0,0.0,0.0,0.0,0.0,0.0,0.0,0.0,0.0,0.0,0.0,0.0,0.0,0.0,0.0,0.0,0.0,0.0,0.0,0.0,0.0,0.0,0.0,0.0,0.0,0.0,0.0,0.0,0.0,0.0,0.0,0.0,0.0,0.0,0.0,0.0,0.0,0.0,0.0,0.0,0.0,0.0,0.0,0.0,0.0,0.0,0.0,0.0,0.0,0.0,0.0,0.0,0.0,0.0,0.0,0.0,0.0,0.0,0.0,0.0,0.0,0.0,0.0,0.0,0.0,0.0,0.0,0.0,0.0,0.0,0.0,0.0,0.0,0.0,0.0,0.0,0.0,0.0,0.0,0.0,0.0,0.0,0.0,0.0,0.0,0.0,0.0,0.0,0.0,0.0,0.0,0.0,0.0,0.0,0.0,0.0,0.0,0.0,0.0,0.0,0.0,0.0,0.0,0.0,0.0,0.0,0.0,0.0,0.0,0.0,0.0,0.0,0.0,0.0,0.0,0.0,0.0,0.0,0.0,0.0,0.0,0.0,0.0,0.0,0.0,0.0,0.0,0.0,0.0,0.0,0.0,0.0,0.0,0.0,0.0,0.0,0.0,0.0,0.0,0.0,0.0,0.0,0.0,0.0,0.0,0.0,0.0,0.0,0.0,0.0,0.0,0.0,0.0,0.0,0.0,0.0,0.0,0.0,0.0,0.0,0.0,0.0,0.0,0.0,0.0,0.0,0.0,0.0,0.0,0.0,0.0,0.0,0.0,0.0,0.0,0.0,0.0,0.0,0.0,0.0,0.0,0.0,0.0,0.0,0.0,0.0,0.0,0.0,0.0,0.0,0.0,0.0,0.0,0.0,0.0,0.0,0.0,0.0,0.0,0.0,0.0,0.0,0.0,0.0,0.0,0.0,0.0,0.0,0.0,0.0,0.0,0.0,0.0,0.0,0.0,0.0,0.0,0.0,0.0,0.0,0.0,0.0,0.0,0.0,0.0,0.0,0.0,0.0,0.0,0.0,0.0,0.0,0.0,0.0,0.0,0.0,0.0,0.0,0.0,0.0,0.0,0.0,0.0,0.0,0.0,0.0,0.0,0.0,0.0,0.0,0.0,0.0,0.0,0.0,0.0,0.0,0.0,0.0,0.0,0.0,0.0,0.0,0.0,0.0,0.0,0.0,0.0,0.0,0.0,0.0,0.0,0.0,0.0,0.0,0.0,0.0,0.0,0.0,0.0,0.0,0.0,0.0,0.0,0.0,0.0,0.0,0.0,0.0,0.0,0.0,0.0,0.0,0.0,0.0,0.0,0.0,0.0,0.0,0.0,0.0,0.0,0.0,0.0,0.0,0.0,0.0,0.0,0.0,0.0,0.0,0.0,0.0,0.0,0.0,0.0,0.0,0.0,0.0,0.0,0.0,0.0,0.0,0.0,0.0,0.0,0.0,0.0,0.0,0.0,0.0,0.0,0.0,0.0,0.0,0.0,0.0,0.0,0.0,0.0,0.0,0.0,0.0,0.0,0.0,0.0,0.0,0.0,0.0,0.0,0.0,0.0,0.0,0.0,0.0,0.0,0.0,0.0,0.0,0.0,0.0,0.0,0.0,0.0,0.0,0.0,0.0,0.0,0.0,0.0,0.0,0.0,0.0,0.0,0.0,0.0,0.0,0.0,0.0,0.0,0.0,0.0,0.0,0.0,0.0,0.0,0.0,0.0,0.0,0.0,0.0,0.0,0.0,0.0,0.0,0.0,0.0,0.0,0.0,0.0,0.0,0.0,0.0,0.0,0.0,0.0,0.0,0.0,0.0,0.0,0.0,0.0,0.0,0.0,0.0,0.0,0.0,0.0,0.0,0.0,0.0,0.0,0.0,0.0,0.0,0.0,0.0,0.0,0.0,0.0,0.0,0.0,0.0,0.0,0.0,0.0,0.0,0.0,0.0,0.0,0.0,0.0,0.0,0.0,0.0,0.0,0.0,0.0,0.0,0.0,0.0,0.0,0.0,0.0,0.0,0.0,0.0,0.0,0.0,0.0,0.0,0.0,0.0,0.0,0.0,0.0,0.0,0.0,0.0,0.0,0.0,0.0,0.0,0.0,0.0,0.0,0.0,0.0,0.0,0.0,0.0,0.0,0.0,0.0,0.0,0.0,0.0,0.0,0.0,0.0,0.0,0.0,0.0,0.0,0.0,0.0,0.0,0.0,0.0,0.0,0.0,0.0,0.0,0.0,0.0,0.0,0.0,0.0,0.0,0.0,0.0,0.0,0.0,0.0,0.0,0.0,0.0,0.0,0.0,0.0,0.0,0.0,0.0,0.0,0.0,0.0,0.0,0.0,0.0,0.0,0.0,0.0,0.0,0.0,0.0,0.0,0.0,0.0,0.0,0.0,0.0,0.0,0.0,0.0,0.0,0.0,0.0,0.0,0.0,0.0,0.0,0.0,0.0,0.0,0.0,0.0,0.0,0.0,0.0,0.0,0.0,0.0,0.0,0.0,0.0,0.0,0.0,0.0,0.0,0.0,0.0,0.0,0.0,0.0,0.0,0.0,0.0,0.0,0.0,0.0,0.0,0.0,0.0,0.0,0.0,0.0,0.0,0.0,0.0,0.0,0.0,0.0,0.0,0.0,0.0,0.0,0.0,0.0,0.0,0.0,0.0,0.0,0.0,0.0,0.0,0.0,0.0,0.0,0.0,0.0,0.0,0.0,0.0,0.0,0.0,0.0,0.0,0.0,0.0,0.0,0.0,0.0,0.0,0.0,0.0,0.0,0.0,0.0,0.0,0.0,0.0,0.0,0.0,0.0,0.0,0.0,0.0,0.0,0.0,0.0,0.0,0.0,0.0,0.0,0.0,0.0,0.0,0.0,0.0,0.0,0.0,0.0,0.0,0.0,0.0,0.0,0.0,0.0,0.0,0.0,0.0,0.0,0.0,0.0,0.0,0.0,0.0,0.0,0.0,0.0,0.0,0.0,0.0,0.0,0.0,0.0,0.0,0.0,0.0,0.0,0.0,0.0,0.0,0.0,0.0,0.0,0.0,0.0,0.0,0.0,0.0,0.0,0.0,0.0,0.0,0.0,0.0,0.0,0.0,0.0,0.0,0.0,0.0,0.0,0.0,0.0,0.0,0.0,0.0,0.0,0.0,0.0,0.0,0.0,0.0,0.0,0.0,0.0,0.0,0.0,0.0,0.0,0.0,0.0,0.0,0.0,0.0,0.0,0.0,0.0,0.0,0.0,0.0,0.0,0.0,0.0,0.0,0.0,0.0,0.0,0.0,0.0,0.0,0.0,0.0,0.0,0.0,0.0,0.0,0.0,0.0,0.0,0.0,0.0,0.0,0.0,0.0,0.0,0.0,0.0,0.0,0.0,0.0,0.0,0.0,0.0,0.0,0.0,0.0,0.0,0.0,0.0,0.0,0.0,0.0,0.0,0.0,0.0,0.0,0.0,0.0,0.0,0.0,0.0,0.0,0.0,0.0,0.0,0.0,0.0,0.0,0.0,0.0,0.0,0.0,0.0,0.0,0.0,0.0,0.0,0.0,0.0,0.0,0.0,0.0,0.0,0.0,0.0,0.0,0.0,0.0,0.0,0.0,0.0,0.0,0.0,0.0,0.0,0.0,0.0,0.0,0.0,0.0,0.0,0.0,0.0,0.0,0.0,0.0,0.0,0.0,0.0,0.0,0.0,0.0,0.0,0.0,0.0,0.0,0.0,0.0,0.0,0.0,0.0,0.0,0.0,0.0,0.0,0.0,0.0,0.0,0.0,0.0,0.0,0.0,0.0,0.0,0.0,0.0,0.0,0.0,0.0,0.0,0.0,0.0,0.0,0.0,0.0,0.0,0.0,0.0,0.0,0.0,0.0,0.0,0.0,0.0,0.0,0.0,0.0,0.0,0.0,0.0,0.0,0.0,0.0,0.0,0.0,0.0,0.0,0.0,0.0,0.0,0.0,0.0,0.0,0.0,0.0,0.0,0.0,0.0,0.0,0.0,0.0,0.0,0.0,0.0,0.0,0.0,0.0,0.0,0.0,0.0,0.0,0.0,0.0,0.0,0.0,0.0,0.0,0.0,0.0,0.0,0.0,0.0,0.0,0.0,0.0,0.0,0.0,0.0,0.0,0.0,0.0,0.0,0.0,0.0,0.0,0.0,0.0,0.0,0.0,0.0,0.0,0.0,0.0,0.0,0.0,0.0,0.0,0.0,0.0,0.0,0.0,0.0,0.0,0.0,0.0,0.0,0.0,0.0,0.0,0.0,0.0,0.0,0.0,0.0,0.0,0.0,0.0,0.0,0.0,0.0,0.0,0.0,0.0,0.0,0.0,0.0,0.0,0.0,0.0,0.0,0.0,0.0,0.0,0.0,0.0,0.0,0.0,0.0,0.0,0.0,0.0,0.0,0.0,0.0,0.0,0.0,0.0,0.0,0.0,0.0,0.0,0.0,0.0,0.0,0.0,0.0,0.0,0.0,0.0,0.0,0.0,0.0,0.0,0.0,0.0,0.0,0.0,0.0,0.0,0.0,0.0,0.0,0.0,0.0,0.0,0.0,0.0,0.0,0.0,0.0,0.0,0.0,0.0,0.0,0.0,0.0,0.0,0.0,0.0,0.0,0.0,0.0,0.0,0.0,0.0,0.0,0.0,0.0,0.0,0.0,0.0,0.0,0.0,0.0,0.0,0.0,0.0,0.0,0.0,0.0,0.0,0.0,0.0,0.0,0.0,0.0,0.0,0.0,0.0,0.0,0.0,0.0,0.0,0.0,0.0,0.0,0.0,0.0,0.0,0.0,0.0,0.0,0.0,0.0,0.0,0.0,0.0,0.0,0.0,0.0,0.0,0.0,0.0,0.0,0.0,0.0,0.0,0.0,0.0,0.0,0.0,0.0,0.0,0.0,0.0,0.0,0.0,0.0,0.0,0.0,0.0,0.0,0.0,0.0,0.0,0.0,0.0,0.0,0.0,0.0,0.0,0.0,0.0,0.0,0.0,0.0,0.0,0.0,0.0,0.0,0.0,0.0,0.0,0.0,0.0,0.0,0.0,0.0,0.0,0.0,0.0,0.0,0.0,0.0,0.0,0.0,0.0,0.0,0.0,0.0,0.0,0.0,0.0,0.0,0.0,0.0,0.0,0.0,0.0,0.0,0.0,0.0,0.0,0.0,0.0,0.0,0.0,0.0,0.0,0.0,0.0,0.0,0.0,0.0,0.0,0.0,0.0,0.0,0.0,0.0,0.0,0.0,0.0,0.0,0.0,0.0,0.0,0.0,0.0,0.0,0.0,0.0,0.0,0.0,0.0,0.0,0.0,0.0,0.0,0.0,0.0,0.0,0.0,0.0,0.0,0.0,0.0,0.0,0.0,0.0,0.0,0.0,0.0,0.0,0.0,0.0,0.0,0.0,0.0,0.0,0.0,0.0,0.0,0.0,0.0,0.0,0.0,0.0,0.0,0.0,-1.3991,-1.3211,0.0,0.0,0.0,0.0,0.0,0.0,0.0,0.0,0.0,0.0,0.0,0.0,0.0,0.0,0.0,0.0,0.0,0.0,0.0,0.0,0.0,0.0,0.0,0.0,0.0,0.0,0.0,0.0,0.0,0.0,0.0,0.0,0.0,0.0,0.0,0.0,0.0,0.0,0.0,0.0,0.0,0.0,0.0,0.0,0.0,0.0,0.0,0.0,0.0,0.0,0.0,0.0,0.0,0.0,0.0,0.0,0.0,0.0,0.0,0.0,0.0,0.0,0.0,0.0,0.0,0.0,0.0,0.0,0.0,0.0,0.0,0.0,0.0,0.0,0.0,0.0,0.0,0.0,0.0,0.0,0.0,0.0,0.0,0.0,0.0,0.0,0.0,0.0,0.0,0.0,0.0,0.0,0.0,0.0,0.0,0.0,0.0,0.0,0.0,0.0,0.0,0.0,0.0,0.0,0.0,0.0,0.0,0.0,0.0,0.0,0.0,0.0,0.0,0.0,-1.5463,-1.4824,0.0,0.0,0.0,0.0,0.0,0.0,0.0,0.0,0.0,0.0,0.0,0.0,0.0,0.0,0.0,0.0,0.0,0.0,0.0,0.0,0.0,0.0,0.0,0.0,0.0,0.0,0.0,0.0,0.0,0.0,0.0,0.0,0.0,0.0,0.0,0.0,0.0,0.0,0.0,0.0,0.0,0.0,0.0,0.0,0.0,0.0,0.0,0.0,0.0,0.0,0.0,0.0,0.0,0.0,0.0,0.0,0.0,0.0,0.0,0.0,0.0,0.0,0.0,0.0,0.0,0.0,0.0,0.0,0.0,0.0,0.0,0.0,0.0,0.0,0.0,0.0,0.0,0.0,0.0,0.0,0.0,0.0,0.0,0.0,0.0,0.0,0.0,0.0,0.0,0.0,0.0,0.0,0.0,0.0,0.0,0.0,0.0,0.0,0.0,0.0,0.0,0.0,0.0,0.0,0.0,0.0,0.0,0.0,-1.8142,-1.8191,-1.8326,-1.8115,-1.7965,-1.7927,-1.7471,-1.6956,-1.6423,-1.6423,0.0,0.0,0.0,0.0,0.0,0.0,0.0,0.0,0.0,0.0,0.0,0.0,0.0,0.0,0.0,0.0,0.0,0.0,0.0,0.0,0.0,0.0,0.0,0.0,0.0,0.0,0.0,0.0,0.0,0.0,0.0,0.0,0.0,0.0,0.0,0.0,0.0,0.0,-1.5036,-1.5244,-1.5062,-1.4506,0.0,0.0,0.0,0.0,0.0,0.0,0.0,0.0,0.0,0.0,0.0,0.0,0.0,0.0,0.0,0.0,0.0,0.0,0.0,0.0,0.0,0.0,0.0,0.0,0.0,0.0,0.0,0.0,0.0,0.0,0.0,0.0,0.0,0.0,0.0,0.0,0.0,0.0,0.0,0.0,0.0,0.0,0.0,0.0,-1.5249,-1.5531,0.0,0.0,0.0,0.0,0.0,0.0,0.0,0.0,0.0,0.0,0.0,0.0,0.0,-1.7804,-1.8323,-1.84,-1.8882,-1.9813,-1.9813,-2.0164,-2.0809,-2.0809,-2.0656,-2.039,-2.0334,0.0,-1.6994,-1.6994,0.0,0.0,0.0,0.0,0.0,0.0,0.0,0.0,0.0,0.0,0.0,0.0,0.0,0.0,0.0,0.0,0.0,0.0,0.0,0.0,0.0,0.0,0.0,0.0,0.0,0.0,0.0,0.0,0.0,0.0,0.0,0.0,0.0,0.0,0.0,0.0,-1.6753,-1.6832,-1.6769,-1.6699,-1.6349,-1.5763,-1.4664,-1.3758,-1.2899,-1.2226,0.0,0.0,0.0,0.0,0.0,0.0,0.0,0.0,0.0,0.0,0.0,0.0,0.0,0.0,0.0,0.0,0.0,0.0,0.0,0.0,0.0,0.0,0.0,0.0,0.0,0.0,0.0,0.0,0.0,0.0,0.0,0.0,0.0,0.0,0.0,0.0,0.0,0.0,0.0,-1.5262,-1.6086,-1.6138,-1.6253,-1.6329,0.0,0.0,0.0,0.0,0.0,0.0,0.0,0.0,0.0,-1.8311,-1.9179,-1.9724,-1.9891,-2.0531,-2.1004,-2.13,-2.13,-2.145,-2.1703,-2.1605,-2.1493,-2.1394,-2.1325,-2.0655,-1.9552,-1.9191,-1.9096,-1.9096,0.0,0.0,0.0,0.0,-1.948,-1.974,0.0,0.0,0.0,0.0,0.0,0.0,0.0,0.0,0.0,0.0,0.0,0.0,0.0,0.0,0.0,-1.7306,0.0,0.0,0.0,0.0,0.0,0.0,0.0,0.0,0.0,0.0,0.0,0.0,-1.8569,-1.8452,-1.8067,-1.7849,-1.7403,-1.6753,-1.6369,-1.5222,-1.3548,-1.2811,-1.1826,0.0,0.0,0.0,0.0,0.0,0.0,0.0,0.0,0.0,0.0,0.0,0.0,0.0,0.0,0.0,0.0,0.0,0.0,0.0,0.0,0.0,0.0,0.0,0.0,0.0,0.0,0.0,0.0,0.0,0.0,0.0,0.0,0.0,0.0,0.0,0.0,0.0,0.0,-1.6257,-1.7049,-1.7235,-1.7451,-1.7531,0.0,0.0,0.0,0.0,0.0,0.0,-1.9081,-1.9615,-1.9959,-2.0093,-2.1099,-2.1599,-2.1449,-2.2299,-2.2656,-2.2596,-2.2596,-2.262,-2.2596,-2.2485,-2.2429,-2.2373,-2.2304,-2.2222,-2.2071,-2.1173,-2.0848,-2.0848,-2.1031,-2.1031,-2.1099,-2.1168,-2.1312,-2.1378,0.0,0.0,0.0,0.0,0.0,0.0,0.0,0.0,0.0,0.0,0.0,0.0,0.0,0.0,-1.7595,-1.8279,-1.9069,-1.9476,0.0,0.0,0.0,0.0,0.0,0.0,0.0,0.0,0.0,-1.9598,-1.9246,-1.8908,-1.8572,-1.8677,-1.8357,-1.7711,-1.7566,-1.6255,-1.4125,-1.3361,-1.2358,-1.1216,0.0,0.0,0.0,0.0,0.0,0.0,0.0,0.0,0.0,0.0,0.0,0.0,0.0,0.0,0.0,0.0,0.0,0.0,0.0,0.0,0.0,0.0,0.0,0.0,0.0,0.0,0.0,0.0,0.0,0.0,0.0,0.0,0.0,0.0,0.0,0.0,0.0,0.0,0.0,-1.9279,-1.9466,0.0,0.0,0.0,0.0,-1.9816,-1.9871,-2.0161,-2.0649,-2.1266,-2.1759,-2.2256,-2.2858,-2.3146,-2.2989,-2.3056,-2.3259,-2.3643,-2.3643,-2.3811,-2.42,-2.42,-2.4084,-2.3981,-2.3981,-2.3981,-2.3832,-2.2166,-2.1443,-2.1443,-2.1499,-2.1511,-2.1592,-2.1592,-2.1876,-2.2272,0.0,0.0,0.0,0.0,0.0,0.0,0.0,0.0,0.0,0.0,0.0,0.0,0.0,-1.6979,-1.7776,-1.8523,-1.9294,-1.9688,-1.9596,0.0,0.0,0.0,0.0,0.0,0.0,0.0,-2.0863,-2.0866,-2.0971,-2.0792,-2.0392,-2.0095,-1.9515,-1.8731,-1.8074,-1.698,-1.5452,-1.4178,-1.2829,-1.1469,-1.0503,-0.9689,0.0,0.0,0.0,0.0,0.0,0.0,0.0,0.0,0.0,0.0,0.0,0.0,0.0,0.0,0.0,0.0,0.0,0.0,0.0,0.0,0.0,0.0,0.0,0.0,0.0,0.0,0.0,0.0,0.0,0.0,0.0,0.0,0.0,0.0,0.0,0.0,0.0,-1.9574,-1.9778,0.0,-1.991,-2.0299,-2.0744,-2.1204,-2.1531,-2.2014,-2.2636,-2.2884,-2.3055,-2.3248,-2.3802,-2.4118,-2.4065,-2.4476,-2.4668,-2.4693,-2.4693,-2.4689,-2.4765,-2.4765,-2.4664,-2.4536,-2.4536,-2.4492,-2.4394,-2.3743,-2.3389,-2.3147,-2.3147,-2.316,-2.323,-2.323,-2.3302,-2.3483,0.0,0.0,0.0,0.0,0.0,0.0,0.0,0.0,0.0,0.0,0.0,-1.4877,-1.6567,-1.7219,-1.7993,-1.9076,-1.9612,-1.9839,-1.9769,0.0,0.0,0.0,0.0,0.0,0.0,-2.1986,-2.2157,-2.2146,-2.2271,-2.2119,-2.1685,-2.1039,-2.0299,-1.9405,-1.8391,-1.7286,-1.6015,-1.4551,-1.3178,-1.1783,-1.0746,-0.983,-0.9031,0.0,0.0,0.0,0.0,0.0,0.0,0.0,0.0,0.0,0.0,0.0,0.0,0.0,0.0,0.0,0.0,0.0,0.0,0.0,0.0,0.0,0.0,0.0,0.0,0.0,0.0,0.0,0.0,0.0,0.0,0.0,0.0,0.0,0.0,-1.9412,-2.0161,-2.0456,-2.065,-2.0823,-2.1077,-2.1513,-2.2063,-2.2754,-2.3112,-2.3602,-2.4231,-2.4259,-2.4371,-2.4567,-2.4973,-2.5129,-2.5129,-2.5493,-2.5633,-2.5453,-2.5453,-2.5397,-2.5286,-2.5286,-2.5174,-2.5118,-2.5075,-2.4975,-2.4905,-2.4905,-2.4778,-2.4549,-2.4421,-2.4363,-2.4421,-2.4421,-2.4421,-2.4421,0.0,0.0,0.0,0.0,0.0,0.0,0.0,0.0,0.0,0.0,-1.4073,-1.5741,-1.7417,-1.7608,-1.8281,-1.9964,-2.005,-1.9981,-1.9899,-1.9877,0.0,0.0,0.0,0.0,-2.285,-2.2736,-2.2898,-2.3379,-2.3003,-2.2643,-2.2252,-2.1472,-2.0602,-1.9647,-1.8569,-1.7177,-1.562,-1.4516,-1.33,-1.2059,-1.1066,-0.9872,-0.8687,0.0,0.0,0.0,0.0,0.0,0.0,0.0,0.0,0.0,0.0,0.0,0.0,0.0,0.0,0.0,0.0,0.0,0.0,0.0,0.0,0.0,0.0,0.0,0.0,0.0,0.0,0.0,0.0,0.0,0.0,0.0,0.0,0.0,-2.0661,-2.0795,-2.1167,-2.1969,-2.2194,-2.256,-2.3263,-2.3478,-2.3846,-2.4504,-2.4547,-2.4783,-2.5397,-2.544,-2.5712,-2.6258,-2.6326,-2.6233,-2.6111,-2.6111,-2.6056,-2.5948,-2.5893,-2.5893,-2.5893,-2.5784,-2.5729,-2.5729,-2.5592,-2.5494,-2.5494,-2.5494,-2.5494,-2.5494,-2.5018,-2.4892,-2.5005,-2.5005,-2.5005,-2.5005,0.0,0.0,0.0,0.0,0.0,0.0,0.0,0.0,0.0,0.0,-1.4514,-1.5817,-1.7497,-1.767,-1.8374,-2.0099,-2.0178,-2.0124,-2.005,0.0,0.0,0.0,0.0,0.0,-2.4016,-2.395,-2.3621,-2.3045,-2.3279,-2.2835,-2.1772,-2.1607,-2.0895,-1.9718,-1.8293,-1.6809,-1.5306,-1.3695,-1.231,-1.1144,-1.0643,-0.9843,-0.8934,0.0,0.0,0.0,0.0,0.0,0.0,0.0,0.0,0.0,0.0,0.0,0.0,0.0,0.0,0.0,0.0,0.0,0.0,0.0,0.0,0.0,0.0,0.0,0.0,0.0,0.0,0.0,0.0,0.0,0.0,0.0,-2.1181,-2.1638,-2.1558,-2.2102,-2.2859,-2.3694,-2.3912,-2.4129,-2.4399,-2.4476,-2.4785,-2.5387,-2.543,-2.5705,-2.6289,-2.6318,-2.6404,-2.6563,-2.6578,-2.6578,-2.6525,-2.6525,-2.6525,-2.6472,-2.6365,-2.6351,-2.6297,-2.6218,-2.6056,-2.6002,-2.5962,-2.5853,-2.5798,-2.5798,-2.5853,-2.5907,-2.5564,-2.5508,-2.5508,-2.5619,-2.5674,-2.5674,0.0,0.0,0.0,0.0,0.0,0.0,0.0,0.0,0.0,0.0,-1.5012,-1.6245,-1.7594,-1.8076,-1.8827,-2.0181,-2.0262,-2.0219,-2.0195,0.0,0.0,0.0,0.0,-2.4377,-2.4689,-2.4298,-2.3745,-2.3115,-2.2904,-2.2467,-2.1809,-2.1404,-2.0653,-1.9551,-1.786,-1.6143,-1.4381,-1.2715,-1.1223,-0.9959,-0.9423,-0.8984,-0.8565,-0.8059,-0.7679,-0.7319,-0.7164,-0.7108,-0.7059,-0.6918,0.0,0.0,0.0,0.0,0.0,0.0,0.0,0.0,0.0,0.0,0.0,0.0,0.0,0.0,0.0,0.0,0.0,0.0,0.0,0.0,0.0,0.0,0.0,0.0,-2.2524,-2.3152,-2.3504,-2.368,-2.404,-2.4693,-2.4834,-2.5034,-2.5507,-2.5521,-2.5786,-2.6497,-2.6541,-2.6703,-2.7071,-2.71,-2.71,-2.71,-2.71,-2.7049,-2.7011,-2.7011,-2.6959,-2.6893,-2.6841,-2.6788,-2.6788,-2.6659,-2.6553,-2.6447,-2.6379,-2.6312,-2.6258,-2.6258,-2.6258,-2.6312,0.0,0.0,0.0,0.0,-2.6204,-2.6258,0.0,0.0,0.0,0.0,0.0,0.0,0.0,0.0,0.0,0.0,0.0,-1.6835,-1.7696,-1.8583,-1.9432,-2.025,-2.0306,-2.0395,0.0,0.0,0.0,-2.4023,-2.4758,-2.5096,-2.5043,-2.4113,-2.3534,-2.3309,-2.2367,-2.1917,-2.1967,-2.1019,-2.0127,-1.9182,-1.7237,-1.5175,-1.3037,-1.1478,-0.9987,-0.8508,-0.7735,-0.7565,-0.779,-0.7644,-0.7298,-0.6896,-0.7013,-0.7092,-0.714,-0.7356,0.0,0.0,0.0,0.0,0.0,0.0,0.0,0.0,0.0,0.0,0.0,0.0,0.0,0.0,0.0,0.0,0.0,0.0,0.0,0.0,0.0,0.0,0.0,0.0,-2.3631,-2.4833,-2.5857,-2.545,-2.515,-2.536,-2.5408,-2.5726,-2.6485,-2.6519,-2.6807,-2.758,-2.7565,-2.755,-2.7625,-2.7625,0.0,0.0,0.0,-2.759,-2.7452,-2.7452,-2.7401,-2.7284,-2.7269,-2.7284,-2.7233,-2.7093,-2.7055,-2.7003,-2.6855,-2.6788,-2.6788,-2.6788,-2.6788,-2.6736,-2.6326,-2.6272,-2.6447,-2.6525,-2.6669,-2.6788,0.0,0.0,0.0,0.0,0.0,0.0,0.0,0.0,0.0,-1.4849,-1.5859,-1.6827,-1.7694,-1.8575,-1.9451,-2.0314,-2.0372,-2.0953,0.0,0.0,-2.3539,-2.5039,-2.5262,-2.5312,-2.5245,-2.4368,-2.3539,-2.2756,-2.2966,-2.2422,-2.122,-2.1216,-2.0194,-1.8261,-1.5986,-1.3704,-1.1416,-0.949,-0.7958,-0.664,-0.5896,-0.6269,-0.7228,-0.6903,-0.6828,-0.6876,-0.6786,-0.6924,-0.7091,-0.717,-0.7344,-0.7637,-0.8011,0.0,0.0,0.0,0.0,0.0,0.0,0.0,0.0,0.0,0.0,0.0,0.0,0.0,0.0,0.0,0.0,0.0,0.0,0.0,0.0,-2.4489,-2.5279,-2.6038,-2.7089,-2.731,-2.7285,-2.7136,-2.72,-2.7409,-2.7644,-2.7225,-2.7179,-2.786,-2.7406,-2.7331,-2.7875,-2.7905,-2.7905,-2.7905,-2.7905,-2.7905,-2.7855,-2.7855,-2.7855,-2.7855,-2.774,0.0,-2.7524,-2.7386,-2.7248,-2.7181,-2.713,-2.7115,-2.7115,-2.7115,-2.7181,-2.7233,-2.6937,-2.6937,-2.7026,-2.7063,-2.7181,-2.7284,0.0,0.0,0.0,0.0,0.0,0.0,0.0,0.0,0.0,0.0,-1.6335,-1.7329,-1.7758,-1.8968,-1.9927,-2.0365,-2.0396,0.0,0.0,-2.2946,-2.3715,-2.5439,-2.5471,-2.5418,-2.5391,-2.4559,-2.3871,-2.3392,-2.3125,-2.2476,-2.1434,-2.045,-1.8914,-1.6811,-1.4005,-1.1888,-1.0289,-0.7612,-0.5752,-0.4634,-0.3926,-0.4265,-0.5265,-0.5597,-0.5982,-0.6253,-0.6415,-0.6697,-0.7054,-0.7331,-0.7595,-0.7904,-0.8407,-0.8806,-0.9215,0.0,0.0,0.0,0.0,0.0,0.0,0.0,0.0,0.0,0.0,0.0,0.0,0.0,0.0,-2.1169,-2.2324,0.0,-2.436,-2.5524,-2.6257,-2.695,-2.7715,-2.8024,-2.8137,-2.7925,-2.8039,-2.8015,-2.7776,-2.7439,-2.7287,-2.7333,-2.7333,-2.7519,-2.7842,-2.8211,-2.8411,-2.8411,-2.8411,-2.8348,-2.8299,-2.8299,-2.825,-2.8217,-2.8039,-2.7807,-2.7391,-2.7605,-2.7475,-2.7126,-2.7455,-2.759,-2.759,-2.759,-2.7655,-2.7705,-2.7554,-2.7503,-2.7488,-2.7488,-2.759,-2.7705,0.0,0.0,0.0,0.0,0.0,0.0,0.0,0.0,0.0,0.0,-1.6554,-1.7612,-1.7771,-1.9194,-2.0218,0.0,0.0,0.0,0.0,-2.3012,-2.38,-2.5521,-2.5554,-2.5521,-2.5517,-2.4671,-2.4204,-2.4195,-2.1687,-2.0584,-2.0761,-1.7444,-1.551,-1.4627,-1.1413,-0.9445,-0.8455,-0.5367,-0.3526,-0.2496,-0.1887,-0.2057,-0.2728,-0.3663,-0.4546,-0.5382,-0.5823,-0.6268,-0.682,-0.7354,-0.7836,-0.8215,-0.8745,-0.9256,-0.9666,-0.9956,-1.0631,0.0,0.0,0.0,0.0,0.0,0.0,0.0,0.0,0.0,-1.9421,-2.054,-2.1678,-2.2755,-2.383,-2.4817,-2.5644,-2.6184,-2.6994,-2.769,-2.8057,-2.8332,-2.8493,-2.8414,-2.8369,-2.8123,-2.7627,-2.7348,-2.7067,-2.6767,-2.7248,-2.7607,-2.7748,-2.8436,-2.8842,-2.8842,-2.8842,-2.8826,-2.8716,-2.8668,-2.8559,-2.8292,-2.8181,-2.7731,-2.7103,-2.7463,-2.737,-2.6851,-2.7534,-2.7898,-2.802,-2.802,-2.8005,-2.8069,-2.8069,-2.8054,-2.7989,-2.789,-2.7955,-2.8069,0.0,0.0,0.0,0.0,0.0,0.0,0.0,0.0,0.0,0.0,0.0,0.0,0.0,0.0,0.0,0.0,0.0,0.0,-2.2897,-2.3056,-2.3833,-2.5535,-2.5593,-2.559,-2.5581,-2.4734,-2.4254,-2.4199,-1.6509,-1.4214,-1.6853,-0.9678,-0.8008,-1.088,-0.7936,-0.5834,-0.4321,-0.2369,-0.1053,-0.0334,0.0167,0.0167,-0.0223,-0.0613,-0.2225,-0.4398,-0.4897,-0.5504,-0.6168,-0.6766,-0.7402,-0.8037,-0.8521,-0.9093,-0.971,-1.0261,0.0,-1.1488,-1.2298,-1.361,-1.4904,-1.5553,-1.649,-1.7612,0.0,0.0,-2.0987,-2.2247,-2.3379,-2.4309,-2.493,-2.5873,-2.6686,-2.7181,-2.7745,-2.8171,-2.8431,-2.8779,-2.9075,-2.9167,-2.8448,-2.7948,-2.7958,-2.6855,-2.6383,-2.6918,-2.704,-2.734,-2.7955,-2.8681,-2.9091,-2.9091,-2.9091,-2.9045,-2.9029,-2.892,-2.8575,-2.795,-2.7843,-2.7333,-2.6562,-2.6534,-2.6382,-2.623,-2.6836,-2.7458,-2.802,-2.802,-2.8152,-2.8363,-2.8363,-2.8493,-2.8636,-2.8284,-2.825,-2.8348,0.0,0.0,0.0,0.0,0.0,0.0,0.0,0.0,0.0,0.0,0.0,0.0,0.0,0.0,0.0,0.0,0.0,0.0,-2.2956,-2.3072,-2.3873,-2.557,-2.5619,-2.5586,-2.5541,-2.5115,-2.2612,-1.7972,-1.4877,-1.1851,-0.8893,-0.5678,-0.4885,-0.6126,-0.3952,-0.2308,-0.1106,0.0351,0.1705,0.2823,0.2425,0.2121,0.1774,0.1179,-0.0,-0.1613,-0.3169,-0.4336,0.0,0.0,-0.6804,-0.7557,-0.8156,-0.8844,-0.9465,-1.0051,-1.0761,0.0,-1.2954,-1.4287,-1.5444,-1.5945,-1.7283,-1.8694,-1.9558,-2.0924,-2.2269,-2.3231,-2.4368,-2.5338,-2.5964,-2.6666,-2.7269,-2.779,-2.8171,-2.8494,-2.8826,-2.9106,-2.938,-2.9544,-2.8918,-2.8281,-2.7753,-2.7278,-2.6935,-2.6807,-2.7176,-2.7705,-2.8426,-2.9131,-2.9499,-2.9499,-2.9486,-2.9457,-2.9457,-2.9321,-2.9116,-2.8801,-2.8268,-2.7583,-2.6835,-2.6673,-2.6758,-2.7041,-2.7288,-2.7812,-2.846,-2.846,-2.8556,-2.8652,-2.8652,-2.87,-2.8794,-2.8589,-2.8589,-2.8652,0.0,0.0,0.0,0.0,0.0,0.0,0.0,0.0,0.0,0.0,0.0,0.0,0.0,0.0,0.0,0.0,0.0,0.0,0.0,-2.3105,-2.3863,-2.5565,-2.5556,-2.4454,-2.2188,-2.2088,-1.8242,-1.0407,-0.9018,-0.6253,-0.2249,-0.0491,-0.0182,-0.1026,-0.0,0.1056,0.2193,0.2932,0.3981,0.5022,0.4324,0.3856,0.3493,0.2761,0.195,0.0836,-0.1557,-0.3169,0.0,0.0,-0.6041,-0.6912,-0.7676,-0.8368,-0.912,-0.9738,-1.0808,-1.2037,-1.346,-1.4674,-1.5745,-1.6385,-1.79,-1.945,-2.0306,-2.1774,-2.3237,-2.4176,-2.5231,-2.615,-2.6826,-2.7321,-2.779,-2.8268,-2.8542,-2.8858,-2.9213,-2.9531,-2.9782,-2.9941,-2.9639,-2.905,-2.8184,-2.794,-2.7655,-2.7212,-2.7809,-2.8445,-2.8967,-2.9609,-2.9984,-2.9984,-2.9886,-2.9814,-2.9814,-2.9681,-2.9556,-2.9347,-2.8626,-2.7822,-2.6936,-2.6504,-2.671,-2.7422,-2.7422,-2.7952,-2.8794,-2.8794,-2.8794,-2.8826,-2.8873,-2.8936,-2.892,-2.8983,-2.8936,-2.892,0.0,0.0,0.0,0.0,0.0,0.0,0.0,0.0,0.0,0.0,0.0,0.0,0.0,0.0,0.0,0.0,0.0,0.0,0.0,-2.3105,-2.382,-2.5444,-2.5376,-2.1652,-1.3832,-1.3858,-1.0244,-0.2649,0.4305,0.5407,0.1186,0.7447,0.8234,0.4333,0.3713,0.4333,0.5718,0.5393,0.5385,0.5559,0.5611,0.5362,0.488,0.434,0.3506,0.2279,-0.0389,0.0,0.0,0.0,-0.521,-0.6145,-0.6918,-0.7729,0.0,-0.9398,-1.1087,-1.2894,-1.3855,-1.4954,-1.6083,-1.6944,-1.8171,-1.9589,-2.1163,-2.2446,-2.3761,-2.5301,-2.6082,-2.6721,-2.7458,-2.7875,-2.8268,-2.8637,-2.9013,-2.935,-2.9637,-2.9989,-3.0231,-3.0375,-3.0551,-3.0359,-2.9626,-2.8698,-2.8246,-2.8345,-2.9019,-2.9466,-2.9483,-3.0063,-3.0359,-3.0359,-3.0231,-3.0189,-3.0189,-3.006,-2.9675,-2.9032,-2.8731,-2.7862,-2.6494,-2.5489,-2.5664,-2.672,-2.672,-2.7515,-2.8794,-2.8794,-2.8826,-2.892,-2.9029,-2.9167,-2.9305,-2.9428,-2.9321,-2.9137,0.0,0.0,0.0,0.0,0.0,0.0,0.0,0.0,0.0,0.0,0.0,0.0,0.0,0.0,0.0,0.0,0.0,0.0,0.0,-2.2697,-2.1052,-1.6738,-1.7103,-1.3685,-0.5704,-0.5946,-0.2585,0.4722,0.5944,0.7616,0.9685,1.022,0.9073,0.6478,0.569,0.5635,0.6246,0.6229,0.6529,0.6937,0.6606,0.6459,0.6379,0.5563,0.4827,0.3938,0.0,0.0,0.0,0.0,0.0,-0.4933,-0.576,-0.6632,-0.7686,-0.9359,-1.0827,-1.2169,-1.3482,-1.4653,-1.5816,-1.6842,-1.8272,-1.9761,-2.0878,-2.2163,-2.3486,-2.4573,-2.5596,-2.6559,-2.7276,-2.809,-2.8779,-2.9152,-2.9544,-2.9826,-3.0033,-3.0316,-3.0551,-3.0658,-3.0797,-3.0874,-3.0762,-2.9861,-2.9365,-2.9403,-2.9693,-3.0062,-3.047,-3.0697,-3.0773,-3.0749,-3.0609,-3.0526,-3.0526,-3.0359,-3.0159,-2.9913,-2.9127,-2.823,-2.7268,-2.6807,-2.7015,-2.7762,-2.7762,-2.8284,-2.9137,-2.9137,-2.9183,-2.9321,-2.9321,-2.9366,-2.9457,-2.9605,-2.9633,-2.9544,0.0,0.0,0.0,0.0,0.0,0.0,0.0,0.0,0.0,0.0,0.0,0.0,0.0,0.0,0.0,0.0,0.0,0.0,0.0,0.0,-1.6633,-1.2254,-1.0255,-0.563,0.2119,0.1625,0.473,1.1817,0.996,1.0596,1.3503,1.1291,0.9439,0.7981,0.7198,0.6924,0.7012,0.7305,0.7601,0.8005,0.7698,0.7599,0.7577,0.6783,0.614,0.0,0.0,0.0,0.0,0.0,-0.2279,-0.3498,-0.4433,-0.5678,-0.7217,-0.9014,-1.0425,-1.1632,-1.3124,-1.4451,-1.568,-1.6821,-1.8472,-2.0074,-2.1053,-2.2377,-2.364,-2.4517,-2.5568,-2.65,-2.7193,-2.8162,-2.8936,-2.935,-2.9821,-3.0241,-3.0384,-3.0692,-3.0918,-3.1061,-3.1157,-3.1274,-3.1466,-3.0946,-3.0581,-3.0501,-3.054,-3.076,-3.1157,-3.1134,-3.1095,-3.1055,-3.0935,-3.0871,-3.0814,-3.0692,-3.0568,-3.0443,-2.951,-2.8755,-2.8176,-2.7695,-2.7843,-2.8419,-2.8375,-2.8729,-2.9366,-2.9366,-2.9457,-2.9563,-2.9592,-2.9637,-2.9681,-2.987,-2.9941,-2.9957,0.0,0.0,0.0,0.0,0.0,0.0,0.0,0.0,0.0,0.0,0.0,0.0,0.0,0.0,0.0,0.0,0.0,0.0,0.0,0.0,0.0,-1.1051,-0.4788,0.2198,0.9666,0.8883,1.1554,1.7995,1.6115,1.4327,1.2609,1.099,0.9715,0.888,0.8267,0.8069,0.817,0.8457,0.8627,0.8661,0.8745,0.87,0.8509,0.7979,0.0,0.0,0.0,0.0,0.0,0.0,0.0,-0.1955,-0.3007,-0.4991,-0.717,-0.836,-0.9786,-1.1267,-1.2749,-1.4246,-1.5708,-1.709,-1.8823,-2.0498,-2.1652,-2.2912,-2.4149,-2.5216,-2.5834,-2.6448,0.0,0.0,-2.8802,-2.9198,-2.9914,-3.0584,-3.0804,-3.1038,-3.1308,-3.1521,-3.1579,-3.1671,-3.18,-3.1875,-3.1802,-3.1538,-3.1555,-3.1517,-3.1517,-3.1389,-3.1334,-3.1334,-3.1252,-3.1151,-3.1015,-3.1015,-3.0855,-3.051,-2.9888,-2.9395,-2.9074,-2.8208,-2.8133,-2.8678,-2.8597,-2.8954,-2.9518,-2.9518,-2.9608,-2.9726,-2.9826,-2.9913,-3.0017,-3.0146,-3.0248,-3.0248,0.0,0.0,0.0,0.0,0.0,0.0,0.0,0.0,0.0,0.0,0.0,0.0,0.0,0.0,0.0,0.0,0.0,0.0,0.0,0.0,0.0,0.0,0.0,0.0,0.0,0.0,0.0,0.0,0.0,1.3371,1.1984,1.0754,0.9807,0.9118,0.8631,0.8508,0.8619,0.8836,0.9045,0.9368,0.0,0.9415,0.9453,0.0,0.0,0.0,0.0,0.0,0.0,0.0,0.0,-0.1908,-0.2947,-0.4518,-0.62,-0.7551,-0.9045,-1.0634,-1.2549,-1.4168,-1.5746,-1.7468,-1.9011,-2.0412,-2.1496,-2.2686,-2.3717,-2.4453,-2.5492,-2.642,-2.6918,-2.7804,-2.8754,-2.9588,-3.0017,-3.0531,-3.1227,-3.1428,0.0,-3.1748,0.0,-3.2001,-3.2073,-3.2161,-3.2179,-3.2109,-3.1984,-3.1893,-3.1802,-3.1748,-3.1711,-3.1671,-3.1559,-3.1466,-3.1428,-3.1312,-3.1117,-3.0895,-3.0597,-3.0351,-3.012,-2.9856,-2.9704,-2.9654,-2.961,-2.9724,-2.9886,-2.9886,-2.9946,-3.006,-3.0189,-3.0274,-3.0333,-3.0485,-3.0568,-3.0568,0.0,0.0,0.0,0.0,0.0,0.0,0.0,0.0,0.0,0.0,0.0,0.0,0.0,0.0,0.0,0.0,0.0,0.0,0.0,0.0,0.0,0.0,0.0,0.0,0.0,0.0,0.0,0.0,0.0,0.0,0.0,1.0736,1.0035,0.9524,0.9256,0.9242,0.9444,0.0,0.0,0.0,0.0,0.0,0.0,0.0,0.0,0.0,0.0,0.0,0.0,0.0,0.0,-0.1055,-0.256,-0.4136,-0.5769,-0.737,-0.9006,-1.0759,-1.2777,-1.4554,-1.6239,-1.8089,-1.9659,-2.0975,-2.2025,-2.2878,-2.359,-2.4225,-2.483,-2.5513,-2.6239,-2.719,-2.8125,0.0,0.0,0.0,-3.1121,-3.1539,-3.1875,0.0,-3.2249,0.0,-3.2456,-3.2506,-3.2555,-3.2555,-3.2335,-3.2161,-3.2073,-3.2073,-3.2038,-3.202,-3.1912,-3.1802,-3.1728,-3.1524,-3.1351,-3.1213,-3.11,-3.0902,-3.0733,-3.0634,-3.0468,-3.0316,-3.0231,-3.0231,-3.0231,-3.0231,-3.0316,-3.0443,-3.0485,-3.0584,-3.0626,-3.0773,-3.0814,-3.0855,0.0,0.0,0.0,0.0,0.0,0.0,0.0,0.0,0.0,0.0,0.0,0.0,0.0,0.0,0.0,0.0,0.0,0.0,0.0,0.0,0.0,0.0,0.0,0.0,0.0,0.0,0.0,0.0,0.0,0.0,0.0,0.0,0.0,0.0,0.0,0.0,0.0,0.0,0.0,0.0,0.0,0.0,0.0,0.0,0.0,0.0,0.0,0.0,0.0,0.0,0.3596,-0.0,-0.2129,-0.4012,-0.5739,-0.7634,-0.9488,-1.137,-1.3356,-1.5283,-1.7103,-1.8907,-2.0542,-2.1904,-2.2819,-2.3284,-2.3698,-2.4229,-2.4214,-2.4409,-2.5416,-2.6387,-2.7287,-2.8159,0.0,-3.0473,-3.082,-3.1516,-3.2109,-3.2422,-3.2557,-3.2722,-3.2805,-3.2902,-3.2948,-3.2948,-3.2639,-3.242,-3.2386,-3.2386,-3.2352,-3.2352,-3.2266,-3.2144,-3.193,-3.1765,-3.1654,-3.1542,-3.1428,-3.1274,-3.1055,-3.0942,-3.0821,-3.0773,-3.0609,-3.0568,-3.0568,-3.0568,-3.0609,-3.0733,-3.0773,-3.0855,-3.0935,-3.1015,-3.1055,-3.1095,0.0,0.0,0.0,0.0,0.0,0.0,0.0,0.0,0.0,0.0,0.0,0.0,0.0,0.0,0.0,0.0,0.0,0.0,0.0,0.0,0.0,0.0,0.0,0.0,0.0,0.0,0.0,0.0,0.0,0.0,0.0,0.0,0.0,0.0,0.0,0.0,0.0,0.0,0.0,0.0,0.0,0.0,0.0,0.0,0.0,0.0,0.0,0.0,0.0,0.0,0.2936,-0.0121,-0.2677,-0.4806,-0.6716,-0.8681,-1.0392,-1.2173,-1.4431,-1.6325,-1.8147,-2.0116,-2.1627,-2.2746,-2.3152,-2.3809,0.0,-2.4082,-2.4307,-2.4628,-2.5033,-2.5895,-2.6795,-2.7687,-2.8609,-2.9674,-3.1019,-3.1399,-3.1815,0.0,-3.287,-3.2948,-3.2948,-3.3122,-3.3232,-3.3232,-3.3214,-3.3104,-3.2802,-3.282,-3.2705,-3.2555,-3.2489,-3.2353,-3.2144,-3.2108,-3.202,-3.1821,-3.1746,-3.1596,-3.1389,-3.1257,-3.1196,-3.1112,-3.0975,-3.0895,-3.0895,-3.0855,-3.0871,-3.0975,-3.1072,-3.1173,-3.1235,-3.1385,-3.1385,-3.144,0.0,0.0,0.0,0.0,0.0,0.0,0.0,0.0,0.0,0.0,-1.7167,-1.7343,0.0,0.0,0.0,0.0,0.0,0.0,0.0,0.0,0.0,0.0,0.0,0.0,0.0,0.0,1.1389,1.0965,0.0,0.0,0.0,0.9956,0.9956,1.0001,0.0,0.0,0.0,0.0,0.0,0.0,0.0,0.0,0.0,0.0,0.0,0.0,0.0,0.0,0.0,0.0,-0.0747,-0.5526,-0.5412,-0.6875,-0.8995,-1.0698,-1.2361,-1.4042,-1.6105,-1.7875,-1.9521,-2.1302,-2.2671,-2.3675,-2.3871,0.0,0.0,-2.3927,-2.3824,-2.4021,-2.4611,-2.5139,0.0,-2.7144,-2.7975,-2.8906,-3.0087,-3.1049,-3.18,-3.2286,-3.2852,-3.3214,-3.3256,-3.3393,-3.3452,-3.3452,-3.3481,-3.3393,-3.3122,-3.3042,-3.293,-3.2802,-3.2755,-3.2657,-3.2489,-3.2387,-3.2318,-3.2197,-3.2073,-3.1929,-3.1819,-3.1674,-3.1579,-3.1483,-3.1368,-3.1312,-3.1329,-3.123,-3.123,-3.1269,-3.1368,-3.1428,-3.1466,-3.1671,-3.1709,-3.1709,0.0,0.0,0.0,0.0,0.0,0.0,0.0,-1.4952,-1.6147,-1.5748,-1.621,-1.5174,-1.1382,-1.001,0.0,0.0,0.0,0.0,0.0,0.0,0.0,0.0,0.0,0.0,0.0,0.0,0.0,1.0164,0.9882,0.0,0.0,0.0,0.0,0.0,1.0513,1.098,0.0,0.0,0.0,0.0,0.0,1.6341,0.0,0.0,0.0,0.0,0.0,0.0,0.0,0.0,-0.5466,-1.0964,-0.9607,-1.0244,-1.1765,-1.3117,-1.4668,-1.6318,-1.8054,-1.9585,-2.1056,-2.2538,-2.3663,-2.4413,-2.4495,-2.4347,0.0,-2.3684,-2.3353,-2.3393,-2.4182,-2.451,-2.5082,0.0,-2.7352,-2.8228,-2.9042,-3.0442,-3.1523,-3.1953,-3.2683,0.0,-3.3502,-3.3605,-3.3643,-3.3671,-3.3671,-3.3577,-3.3382,-3.3256,-3.3147,-3.3091,-3.3011,-3.2934,-3.2838,-3.2657,-3.2574,-3.2574,-3.2353,-3.2249,-3.2179,-3.2055,-3.1948,-3.1893,-3.1783,-3.1691,-3.1691,-3.1614,-3.1576,-3.1576,-3.1654,-3.1691,-3.1728,-3.1858,-3.1948,-3.1948,0.0,0.0,0.0,0.0,0.0,0.0,0.0,-1.4787,-1.5798,-1.5093,-1.5366,-1.3416,-0.7569,-0.4488,0.0,0.0,0.0,0.0,0.0,0.0,0.0,0.0,0.0,0.0,0.0,0.0,0.0,0.9413,0.931,0.0,0.0,0.0,0.0,0.0,0.0,1.0799,1.1529,1.3404,0.0,0.0,0.0,0.0,0.0,0.0,0.0,0.0,0.0,0.0,0.0,0.0,0.0,-1.2561,-1.5389,-1.5384,-1.4518,-1.5584,0.0,0.0,-2.0124,-2.1376,-2.2613,-2.3978,-2.4449,-2.4568,-2.4506,0.0,-2.3804,-2.334,-2.33,-2.3448,-2.3723,-2.4383,-2.4928,-2.5159,0.0,-2.7748,-2.8562,-2.9481,-3.0622,-3.2091,0.0,0.0,-3.3597,-3.3753,-3.3807,-3.3868,-3.3868,-3.378,-3.3577,-3.3491,-3.3433,-3.3382,-3.3292,-3.317,-3.2979,-3.2916,-3.282,-3.2773,-3.2574,-3.2456,-3.2456,-3.2318,-3.2249,-3.2249,-3.2091,-3.2037,-3.2037,-3.1873,-3.1819,-3.1858,-3.1858,-3.1948,-3.2037,-3.2073,-3.2073,-3.2073,0.0,0.0,0.0,0.0,0.0,0.0,0.0,-1.3514,-1.4464,-1.4513,-1.4098,-1.2303,-0.8487,-0.5214,-0.1367,0.0,0.0,0.0,0.0,0.0,0.0,0.0,0.0,0.0,0.0,0.0,0.9119,0.8958,0.9073,0.0,0.0,0.0,0.0,0.0,0.0,1.2047,1.3132,1.5005,0.0,0.0,0.0,0.0,0.0,0.0,0.0,0.0,0.0,0.0,-0.557,0.0,0.0,0.0,-1.972,-1.9509,0.0,0.0,-1.9465,-2.0656,-2.2081,-2.3169,-2.4112,-2.5086,-2.5264,-2.5143,-2.4957,0.0,-2.4007,-2.3543,-2.3129,-2.3042,-2.3638,-2.3687,-2.3946,-2.4969,0.0,0.0,-2.7869,-2.8815,-2.996,-3.162,-3.2269,-3.2926,-3.3795,-3.3895,-3.3921,-3.3947,-3.3947,-3.3921,-3.386,-3.3698,-3.3605,-3.352,-3.3452,-3.3364,-3.3244,-3.3183,-3.3091,-3.2979,-3.2852,-3.2787,-3.2787,-3.2705,-3.2639,-3.259,-3.2438,-3.2387,-3.2318,-3.2161,-3.2126,-3.2144,-3.2232,-3.2284,-3.2353,-3.237,-3.2404,-3.2404,0.0,0.0,0.0,0.0,0.0,0.0,-1.1675,-1.2669,-1.3492,-1.3832,-1.3162,-1.1741,-0.9372,-0.6441,-0.2462,0.2986,0.0,0.0,0.0,0.0,0.0,0.0,0.0,0.0,0.0,0.0,0.852,0.8508,0.8727,0.8857,0.0,0.0,1.0038,1.0624,0.0,0.0,0.0,0.0,0.0,0.0,0.0,0.0,0.0,0.0,0.0,0.0,0.0,0.0,0.0,0.0,0.0,0.0,0.0,0.0,0.0,0.0,-2.1245,-2.2077,-2.3237,-2.4052,-2.4737,-2.541,-2.5389,-2.5154,0.0,0.0,-2.3975,-2.3454,-2.2932,-2.2761,-2.3442,-2.3174,-2.3305,0.0,0.0,-2.5839,-2.7215,-2.8158,-2.9416,-3.1286,-3.2047,-3.2828,-3.3938,-3.4099,-3.4124,-3.4124,-3.4124,-3.4124,-3.4099,-3.3947,-3.3815,-3.3698,-3.3615,-3.3549,-3.3509,-3.3393,-3.3304,-3.3226,-3.3135,-3.3122,-3.3091,-3.306,-3.2948,-3.2884,-3.2787,-3.2672,-3.2623,-3.2506,-3.2438,-3.2438,-3.2523,-3.2523,-3.2557,-3.2573,-3.2606,-3.2606,0.0,0.0,0.0,0.0,0.0,0.0,0.0,-1.2612,-1.3219,-1.2948,-1.28,-1.1724,-0.9185,-0.7165,-0.4931,-0.226,0.0,0.0,0.0,0.0,0.0,0.0,0.0,0.0,0.0,0.0,0.79,0.8091,0.8099,0.8258,0.8515,0.8788,0.9252,0.9893,0.0,0.0,0.0,0.0,0.0,0.0,0.0,0.0,0.0,0.0,0.0,0.0,0.0,0.0,0.0,0.0,0.0,0.0,0.0,0.0,0.0,0.0,-2.2242,-2.2955,-2.3318,-2.3753,-2.4236,-2.4697,-2.4507,-2.4312,0.0,-2.419,-2.3527,-2.2837,-2.2696,-2.2753,-2.2978,-2.2997,-2.329,-2.4155,-2.4967,0.0,-2.6611,-2.7458,-2.8898,-3.132,-3.1663,-3.2363,-3.4048,-3.4316,-3.4404,-3.4404,-3.4404,-3.4381,-3.4293,-3.4293,-3.4173,-3.3895,-3.3815,-3.378,-3.3698,-3.3549,-3.3509,-3.3509,-3.3422,-3.3352,-3.331,-3.331,-3.3214,-3.3086,-3.3011,-3.2997,-3.2979,-3.2838,-3.2773,-3.2773,-3.2639,-3.2606,-3.2606,-3.2606,-3.2606,-3.2606,0.0,0.0,0.0,0.0,0.0,0.0,0.0,-1.1464,-1.2006,-1.2359,-1.2416,-1.1797,-1.0112,-0.8481,-0.6574,-0.429,0.0,0.0,0.0,0.0,0.0,0.0,0.0,0.0,0.0,0.0,0.6495,0.6678,0.6806,0.6972,0.7221,0.7652,0.8126,0.8648,1.0059,1.2436,0.0,0.0,0.0,0.0,0.0,0.0,0.3105,0.0,0.0,0.0,0.0,0.0,0.0,0.0,0.0,0.0,0.0,0.0,0.0,0.0,0.0,0.0,-2.4235,-2.4645,-2.4925,-2.526,-2.4951,-2.4617,-2.4851,-2.393,-2.2964,-2.2846,-2.1954,-2.1587,-2.2776,-2.2643,-2.2769,-2.4136,-2.4633,0.0,0.0,0.0,0.0,-3.1533,-3.2858,-3.3757,-3.4302,-3.4381,-3.4427,-3.4473,-3.4473,-3.4473,-3.445,-3.445,-3.4055,-3.3253,-3.321,-3.2877,-3.2199,-3.2698,-3.2947,-3.2893,-3.3359,-3.3605,-3.3577,-3.352,-3.3462,-3.3375,-3.3345,-3.3304,-3.3201,-3.317,-3.3091,-3.3011,-3.2961,-3.2961,-3.2961,-3.2961,-3.2961,-3.2961,0.0,0.0,0.0,0.0,0.0,0.0,0.0,-1.1007,-1.1439,-1.1896,-1.2167,-1.1867,-1.0702,-0.9413,-0.7921,-0.6151,0.0,0.0,0.0,0.0,0.0,0.0,0.0,0.0,0.0,0.466,0.475,0.4927,0.5088,0.5227,0.5375,0.5695,0.5998,0.6322,0.7081,0.8653,0.0,0.0,0.0,0.0,0.0,0.0,-0.5064,0.0,0.0,0.0,0.0,0.0,0.0,0.0,0.0,0.0,0.0,0.0,0.0,0.0,-2.1972,-2.295,0.0,-2.4042,-2.429,-2.4801,-2.4675,0.0,0.0,-2.3484,-2.2666,-2.2172,-2.1268,-2.0988,-2.2382,-2.23,-2.2585,-2.4238,-2.4791,-2.5514,-2.6895,-2.7362,-2.8708,-3.1705,-3.3524,-3.4517,-3.4539,-3.4539,-3.4561,-3.4623,-3.4623,-3.4473,-3.4132,-3.4113,-3.3524,-3.2229,-3.2697,-3.2548,-3.1658,-3.2114,-3.2348,-3.2274,-3.3033,-3.3374,-3.334,-3.3579,-3.3671,-3.3587,-3.3577,-3.352,0.0,-3.3411,-3.3334,-3.3256,-3.3226,-3.3226,-3.3226,-3.3226,-3.3226,-3.3226,0.0,0.0,0.0,0.0,0.0,0.0,0.0,0.0,0.0,0.0,-1.1968,-1.1931,-1.1048,-1.0057,-0.9023,0.0,0.0,0.0,0.0,0.0,0.0,0.0,0.0,0.0,0.0,0.2468,0.2662,0.2926,0.2926,0.2931,0.2971,0.2964,0.3002,0.3081,0.2751,0.2427,0.0,0.0,0.0,0.0,0.0,0.0,0.0,0.0,0.0,0.0,0.0,0.0,0.0,0.0,0.0,0.0,0.0,0.0,0.0,0.0,0.0,0.0,0.0,-2.23,-2.2641,-2.3451,-2.3735,-2.3671,0.0,0.0,0.0,0.0,-2.0714,-2.0982,-2.186,-2.2111,-2.275,-2.442,-2.5389,-2.6212,-2.709,-2.8065,-2.9568,-3.1939,-3.3691,-3.4728,-3.4809,-3.4771,-3.4714,-3.4714,-3.4676,-3.428,-3.3468,-3.343,-3.2675,-3.1073,-3.2281,-3.2564,-3.1741,-3.1753,-3.1704,-3.1654,-3.245,-3.2785,-3.276,-3.3497,-3.3813,-3.3834,-3.3753,-3.3726,-3.3698,-3.3577,-3.352,-3.3491,-3.3452,-3.3422,-3.3422,-3.3422,-3.3422,-3.3422,0.0,0.0,0.0,0.0,0.0,0.0,0.0,0.0,0.0,0.0,0.0,-1.1774,-1.1402,-1.1087,0.0,0.0,0.0,0.0,0.0,0.0,0.0,0.0,0.0,0.0,0.0,0.0044,0.0137,0.0148,0.0049,-0.0103,-0.0219,-0.0328,-0.0599,-0.1026,-0.1155,-0.0684,0.0,0.0,0.0,0.0,0.0,0.0,0.0,0.0,0.0,0.0,-2.4572,-2.447,0.0,0.0,0.0,0.0,0.0,0.0,0.0,0.0,-1.9697,-1.9827,-2.0698,0.0,-2.1805,-2.2118,-2.2228,-2.2227,0.0,0.0,0.0,0.0,0.0,0.0,0.0,0.0,-2.3525,-2.4599,-2.5529,-2.6424,-2.7229,-2.9723,-3.1691,-3.2277,-3.3828,-3.487,-3.487,-3.4321,-3.3961,-3.396,-3.3373,-3.2956,-3.2747,-3.2747,-3.2256,-3.1199,-3.1467,-3.1186,-3.0226,-3.0806,-3.1084,-3.1022,-3.1781,-3.2441,-3.3003,-3.3141,-3.35,-3.4023,-3.4023,-3.3947,-3.3842,-3.3815,-3.378,-3.3726,-3.3661,-3.3643,-3.3698,-3.3643,-3.3671,-3.3698,0.0,0.0,0.0,0.0,0.0,0.0,0.0,0.0,0.0,0.0,0.0,0.0,0.0,0.0,0.0,0.0,0.0,0.0,0.0,0.0,0.0,0.0,0.0,0.0,-0.2748,-0.2531,-0.2544,-0.2796,-0.2896,-0.3161,-0.3487,-0.3755,-0.423,-0.4847,-0.6795,0.0,0.0,0.0,0.0,0.0,-2.173,0.0,0.0,0.0,0.0,0.0,-2.4211,-2.3916,0.0,-2.263,-2.177,-2.0932,0.0,0.0,0.0,0.0,-1.92,-1.9308,-1.9813,-2.0474,-2.1151,-2.1621,-2.204,-2.2259,0.0,0.0,0.0,0.0,0.0,0.0,0.0,0.0,0.0,-2.5286,-2.6242,-2.7272,-2.8508,-3.0548,-3.1936,-3.1936,-3.3097,-3.3895,-3.3895,-3.3496,-3.323,-3.3244,-3.2844,-3.2425,-3.2026,-3.2007,-3.161,-3.0776,-3.0738,-3.043,-2.979,-3.0224,-3.0414,-3.0396,-3.1128,-3.1686,-3.2112,-3.2836,-3.3347,-3.3748,-3.4096,-3.4173,-3.4074,-3.4049,-3.3998,-3.3921,-3.3895,-3.3895,-3.3895,-3.3842,-3.3868,-3.4002,0.0,0.0,0.0,0.0,0.0,0.0,0.0,0.0,0.0,0.0,0.0,0.0,0.0,0.0,0.0,0.0,0.0,0.0,0.0,0.0,0.0,0.0,0.0,-0.5434,-0.5392,-0.5179,-0.5257,-0.5673,-0.5811,-0.6136,-0.6738,-0.7103,-0.7721,-0.8629,-1.239,-1.5326,0.0,0.0,-2.1275,-2.2297,-2.2726,0.0,0.0,0.0,0.0,0.0,0.0,0.0,0.0,-2.1752,-2.0971,-2.0136,-1.939,0.0,0.0,0.0,0.0,0.0,-1.9282,-1.9811,-2.0523,-2.1412,-2.2181,-2.2601,-2.2126,0.0,0.0,0.0,0.0,0.0,0.0,-2.3769,0.0,0.0,-2.7172,-2.8382,-3.0002,-3.092,-3.1436,-3.1436,-3.2201,-3.2737,-3.2737,-3.2622,-3.2526,-3.2526,-3.2431,-3.2029,-3.1283,-3.1245,-3.092,-3.0265,-3.0226,-3.0157,-2.9969,-2.9972,-2.994,-2.9945,-3.0559,-3.0883,-3.0997,-3.2371,-3.31,-3.3355,-3.3986,-3.4297,-3.434,-3.4269,-3.4221,-3.4173,-3.4148,-3.4124,-3.4074,-3.4049,-3.4099,-3.4297,0.0,0.0,0.0,0.0,0.0,0.0,0.0,0.0,0.0,0.0,0.0,0.0,0.0,0.0,0.0,0.0,0.0,0.0,0.0,0.0,0.0,0.0,-0.8711,-0.7792,-0.7621,-0.758,-0.7802,-0.8339,-0.8332,-0.8757,-0.949,-0.9789,-1.0831,-1.2512,-1.4258,-1.6033,-1.7769,-1.9082,-2.0255,-2.1258,-2.174,0.0,0.0,0.0,0.0,0.0,0.0,0.0,0.0,-2.1478,-2.0764,-1.9974,-1.92,0.0,0.0,0.0,0.0,0.0,-1.9266,-1.9392,-1.9698,-2.0633,-2.096,-2.1248,-2.1928,0.0,0.0,0.0,0.0,0.0,0.0,-2.4296,-2.5171,0.0,-2.7812,-2.9221,-3.022,-3.1066,-3.1565,-3.1565,-3.2353,-3.2858,-3.2858,-3.2199,-3.1776,-3.1776,-3.1142,-3.0701,-3.0566,-3.0547,-3.0508,-3.0374,-3.0374,-3.0343,-3.033,-3.0213,-3.0128,-3.0064,-3.0186,-3.0557,-3.1156,-3.1405,-3.2222,-3.3485,-3.3578,-3.4007,-3.4539,-3.4539,-3.4495,-3.4431,-3.4381,-3.434,-3.434,-3.4269,-3.4293,-3.4563,0.0,0.0,0.0,0.0,0.0,0.0,0.0,0.0,0.0,0.0,0.0,0.0,0.0,0.0,0.0,0.0,0.0,0.0,0.0,0.0,0.0,-1.1923,-1.1121,-1.0299,-0.9536,-0.9419,-0.9758,-1.0454,-1.0507,-1.0967,-1.1791,-1.2192,-1.306,-1.4321,-1.5363,-1.6524,-1.7706,-1.8774,-1.9737,-2.0548,0.0,0.0,0.0,0.0,0.0,0.0,0.0,0.0,0.0,0.0,-2.0265,-1.9289,-1.8986,0.0,0.0,0.0,0.0,0.0,-1.9219,-1.9266,-1.9625,-2.1018,-2.1364,-2.1599,-2.2573,0.0,0.0,0.0,0.0,0.0,0.0,0.0,-2.6285,-2.7715,-2.903,-3.0006,-3.0402,-3.0769,-3.1,-3.1,-3.1367,-3.1598,-3.1598,-3.1232,-3.1,-3.1,-3.0653,-3.0441,-3.0441,-3.0441,-3.0441,-3.0441,-3.0441,-3.0441,-3.0441,-3.0398,-3.0328,-3.0247,-3.0226,-3.0395,-3.0729,-3.1127,-3.1903,-3.2994,-3.3468,-3.4074,-3.4771,-3.4771,-3.471,-3.4666,-3.4623,-3.4561,-3.4517,-3.4517,-3.482,-3.5405,0.0,0.0,0.0,0.0,0.0,0.0,0.0,0.0,0.0,0.0,0.0,0.0,0.0,0.0,0.0,0.0,0.0,0.0,0.0,0.0,-1.3035,-1.2849,-1.2836,-1.2283,-1.1127,-1.1004,-1.1326,-1.2058,-1.2225,-1.279,-1.369,-1.4143,-1.4709,-1.5389,-1.6095,-1.6896,-1.772,-1.8655,-1.942,-2.003,0.0,0.0,0.0,0.0,0.0,0.0,0.0,0.0,0.0,0.0,0.0,0.0,0.0,0.0,0.0,-1.8966,-1.9018,-1.9087,-1.9186,-1.9251,-1.9732,-2.1461,0.0,-2.2242,-2.3406,0.0,0.0,0.0,0.0,0.0,0.0,-2.6355,-2.758,-2.8994,-2.9979,-3.054,-3.0548,-3.0557,-3.0557,-3.0557,-3.0557,-3.0557,-3.0557,-3.0557,-3.0557,-3.0557,-3.0557,-3.0557,-3.0557,-3.0557,-3.0557,-3.0557,-3.0557,-3.0557,-3.0557,-3.0557,-3.0501,-3.0425,-3.0367,-3.0362,-3.0381,-3.0918,-3.158,-3.2343,-3.3201,-3.3989,-3.4698,-3.4887,-3.4946,-3.4868,-3.4868,-3.479,-3.4668,-3.4728,-3.5277,-3.6107,0.0,0.0,0.0,0.0,0.0,0.0,0.0,0.0,0.0,0.0,0.0,0.0,0.0,0.0,0.0,0.0,0.0,0.0,0.0,0.0,-1.3674,-1.3535,-1.3547,-1.316,-1.2389,-1.2354,-1.2514,-1.2831,-1.334,-1.4128,-1.5164,-1.5322,-1.5647,-1.6144,-1.6582,-1.7131,-1.7828,-1.8539,-1.9161,-1.9747,-2.0239,0.0,0.0,0.0,0.0,0.0,0.0,0.0,0.0,0.0,0.0,0.0,0.0,0.0,-1.8824,-1.8896,-1.8948,-1.9036,-1.9152,-1.9251,-1.9732,-2.1461,-2.1951,0.0,-2.4134,-2.4607,0.0,-2.487,0.0,0.0,0.0,-2.778,-2.9072,-2.927,-3.0086,-3.07,-3.0683,-3.0683,-3.0683,-3.0683,-3.0683,-3.0683,-3.0683,-3.0683,-3.0683,-3.0683,-3.0683,-3.0683,-3.0683,-3.0683,-3.0683,-3.0683,-3.0683,-3.0683,-3.0683,-3.0683,-3.0626,-3.0492,-3.05,-3.0488,-3.0488,-3.0479,-3.0912,-3.1718,-3.2522,-3.3336,-3.4117,-3.4868,-3.5143,-3.5075,-3.5075,-3.5001,-3.4889,-3.487,-3.5438,-3.6309,0.0,0.0,0.0,0.0,0.0,0.0,0.0,0.0,0.0,0.0,0.0,0.0,0.0,0.0,0.0,0.0,0.0,0.0,0.0,0.0,-1.4138,-1.4059,-1.4026,-1.3914,-1.3635,-1.3297,-1.3283,-1.3631,-1.4417,-1.5018,-1.5417,-1.583,-1.6207,-1.6663,-1.7018,-1.7462,-1.7948,-1.8592,-1.9161,-1.9639,-2.015,-2.0561,0.0,0.0,0.0,0.0,0.0,0.0,0.0,0.0,-1.9595,-1.8445,0.0,-1.8677,-1.8752,-1.886,-1.8948,-1.9036,-1.9152,-1.9648,-2.0404,-2.1657,-2.2386,0.0,0.0,-2.4679,-2.4787,-2.487,-2.498,0.0,0.0,-2.8366,-2.94,-3.0067,-3.0467,-3.0717,-3.0755,-3.0761,-3.0761,-3.0753,-3.0753,-3.0753,-3.0753,-3.0753,-3.0753,-3.0753,-3.0753,-3.0753,-3.0753,-3.0753,-3.0753,-3.0753,-3.0753,-3.0753,-3.0753,-3.0753,-3.0742,-3.0691,-3.0602,-3.0558,-3.0558,-3.0482,-3.0923,-3.1777,-3.2569,-3.3391,-3.4197,-3.4995,-3.5315,-3.5273,-3.5245,-3.5196,-3.5143,-3.5143,-3.535,-3.5844,0.0,0.0,0.0,0.0,0.0,0.0,0.0,0.0,0.0,0.0,0.0,0.0,0.0,0.0,0.0,0.0,0.0,0.0,0.0,-1.388,-1.4461,-1.4429,-1.4383,-1.4351,-1.4351,-1.4,-1.3885,-1.4053,-1.5044,-1.5583,-1.5759,-1.633,-1.6765,-1.7115,-1.7352,-1.772,-1.8108,-1.8669,-1.9124,-1.9566,-2.008,-2.0494,0.0,0.0,0.0,0.0,0.0,0.0,0.0,0.0,-1.9507,0.0,0.0,0.0,-1.8752,-1.8896,-1.8984,-1.907,-1.92,-1.9932,-2.0855,0.0,0.0,0.0,-2.4425,-2.4726,-2.4832,-2.4912,-2.5266,-2.6033,-2.7604,0.0,-2.956,-3.0533,-3.0723,-3.0755,-3.0794,-3.0804,-3.0711,-3.0423,-3.0388,-3.0291,-3.0037,-3.0018,-3.0002,-3.0002,-3.0002,-3.0002,-3.0002,-3.0002,-3.0139,-3.0373,-3.0392,-3.0529,-3.0802,-3.0802,-3.0802,-3.0802,-3.0703,-3.0651,-3.0622,-3.0582,-3.0886,-3.1506,-3.2589,-3.3388,-3.3963,-3.5027,-3.5464,-3.5449,-3.5393,-3.5364,-3.5364,-3.5364,-3.536,-3.5619,0.0,0.0,0.0,0.0,0.0,0.0,0.0,0.0,0.0,0.0,0.0,0.0,0.0,0.0,0.0,0.0,0.0,0.0,0.0,-1.4076,-1.4714,-1.4714,-1.4578,-1.4501,-1.4501,-1.4501,-1.4342,-1.4,-1.502,-1.5774,-1.631,-1.6924,-1.731,-1.7516,-1.7639,-1.7908,-1.8344,-1.8745,-1.9124,-1.9551,-2.008,-2.0494,-2.0827,0.0,0.0,0.0,0.0,0.0,0.0,0.0,-1.9507,-1.8426,0.0,0.0,0.0,-1.8967,-1.9053,-1.9137,-1.9277,-2.0007,-2.093,0.0,0.0,0.0,-2.4485,-2.4749,-2.4837,-2.4966,-2.5803,-2.6783,-2.7721,-2.8664,-2.9602,-3.0549,-3.0742,-3.0794,-3.0798,-3.079,-3.0466,-2.9585,-2.9497,-2.9171,-2.8388,-2.8296,-2.8298,-2.8298,-2.8298,-2.8298,-2.8298,-2.8298,-2.8672,-2.9452,-2.9491,-2.9921,-3.0782,-3.0801,-3.0801,-3.0801,-3.0807,-3.0778,-3.0703,-3.0711,-3.0697,-3.0787,-3.2469,-3.3208,-3.3334,-3.4932,-3.5596,-3.5581,-3.5538,-3.5495,-3.5495,-3.5495,-3.5507,-3.5758,0.0,0.0,0.0,0.0,0.0,0.0,0.0,0.0,0.0,0.0,0.0,0.0,0.0,0.0,0.0,0.0,0.0,0.0,0.0,-1.4385,-1.5011,-1.4935,-1.489,-1.4845,-1.4845,-1.4749,-1.456,-1.4287,-1.491,-1.5546,-1.6163,-1.674,-1.7316,-1.7868,-1.8028,-1.8305,-1.8669,-1.9026,-1.9398,-1.9762,-2.0131,-2.0527,-2.0909,0.0,0.0,0.0,0.0,0.0,0.0,0.0,0.0,0.0,0.0,0.0,0.0,-1.9034,-1.9152,-1.9394,-2.0083,-2.0933,0.0,-2.2768,0.0,0.0,0.0,-2.4827,0.0,0.0,-2.583,-2.661,-2.6978,-2.8294,-2.9404,-2.9739,-3.0364,-3.0589,-2.9967,-2.9926,-2.9626,-2.8769,-2.8658,-2.8564,-2.8311,-2.8293,-2.8294,-2.8295,-2.8295,-2.8296,-2.8297,-2.8298,-2.8415,-2.865,-2.9256,-2.9686,-2.9959,-3.0525,-3.0818,-3.0874,-3.0811,-3.0796,-3.0778,-3.0769,-3.0778,-3.0856,-3.2551,-3.3269,-3.3405,-3.5055,-3.5698,-3.5679,-3.565,-3.565,-3.565,-3.5689,-3.5708,-3.5862,0.0,0.0,0.0,0.0,0.0,0.0,0.0,0.0,0.0,0.0,0.0,0.0,0.0,0.0,0.0,0.0,0.0,0.0,0.0,0.0,-1.5284,-1.5165,-1.5149,-1.5118,-1.5088,-1.498,-1.4856,-1.4624,-1.5037,-1.5571,-1.6258,-1.6825,-1.7504,-1.8279,-1.8436,-1.8669,-1.8936,-1.925,-1.9581,-1.9919,-2.022,-2.0628,-2.1007,0.0,0.0,0.0,0.0,0.0,0.0,0.0,0.0,0.0,0.0,0.0,0.0,-1.9148,-1.9515,-1.9976,-2.0608,-2.1649,0.0,-2.3326,-2.4103,-2.4783,-2.4903,0.0,0.0,0.0,-2.5595,-2.6169,-2.6618,-2.7582,-2.8429,-2.8851,-2.9401,-2.9589,-2.9081,-2.9057,-2.8756,-2.7881,-2.7789,-2.7655,-2.7303,-2.7265,-2.7265,-2.7266,-2.7265,-2.7265,-2.7265,-2.7264,-2.742,-2.7772,-2.863,-2.9236,-2.9568,-3.0389,-3.0819,-3.0859,-3.0859,-3.0837,-3.0847,-3.0804,-3.081,-3.0884,-3.2596,-3.351,-3.3926,-3.5288,-3.5818,-3.5791,-3.5791,-3.5772,-3.5779,-3.5813,-3.5833,-3.5963,0.0,0.0,0.0,0.0,0.0,0.0,0.0,0.0,0.0,0.0,0.0,0.0,0.0,0.0,0.0,0.0,0.0,0.0,0.0,0.0,-1.5507,-1.5448,-1.5358,-1.5313,-1.5238,-1.5208,-1.5163,-1.5043,-1.5245,-1.5771,-1.6578,-1.7138,-1.7843,-1.875,-1.8836,-1.895,-1.9139,-1.942,-1.9726,-2.0076,-2.0392,-2.0761,-2.1151,-2.1481,0.0,0.0,0.0,0.0,0.0,0.0,0.0,0.0,0.0,0.0,-1.9251,-1.9381,-2.0059,-2.0775,-2.1083,0.0,0.0,-2.3691,-2.4266,0.0,-2.4977,-2.5063,-2.5107,-2.5103,-2.5222,-2.5553,-2.6431,-2.6713,-2.7077,-2.7935,-2.8149,-2.8197,-2.8173,-2.8186,-2.7863,-2.6988,-2.6874,-2.6562,-2.5781,-2.5702,-2.5699,-2.5699,-2.5696,-2.5693,-2.5691,-2.5707,-2.6056,-2.6856,-2.7715,-2.8555,-2.9374,-3.0259,-3.071,-3.0808,-3.0855,-3.0896,-3.0897,-3.0834,-3.0843,-3.1016,-3.268,-3.3867,-3.4681,-3.5543,-3.5919,-3.5919,-3.5919,-3.5904,-3.5914,-3.5919,-3.5903,-3.6013,0.0,0.0,0.0,0.0,0.0,0.0,0.0,0.0,0.0,0.0,0.0,0.0,0.0,0.0,0.0,0.0,0.0,0.0,0.0,0.0,-1.5841,-1.5712,-1.561,-1.5522,-1.5522,-1.5403,-1.5329,-1.5329,-1.5141,-1.5734,-1.6961,-1.709,-1.7835,-1.9026,-1.9176,-1.9325,-1.942,-1.9762,-2.0045,-2.0357,-2.0628,-2.0974,-2.1355,-2.1648,-2.1974,0.0,0.0,0.0,0.0,0.0,0.0,0.0,-1.9102,-1.9232,-1.95,-2.0248,-2.0666,-2.1176,-2.2628,-2.3291,0.0,0.0,-2.4866,-2.5044,-2.5076,-2.5139,-2.518,-2.5176,-2.5233,-2.5399,-2.5708,-2.6333,-2.6876,-2.7133,-2.7792,-2.8051,-2.7359,-2.7274,-2.6968,-2.6074,-2.5976,-2.5917,-2.5721,-2.5698,-2.5694,-2.5691,-2.5705,-2.5698,-2.5704,-2.5701,-2.5756,-2.5909,-2.6754,-2.7615,-2.8473,-2.9341,-3.0127,-3.0796,-3.0819,-3.0823,-3.0827,-3.08,-3.1169,-3.1887,-3.2934,-3.3883,-3.4749,-3.5611,-3.5981,-3.5981,-3.5981,-3.5988,-3.5977,-3.5982,-3.5987,-3.601,0.0,0.0,0.0,0.0,0.0,0.0,0.0,0.0,0.0,0.0,0.0,0.0,0.0,0.0,0.0,0.0,0.0,0.0,0.0,0.0,0.0,-1.597,-1.587,-1.5812,-1.5741,-1.5668,-1.561,-1.558,-1.5448,0.0,0.0,0.0,0.0,-1.9398,-1.9596,-1.9705,-1.9762,-2.008,-2.0373,-2.0561,-2.0893,-2.1246,-2.1587,-2.1882,-2.2215,-2.2579,-2.2816,0.0,0.0,0.0,0.0,0.0,0.0,0.0,-2.0804,-2.1363,-2.184,-2.2405,-2.3417,0.0,0.0,-2.4943,0.0,-2.5156,-2.5156,-2.5172,-2.5198,-2.5241,-2.5293,-2.5379,-2.5476,-2.5906,-2.624,-2.6262,-2.6724,-2.6903,-2.6449,-2.638,-2.621,-2.5742,-2.5702,-2.5698,-2.5696,-2.5691,-2.5703,-2.5693,-2.5707,-2.5697,-2.564,-2.5656,-2.5632,-2.5604,-2.645,-2.7117,-2.7565,-2.8864,-2.973,-3.0182,-3.0599,-3.0804,-3.0791,-3.0793,-3.1073,-3.1562,-3.2401,-3.3277,-3.4153,-3.5013,-3.5618,-3.6009,-3.6009,-3.5992,-3.5995,-3.5996,-3.5996,-3.5995,0.0,0.0,0.0,0.0,0.0,0.0,0.0,0.0,0.0,0.0,0.0,0.0,0.0,0.0,0.0,0.0,0.0,0.0,0.0,0.0,0.0,0.0,-1.6151,-1.6095,-1.597,-1.5957,-1.5913,-1.5885,0.0,0.0,0.0,0.0,0.0,-1.9797,0.0,-2.0111,-2.0096,-2.046,-2.0662,-2.0826,-2.1214,-2.1556,-2.1827,-2.2153,-2.2473,-2.2816,-2.3077,-2.2828,-2.2374,-2.2582,0.0,0.0,0.0,0.0,-2.2201,-2.248,-2.3082,-2.3708,-2.3964,0.0,-2.5141,-2.5126,-2.5168,0.0,-2.5209,-2.5231,-2.5243,-2.5293,-2.5361,-2.5425,-2.5492,-2.5544,-2.5599,-2.5624,-2.5655,-2.5698,-2.5693,-2.57,-2.5703,-2.5702,-2.5698,-2.5691,-2.5707,-2.5698,-2.5707,-2.5691,-2.5699,-2.5667,-2.5595,-2.5586,-2.5576,-2.5576,-2.6276,-2.6729,-2.6884,-2.8315,-2.9182,-2.9493,-3.0375,-3.0798,-3.079,-3.0794,-3.0829,-3.0934,-3.1756,-3.2519,-3.3242,-3.4121,-3.498,-3.5781,-3.5781,-3.5877,-3.5992,-3.5987,-3.5984,-3.5977,0.0,0.0,0.0,0.0,0.0,0.0,0.0,0.0,0.0,0.0,0.0,0.0,0.0,0.0,0.0,0.0,0.0,0.0,-1.5471,0.0,0.0,-1.6448,-1.6382,-1.6328,-1.6246,-1.6179,-1.6166,-1.6139,0.0,0.0,0.0,0.0,0.0,-2.0235,0.0,0.0,-2.046,-2.086,-2.1071,-2.1183,-2.1587,-2.1869,-2.2096,-2.2463,-2.2816,-2.3077,-2.3365,-2.3056,-2.2582,-2.2794,-2.2459,0.0,0.0,0.0,-2.2521,-2.3354,-2.3724,-2.4033,0.0,0.0,-2.5264,0.0,-2.5273,-2.5282,0.0,0.0,-2.5313,-2.5369,-2.5387,-2.5412,-2.549,-2.555,-2.5615,-2.5683,-2.5687,-2.5705,-2.5698,-2.5702,-2.5703,-2.5701,-2.5694,-2.5705,-2.5701,-2.5701,-2.5703,-2.5699,-2.5649,-2.5604,-2.5593,-2.5537,-2.5505,-2.5512,-2.5622,-2.6055,-2.6819,-2.7045,-2.7912,-2.9427,-3.0294,-3.0739,-3.0794,-3.0808,-3.0794,-3.0858,-3.1727,-3.218,-3.2336,-3.3219,-3.4096,-3.4874,-3.4874,-3.5335,-3.5988,-3.5939,-3.5908,-3.5914,0.0,0.0,0.0,0.0,0.0,0.0,0.0,0.0,0.0,0.0,0.0,0.0,0.0,0.0,0.0,-1.3721,-1.471,-1.5615,-1.6367,-1.6677,-1.6785,-1.6686,-1.6607,-1.6528,-1.6421,-1.6382,-1.6355,0.0,0.0,0.0,0.0,-1.8649,-1.9296,0.0,0.0,0.0,0.0,-2.123,-2.1419,-2.1511,-2.1882,-2.2169,-2.2419,-2.2799,-2.3077,-2.3348,-2.3598,-2.356,-2.3471,-2.3676,-2.3644,-2.3543,-2.3672,0.0,0.0,0.0,-2.4664,0.0,-2.5235,-2.5387,-2.5404,0.0,-2.5406,-2.5416,-2.5406,-2.5415,-2.5423,-2.5453,-2.5483,-2.5505,-2.5506,-2.5554,-2.5619,-2.5687,-2.5693,-2.5709,-2.5699,-2.5703,-2.5702,-2.5698,-2.5709,-2.5698,-2.5701,-2.5707,-2.5687,-2.5639,-2.5574,-2.5544,-2.5538,-2.5517,-2.551,-2.5503,-2.551,-2.5672,-2.6074,-2.6565,-2.7672,-2.9408,-2.9784,-3.0251,-3.0736,-3.0742,-3.0755,-3.0817,-3.1201,-3.1655,-3.2124,-3.2517,-3.32,-3.4017,-3.4479,-3.4882,-3.5279,-3.568,-3.5839,-3.5846,0.0,0.0,0.0,0.0,0.0,0.0,0.0,0.0,0.0,0.0,0.0,0.0,0.0,0.0,0.0,0.0,-1.5275,-1.6217,-1.7025,-1.7074,-1.7007,-1.6882,-1.6831,-1.6738,-1.6581,-1.6596,0.0,0.0,0.0,0.0,-1.9058,-1.9103,-1.9785,0.0,-2.1167,-2.123,0.0,0.0,0.0,0.0,-2.2198,-2.2473,-2.273,-2.306,-2.3365,-2.3598,-2.3795,-2.4019,-2.4211,-2.4425,-2.4591,-2.4779,-2.4915,-2.505,0.0,0.0,0.0,0.0,0.0,0.0,-2.5531,-2.5524,-2.5529,-2.5529,0.0,-2.5529,-2.5524,-2.5525,-2.5574,-2.559,-2.5565,-2.5595,-2.5644,-2.5681,-2.5701,-2.5694,-2.5701,-2.5703,-2.57,-2.5693,-2.5703,-2.5704,-2.5703,-2.5477,-2.5415,-2.5562,-2.5318,-2.5272,-2.5461,-2.5476,-2.5468,-2.5459,-2.5459,-2.5476,-2.5472,-2.6339,-2.7427,-2.8718,-2.9152,-2.9717,-3.036,-3.0581,-3.073,-3.0774,-3.0798,-3.1176,-3.1761,-3.1761,-3.2272,-3.3106,-3.3702,-3.4199,-3.4675,-3.5243,-3.5604,-3.5764,0.0,0.0,0.0,0.0,0.0,0.0,0.0,0.0,0.0,0.0,0.0,0.0,-1.3852,-1.4443,-1.5117,-1.5836,-1.6019,-1.6432,-1.7232,-1.7281,-1.7232,-1.7083,-1.7083,0.0,-1.6879,-1.6879,0.0,0.0,0.0,0.0,-1.92,-1.9311,-2.0193,-2.1648,-2.162,-2.1589,-2.1573,0.0,0.0,0.0,0.0,-2.2816,-2.302,-2.3348,-2.362,-2.3816,-2.4001,-2.4211,-2.4425,-2.461,-2.4779,-2.4915,-2.5056,-2.5171,-2.5293,0.0,0.0,0.0,0.0,-2.5581,0.0,-2.5581,-2.559,-2.5579,0.0,-2.559,-2.559,-2.5589,-2.5605,-2.5616,-2.5673,-2.569,-2.5693,-2.5705,-2.5694,-2.5701,-2.5703,-2.5702,-2.5698,-2.5709,-2.571,-2.5691,-2.5699,-2.4905,-2.4688,-2.5447,-2.4735,-2.4606,-2.5357,-2.5416,-2.5389,-2.5313,-2.537,-2.5407,-2.5407,-2.6262,-2.6751,-2.6848,-2.8515,-2.9326,-2.9392,-3.0296,-3.0707,-3.0715,-3.0761,-3.0828,-3.0867,-3.0877,-3.1344,-3.2074,-3.2113,-3.3147,-3.4593,-3.4571,-3.5055,-3.5708,0.0,0.0,0.0,0.0,0.0,0.0,0.0,0.0,0.0,0.0,0.0,0.0,0.0,-1.5239,-1.5775,-1.6036,-1.6602,-1.7067,-1.7354,-1.7346,-1.7527,-1.7904,-1.7834,-1.7983,-1.8372,-1.7883,0.0,0.0,0.0,-1.7837,-1.9339,-1.9493,-2.0406,-2.1899,-2.1869,-2.1869,-2.1869,-2.2203,0.0,0.0,0.0,-2.34,-2.4111,-2.4356,-2.4925,-2.5615,-2.5817,-2.6042,-2.6141,-2.5774,-2.5744,-2.578,-2.5354,-2.5284,-2.539,-2.5499,-2.5586,0.0,0.0,0.0,0.0,-2.5652,-2.5668,-2.5664,-2.5652,-2.5632,-2.5619,-2.5651,-2.5664,-2.5672,-2.5697,-2.5693,-2.5709,-2.5696,-2.5701,-2.5703,-2.5703,-2.5699,-2.5709,-2.5698,-2.5213,-2.4857,-2.4803,-2.4,-2.3572,-2.3811,-2.3489,-2.3653,-2.4456,-2.4495,-2.4726,-2.5224,-2.5253,-2.5283,-2.5341,-2.5687,-2.612,-2.6641,-2.7845,-2.8684,-2.9263,-3.0219,-3.0643,-3.064,-3.0668,-3.0704,-3.0736,-3.0736,-3.0911,-3.1216,-3.1721,-3.2322,-3.299,-3.4061,-3.4594,-3.4878,0.0,0.0,0.0,0.0,0.0,0.0,0.0,0.0,0.0,0.0,0.0,0.0,0.0,0.0,-1.6962,-1.7216,-1.7757,-1.8103,-1.8145,-1.8145,-1.8326,-1.8746,-1.8673,-1.8822,-1.9228,-1.869,-1.8308,0.0,0.0,0.0,0.0,-1.9947,-2.0877,-2.2101,-2.2169,-2.2215,0.0,0.0,0.0,-2.2868,0.0,-2.3875,-2.4828,-2.5056,-2.5782,-2.6722,-2.6898,-2.7098,-2.7207,-2.6797,-2.6568,-2.6359,-2.5909,-2.563,-2.5486,-2.5609,-2.5668,0.0,-2.5705,0.0,0.0,0.0,-2.5691,-2.5691,-2.5693,-2.5675,-2.5658,-2.5681,-2.5468,-2.5254,-2.5254,-2.5019,-2.5019,-2.5605,-2.5703,-2.5701,-2.5698,-2.5691,-2.5581,-2.5294,-2.4725,-2.4228,-2.3892,-2.3048,-2.2611,-2.2856,-2.2546,-2.2707,-2.3496,-2.3812,-2.4358,-2.5163,-2.5201,-2.5212,-2.5282,-2.5322,-2.5611,-2.615,-2.7026,-2.7923,-2.8792,-2.9709,-3.0298,-3.0568,-3.0595,-3.0637,-3.0664,-3.0664,-3.0664,-3.0722,-3.1255,-3.1637,-3.1999,-3.3093,-3.3627,-3.3935,0.0,0.0,0.0,0.0,0.0,0.0,0.0,0.0,0.0,0.0,0.0,0.0,0.0,0.0,0.0,-1.9421,-1.9487,-1.953,-1.9601,-1.9601,-1.9574,-1.9547,-1.952,-1.9482,-1.9365,-1.9349,-1.899,0.0,0.0,0.0,0.0,0.0,-2.1528,-2.231,-2.2579,-2.2632,-2.2525,0.0,-2.2944,-2.3144,-2.343,-2.4145,-2.5074,-2.5381,-2.6095,-2.6991,-2.7119,-2.7309,-2.7502,-2.7599,-2.7172,-2.6581,-2.6669,-2.6204,-2.5629,-2.5673,-2.5693,0.0,0.0,0.0,0.0,0.0,-2.5702,-2.5702,-2.57,-2.5699,-2.5698,-2.5675,-2.4991,-2.4385,-2.4362,-2.3675,-2.3657,-2.5347,-2.5615,-2.5627,-2.562,-2.5615,-2.5311,-2.4456,-2.4287,-2.3883,-2.304,-2.2107,-2.1871,-2.2654,-2.1938,-2.178,-2.2524,-2.3405,-2.4277,-2.513,-2.5187,-2.5198,-2.5212,-2.5192,-2.5192,-2.5212,-2.6139,-2.7035,-2.789,-2.8762,-2.9631,-3.0471,-3.054,-3.0567,-3.0602,-3.0602,-3.0602,-3.0602,-3.0604,-3.1061,-3.1748,-3.1716,-3.2189,-3.2961,0.0,0.0,0.0,0.0,0.0,0.0,0.0,0.0,0.0,0.0,0.0,0.0,-1.8828,-1.9049,-1.9246,-1.947,-1.953,-1.9584,-1.9601,-1.9601,-1.9832,-2.0345,-2.0334,-2.0541,-2.1026,-2.0475,-2.007,-1.9857,0.0,0.0,0.0,0.0,0.0,0.0,-2.2659,-2.2868,-2.302,-2.307,0.0,-2.3448,-2.4275,-2.5223,-2.624,-2.7058,-2.7977,-2.8877,-2.9058,-2.9209,-2.9273,-2.8771,-2.8545,-2.8261,-2.7174,-2.6315,-2.5687,-2.5691,-2.5701,0.0,-2.5701,0.0,0.0,0.0,0.0,0.0,-2.5693,-2.5707,-2.5525,-2.4898,-2.4578,-2.4219,-2.3575,-2.3257,-2.3254,-2.3741,-2.3812,-2.3815,-2.3829,-2.3813,-2.372,-2.3426,-2.2809,-2.233,-2.2081,-2.121,-2.0727,-2.0908,-2.0649,-2.0833,-2.1625,-2.3076,-2.4003,-2.4255,-2.4878,-2.5203,-2.5195,-2.5198,-2.5198,-2.5198,-2.6105,-2.6675,-2.6984,-2.7862,-2.8741,-2.9561,-2.9583,-2.995,-3.053,-3.0588,-3.0597,-3.0597,-3.055,-3.0625,-3.086,-3.1484,-3.1744,-3.1924,0.0,0.0,0.0,0.0,0.0,0.0,0.0,0.0,0.0,0.0,0.0,0.0,-2.035,-2.1011,-2.1374,-2.1374,-2.1139,-2.0986,-2.0986,-2.0704,-2.0721,-2.1118,-2.1123,-2.1308,-2.1678,-2.1253,-2.0845,-2.055,0.0,0.0,0.0,0.0,0.0,0.0,0.0,0.0,0.0,0.0,0.0,-2.3714,-2.4751,-2.5784,-2.6816,-2.7829,-2.8858,-2.9737,-2.9876,-3.0022,-3.0085,-2.9673,-2.9424,-2.8999,-2.7398,-2.6603,-2.6166,-2.5814,-2.5703,0.0,0.0,0.0,0.0,-2.5703,0.0,0.0,-2.569,-2.5681,-2.5421,-2.4563,-2.4101,-2.3583,-2.2711,-2.2251,-2.2025,-2.2017,-2.1986,-2.2224,-2.2952,-2.3052,-2.2916,-2.2513,-2.1989,-2.152,-2.1152,-2.06,-2.0246,-2.0205,-2.0144,-2.0451,-2.1301,-2.2282,-2.3141,-2.3881,-2.4396,-2.4828,-2.5191,-2.5203,-2.5195,-2.5214,-2.5707,-2.617,-2.6584,-2.7108,-2.7832,-2.8632,-2.904,-2.9494,-2.9987,-3.0365,-3.054,-3.054,-3.0479,-3.0436,-3.0456,-3.0931,-3.1027,-3.1011,0.0,0.0,0.0,0.0,0.0,0.0,0.0,0.0,0.0,0.0,-1.9981,-2.0605,-2.1897,-2.3205,-2.4,-2.4,-2.3404,-2.3023,-2.3023,-2.2358,-2.1943,-2.1943,-2.186,-2.1781,-2.1708,-2.1708,-2.1394,-2.0735,0.0,0.0,0.0,0.0,0.0,0.0,0.0,0.0,0.0,0.0,-2.3919,-2.3992,-2.5107,-2.6115,-2.7047,-2.8165,-2.9132,-2.9929,-3.0007,-3.0113,-3.0226,-3.0304,-2.9912,-2.9142,-2.7663,-2.7179,-2.6969,-2.6107,-2.5839,0.0,0.0,0.0,0.0,-2.569,-2.5701,0.0,-2.5699,-2.5652,-2.5332,-2.4436,-2.3629,-2.2784,-2.1826,-2.1012,-2.0483,-2.0497,-2.0427,-2.0925,-2.2493,-2.2705,-2.241,-2.1634,-2.1488,-2.1131,-2.0361,-2.0227,-2.0205,-2.0201,-2.0145,-2.0432,-2.1206,-2.1281,-2.2053,-2.3709,-2.3861,-2.432,-2.5191,-2.5191,-2.5191,-2.5191,-2.5195,-2.5608,-2.6355,-2.6422,-2.6886,-2.7723,-2.8632,-2.9096,-2.925,-3.0048,-3.0417,-3.0469,-3.0417,-3.0383,-3.0355,-3.0305,-3.024,-3.0271,-1.4156,0.0,0.0,0.0,0.0,0.0,0.0,0.0,0.0,0.0,-2.2394,-2.3255,-2.3537,-2.3835,-2.4,-2.4,-2.3868,-2.3817,-2.3865,-2.3167,-2.2798,-2.2922,-2.2262,-2.1869,-2.1869,-2.1869,-2.1803,-2.1653,0.0,0.0,0.0,0.0,0.0,0.0,0.0,0.0,0.0,0.0,-2.4284,-2.4501,-2.6061,-2.6859,-2.7319,-2.898,-2.9794,-3.0072,-3.0147,-3.0207,-3.0304,-3.0491,-3.0031,-2.935,-2.9074,-2.8556,-2.7884,-2.6999,-2.6755,-2.6582,-2.5893,-2.5691,-2.5703,-2.5701,-2.5694,0.0,-2.5699,-2.5652,-2.5176,-2.3668,-2.3188,-2.2532,-2.0959,-2.0522,-2.0429,-2.0429,-2.0366,-2.0463,-2.0848,-2.0856,-2.0765,-2.0592,-2.0504,-2.0408,-2.0238,-2.0216,-2.0201,-2.0192,-2.0146,-2.0174,-2.0346,-2.0956,-2.1778,-2.283,-2.3537,-2.432,-2.5191,-2.5191,-2.5191,-2.5191,-2.5191,-2.5291,-2.5436,-2.548,-2.5932,-2.6806,-2.7692,-2.8441,-2.9121,-2.9972,-3.0355,-3.0402,-3.0359,-3.0279,-3.0234,-3.0226,-3.0142,-3.0057,-1.4881,0.0,0.0,0.0,0.0,0.0,0.0,0.0,0.0,0.0,-2.4183,-2.511,-2.511,-2.5756,-2.6073,-2.5726,-2.5361,-2.5013,-2.4762,-2.4076,-2.3675,-2.3754,-2.2973,-2.2571,-2.2571,-2.2141,-2.1986,-2.2061,0.0,0.0,0.0,0.0,0.0,0.0,0.0,0.0,0.0,0.0,-2.4543,-2.4794,-2.6008,-2.6841,-2.7494,-2.8843,-2.9692,-3.0171,-3.0221,-3.0336,-3.0479,-3.0568,-3.0354,-2.9992,-2.9619,-2.923,-2.8733,-2.7891,-2.7648,-2.7459,-2.6581,-2.6341,-2.6236,-2.5813,-2.5704,0.0,0.0,-2.5656,-2.5118,-2.345,-2.3043,-2.2459,-2.0711,-2.0399,-2.039,-2.036,-2.0282,-2.0253,-2.0299,-2.0277,-2.0254,-2.0254,-2.0186,-2.0152,-2.0152,-2.0153,-2.0155,-2.0155,-2.0127,-2.0089,-2.0089,-2.048,-2.1291,-2.2562,-2.3021,-2.3881,-2.5191,-2.5191,-2.5191,-2.5191,-2.5191,-2.5203,-2.5195,-2.5198,-2.5439,-2.5929,-2.7236,-2.8023,-2.849,-2.9775,-3.0292,-3.0292,-3.0286,-3.026,-3.0213,-3.0199,-3.0079,-2.994,-1.5598,0.0,0.0,0.0,0.0,0.0,0.0,0.0,0.0,0.0,0.0,-2.6634,-2.6634,-2.7715,-2.8201,-2.7677,-2.7097,-2.6499,-2.5866,-2.5161,-2.4691,-2.4572,-2.3835,-2.3418,-2.3418,-2.2677,-2.232,-2.2439,0.0,0.0,0.0,0.0,0.0,0.0,0.0,0.0,0.0,0.0,-2.476,-2.4996,-2.5603,-2.6531,-2.7627,-2.8517,-2.9407,-3.0241,-3.0316,-3.0439,-3.0607,-3.0595,-3.0634,-3.0581,-2.995,-2.9747,-2.9597,-2.8762,-2.8537,-2.8311,-2.7285,-2.6991,-2.679,-2.5924,-2.5693,-2.5694,0.0,0.0,0.0,-2.364,-2.3155,-2.2507,-2.0914,-2.0487,-2.0354,-2.0288,-2.0223,-2.0178,-2.0152,-2.0153,-2.0153,-2.019,-2.0126,-2.0079,-2.0079,-2.0079,-2.0079,-2.0079,-2.0079,-2.0079,-2.0079,-2.0079,-2.0842,-2.2552,-2.259,-2.3441,-2.5172,-2.5191,-2.5191,-2.5191,-2.5191,-2.5191,-2.5191,-2.5195,-2.5206,-2.5302,-2.7029,-2.7769,-2.7891,-2.9577,-3.0226,-3.019,-3.024,-3.0245,-3.019,-3.0142,-3.0034,-2.991,-1.6273,-1.7108,0.0,0.0,0.0,0.0,0.0,0.0,0.0,0.0,0.0,-2.8125,-2.8125,-2.8351,-2.8455,-2.8394,-2.8402,-2.8146,-2.7498,-2.6758,-2.6051,-2.5475,-2.4669,-2.4281,-2.4281,-2.3587,-2.3228,-2.3257,0.0,0.0,0.0,0.0,0.0,0.0,-2.4077,0.0,0.0,0.0,-2.4955,-2.5091,-2.5222,-2.6247,-2.7778,-2.8645,-2.9562,-3.0386,-3.046,-3.052,-3.0607,-3.0604,-3.0649,-3.0678,-3.058,-3.0594,-3.047,-2.9624,-2.9406,-2.9086,-2.7458,-2.6992,-2.6795,-2.5925,-2.5698,-2.5704,-2.5694,0.0,-2.5327,-2.435,0.0,-2.2696,-2.1649,0.0,0.0,-2.0215,-2.0161,-2.0088,-2.0031,-1.9969,-1.9977,-2.0088,-2.005,-2.0011,-2.0011,-2.0011,-2.0011,-2.0011,-2.0011,-2.0011,-2.0011,-2.0011,-2.0802,-2.255,-2.2607,-2.3438,-2.5172,-2.5191,-2.5191,-2.5191,-2.5191,-2.5191,-2.5191,-2.5195,-2.5195,-2.5287,-2.6974,-2.7676,-2.7752,-2.9436,-3.0128,-3.0117,-3.019,-3.0176,-3.0102,-2.9972,-2.9907,-2.999,-1.694,-1.7488,0.0,0.0,0.0,0.0,0.0,0.0,0.0,0.0,-2.8092,-2.9025,-2.9104,-2.9526,-2.9649,-2.9331,-2.9357,-2.9147,-2.8516,-2.8197,-2.7707,-2.7029,-2.6315,-2.5703,-2.5278,-2.4594,-2.4011,-2.3579,-2.344,0.0,0.0,0.0,0.0,0.0,-2.4248,0.0,-2.4697,0.0,-2.5103,-2.5271,-2.5841,-2.6795,-2.7913,-2.8238,-2.9263,-3.0521,-3.0559,-3.0606,-3.066,-3.0657,-3.0683,-3.0691,-3.0697,-3.0745,-3.0735,-3.0361,-3.0274,-2.9916,-2.8216,-2.7753,-2.7422,-2.6046,-2.5701,-2.5707,-2.571,-2.5652,-2.5352,-2.448,0.0,0.0,0.0,0.0,0.0,0.0,-2.0364,-1.9958,-1.99,-1.9873,-1.9884,-1.9966,-1.9955,-1.9936,-1.9936,-1.9979,-2.0,-2.0,-1.9991,-2.0001,-2.0001,-2.0477,-2.1325,-2.2555,-2.305,-2.3888,-2.5132,-2.5144,-2.5137,-2.5137,-2.518,-2.5191,-2.5191,-2.5203,-2.5451,-2.5963,-2.7116,-2.7904,-2.845,-2.9618,-3.0053,-3.0007,-3.0019,-3.0003,-2.9991,-2.9926,-3.0145,-3.0509,-1.7905,0.0,0.0,0.0,0.0,0.0,0.0,0.0,-2.7682,-2.7843,-2.8936,-2.9755,-2.9892,-3.0416,-3.0597,-3.0241,-3.0229,-3.0002,-2.9367,-2.9408,-2.914,-2.8407,-2.7896,-2.7296,-2.6512,-2.5822,-2.5082,-2.4368,0.0,0.0,0.0,0.0,0.0,0.0,0.0,-2.467,-2.4874,0.0,-2.5214,-2.5408,-2.6359,-2.7384,-2.84,-2.8567,-2.9457,-3.0604,-3.0604,-3.0637,-3.0707,-3.0707,-3.0704,-3.0728,-3.0734,-3.0769,-3.0793,-3.0798,-3.0648,-3.0147,-2.8704,-2.8124,-2.7578,-2.6086,-2.5701,-2.5701,-2.5679,-2.5615,-2.5385,-2.4749,-2.4358,0.0,0.0,0.0,-2.1564,-2.1229,0.0,-2.0051,-1.9763,-1.9712,-1.9719,-1.9823,-1.9873,-1.9873,-1.9866,-1.993,-1.9952,-1.9952,-1.9947,-2.0064,-2.0281,-2.0899,-2.1745,-2.284,-2.3448,-2.417,-2.507,-2.5076,-2.5088,-2.5088,-2.5156,-2.5168,-2.5168,-2.5409,-2.5848,-2.6466,-2.751,-2.8303,-2.8936,-2.9711,-2.9991,-2.9891,-2.9857,-2.9841,-2.9878,-3.0089,-3.0471,-3.092,-1.9279,-1.9136,0.0,0.0,0.0,0.0,0.0,-2.7304,-2.8588,-2.9268,-3.0013,-3.0535,-3.0658,-3.0814,-3.0895,-3.0942,-3.1162,-3.0938,-3.0224,-3.0302,-3.0014,-2.9279,-2.9228,-2.8835,-2.8066,-2.7444,-2.675,-2.604,-2.4853,0.0,0.0,0.0,0.0,0.0,-2.454,-2.4799,-2.5006,-2.5212,-2.5321,-2.5492,-2.6408,-2.7822,-2.9447,-3.0219,-3.0543,-3.0602,-3.0602,-3.0634,-3.069,-3.069,-3.0749,-3.0808,-3.0794,-3.0808,-3.0806,-3.0807,-3.025,-2.9435,-2.8532,-2.7676,-2.6834,-2.5925,-2.5693,-2.5687,-2.5613,-2.5546,-2.5486,-2.5391,-2.4645,-2.3967,-2.3807,-2.3004,-2.2061,-2.1065,-2.084,0.0,0.0,-1.9438,-1.9495,-1.9682,-1.9757,-1.9807,-1.9807,-1.9807,-1.9807,-1.9807,-1.9806,-2.0176,-2.1023,-2.1086,-2.1859,-2.3523,-2.358,-2.4055,-2.4993,-2.4993,-2.5038,-2.5101,-2.5088,-2.5113,-2.5132,-2.5989,-2.6378,-2.6492,-2.8145,-2.8846,-2.8848,-2.9599,-2.9891,-2.9895,-2.9756,-2.972,-2.9814,-3.0584,-3.0845,-3.1009,-1.9373,0.0,0.0,0.0,0.0,-2.3923,-2.6369,-2.8048,-2.9152,-2.9383,-3.0518,-3.1424,-3.1566,-3.2102,-3.2555,-3.2703,-3.2785,-3.2542,-3.1815,-3.1897,-3.1462,-3.0298,-3.0247,-2.9955,-2.9228,-2.8566,-2.7816,-2.7078,-2.6297,0.0,0.0,0.0,0.0,0.0,0.0,-2.4936,0.0,-2.5303,-2.5743,-2.6449,-2.799,-2.9288,-3.035,-3.0568,-3.0678,-3.0665,-3.0665,-3.0678,-3.071,-3.0761,-3.0778,-3.0799,-3.0789,-3.0396,-2.9946,-2.9994,-2.9396,-2.8543,-2.7675,-2.7226,-2.6793,-2.5917,-2.5678,-2.5624,-2.5546,-2.5486,-2.5395,-2.5302,-2.4973,-2.466,-2.4492,-2.3616,-2.2787,-2.2349,-2.126,-2.034,0.0,-1.951,-1.923,-1.9353,-1.9518,-1.962,-1.9665,-1.9673,-1.9668,-1.9668,-2.0199,-2.0656,-2.0955,-2.2032,-2.2872,-2.3464,-2.4038,-2.4515,-2.4861,-2.487,-2.5196,-2.5834,-2.5823,-2.6154,-2.677,-2.7069,-2.7489,-2.8013,-2.8589,-2.911,-2.9561,-2.9796,-2.9861,-2.9756,-2.972,-2.9925,-3.0327,-3.0611,-3.1038,-3.0602,-2.0106,0.0,0.0,-2.1963,-2.3329,-2.5,-2.7137,-2.8553,-2.9575,-3.0129,-3.1124,-3.195,-3.2361,-3.2959,-3.3372,-3.359,-3.3615,-3.3492,-3.3174,-3.3218,-3.2783,-3.1633,-3.1636,-3.122,-3.0277,-2.9822,-2.9117,-2.8135,-2.755,-2.6551,0.0,0.0,0.0,0.0,0.0,-2.5077,-2.5284,-2.5414,-2.6004,-2.6996,-2.8777,-3.0022,-3.0802,-3.076,-3.0745,-3.0734,-3.0734,-3.0739,-3.0745,-3.0794,-3.0594,-3.0334,-3.0365,-2.9773,-2.9081,-2.9127,-2.8527,-2.7712,-2.7148,-2.6774,-2.6394,-2.5801,-2.5632,-2.5571,-2.5486,-2.5414,-2.533,-2.5192,-2.5068,-2.4934,-2.4697,-2.4011,-2.3325,-2.285,-2.1788,-2.0805,0.0,-1.965,-1.9291,-1.9071,-1.9264,-1.9402,-1.945,-1.9446,-1.9475,-1.9475,-2.0244,-2.0867,-2.1179,-2.2492,-2.3398,-2.3747,-2.4302,-2.4778,-2.5142,-2.5189,-2.5646,-2.6567,-2.6593,-2.694,-2.7542,-2.7842,-2.8259,-2.8757,-2.9064,-2.945,-2.9857,-2.9825,-2.9774,-2.972,-2.9944,-3.0234,-3.0568,-3.0913,-2.9147,-2.5077,-2.1494,-2.1702,-2.1906,-2.225,-2.4252,-2.6325,-2.7912,-2.8861,-2.9955,-3.1411,-3.1772,-3.2233,-3.3081,-3.3328,-3.3474,-3.3709,-3.3758,-3.3905,-3.4145,-3.4229,-3.3942,-3.3291,-3.3258,-3.2597,-3.1269,-3.1214,-3.0536,-2.9172,-2.8647,0.0,0.0,0.0,0.0,0.0,-2.4998,0.0,-2.541,-2.5537,-2.613,-2.7128,-2.8864,-3.0062,-3.0801,-3.0796,-3.0798,-3.0808,-3.0804,-3.0793,-3.0782,-3.0743,-3.0193,-2.9506,-2.953,-2.893,-2.8234,-2.824,-2.7617,-2.6933,-2.6948,-2.6333,-2.5671,-2.5613,-2.559,-2.5557,-2.5422,-2.533,-2.5243,-2.5106,-2.4934,-2.4697,-2.4441,-2.4155,-2.3628,-2.2602,-2.2325,-2.1679,-2.005,-1.9817,-1.9593,-1.8947,-1.9092,-1.9243,-1.9186,-1.9202,-1.9202,-1.9202,-1.9928,-2.0747,-2.164,-2.2519,-2.3418,-2.4339,-2.4413,-2.4892,-2.5777,-2.5886,-2.6384,-2.7274,-2.7374,-2.7478,-2.7535,-2.8376,-2.872,-2.8709,-2.9519,-2.9842,-2.979,-2.9719,-2.972,-2.9795,-3.036,-3.0213,-2.9798,-3.068,-2.4743,-1.4639,-2.229,-2.3374,-2.4417,-2.508,-2.6387,-2.7702,-2.8698,-3.0053,-3.1094,-3.1527,-3.2757,-3.3684,-3.3885,-3.4566,-3.5108,-3.5369,-3.5395,-3.5299,-3.5094,-3.5082,-3.4853,-3.4333,-3.372,-3.3336,-3.319,-3.209,-3.1084,-3.0277,-2.9701,0.0,-2.6497,0.0,0.0,0.0,0.0,-2.5333,-2.5482,-2.5563,-2.652,-2.808,-2.9781,-3.0621,-3.0874,-3.0874,-3.087,-3.0862,-3.0827,-3.0807,-3.0716,-3.0116,-2.975,-2.9462,-2.8823,-2.8045,-2.7324,-2.7324,-2.6717,-2.6029,-2.6039,-2.5827,-2.5621,-2.5595,-2.5531,-2.5422,-2.535,-2.5234,-2.5115,-2.498,-2.476,-2.4489,-2.4229,-2.3883,-2.3494,-2.3046,-2.2229,-2.1267,-2.0246,-2.0108,-2.0085,-1.9991,-2.0044,-1.98,-1.9038,-1.8983,-1.8983,-1.8983,-1.9722,-2.0553,-2.1368,-2.2278,-2.3156,-2.3999,-2.4719,-2.5222,-2.5579,-2.6228,-2.7047,-2.8016,-2.8051,-2.8424,-2.9117,-2.9342,-2.9436,-2.9437,-2.9644,-2.9719,-2.9645,-2.9589,-2.9884,-3.0379,-3.0431,-2.6023,-1.9648,-1.9899,-1.3457,-0.3025,-2.3427,-2.4902,-2.6277,-2.7118,-2.7791,-2.8501,-2.9342,-3.0592,-3.1693,-3.2392,-3.3428,-3.4258,-3.4621,-3.5206,-3.5684,-3.5975,-3.6062,-3.6079,-3.5954,-3.604,-3.5871,-3.5363,-3.4606,-3.4145,-3.4077,-3.288,-3.1835,-3.0966,-3.068,0.0,-2.7324,0.0,0.0,0.0,0.0,-2.5445,-2.5593,-2.6403,-2.7539,-2.8943,-3.0272,-3.0819,0.0,-3.0898,-3.0898,-3.0898,-3.0856,-3.0598,-3.0206,-2.9758,-2.9098,-2.8378,-2.789,-2.7128,-2.6422,-2.6439,-2.6082,-2.5703,-2.5707,-2.5644,-2.5586,-2.5556,-2.5483,-2.5376,-2.5283,-2.5157,-2.4994,-2.4775,-2.4559,-2.4301,-2.3961,-2.3588,-2.3224,-2.2781,-2.2097,-2.1346,-2.0507,-2.0449,-2.0365,-2.011,-2.0167,-1.9872,-1.8988,-1.9023,-1.8977,-1.8659,-1.9388,-2.0207,-2.1031,-2.1938,-2.2833,-2.371,-2.461,-2.5342,-2.5839,-2.6749,-2.7703,-2.87,-2.8685,-2.8986,-2.9531,-2.9531,-2.9531,-2.9531,-2.9531,-2.9492,-2.945,-2.9762,-3.0083,-2.9972,-2.5668,-1.4949,-0.1875,-0.1961,0.1778,0.7788,-2.4822,-2.6319,-2.7572,-2.8435,-2.8758,-2.921,-3.0222,-3.0985,-3.1954,-3.3423,-3.3918,-3.4418,-3.5224,-3.5446,-3.5656,-3.5975,-3.6122,-3.6353,-3.6684,-3.6908,-3.6735,-3.6165,-3.551,-3.4898,-3.4366,-3.3574,-3.2578,-3.1345,-3.1489,0.0,0.0,0.0,0.0,0.0,0.0,0.0,0.0,-2.7613,-2.8792,-2.9562,-3.0443,-3.0801,-3.0808,-3.0855,-3.0895,-3.0874,-3.0779,-3.0234,-2.9589,-2.9472,-2.8359,-2.6971,-2.6871,-2.6301,-2.5709,-2.5698,-2.569,-2.5697,-2.5695,-2.5644,-2.5576,-2.5492,-2.5437,-2.5332,-2.5198,-2.5069,-2.4865,-2.4538,-2.4355,-2.4115,-2.3631,-2.3248,-2.2798,-2.2124,-2.115,-2.019,-1.9452,-1.9439,-1.9284,-1.8651,-1.9563,0.0,-1.9072,-1.9207,-1.9061,-1.8319,-1.893,-1.9721,-2.0688,-2.1479,-2.2374,-2.3399,-2.439,-2.5319,-2.6232,-2.7273,-2.8256,-2.9134,-2.9141,-2.9188,-2.9251,-2.9251,-2.9251,-2.9251,-2.9251,-2.9283,-2.9366,-3.0056,-2.9485,-2.7251,-1.7559,-0.1515,1.6308,1.7567,1.8131,1.8251,-2.6587,-2.7367,-2.8215,-2.9003,-2.9761,-3.0731,-3.208,-3.2234,-3.2528,-3.3488,-3.4366,-3.5001,-3.5274,-3.5458,-3.5711,-3.5975,-3.6174,-3.6444,-3.6748,-3.697,-3.6849,-3.6381,-3.5771,-3.5163,-3.4649,-3.3949,-3.2947,-3.1631,-3.1818,-3.081,0.0,0.0,0.0,0.0,0.0,0.0,-2.6705,-2.8446,-2.9288,-2.9499,-3.0433,-3.0806,-3.0807,-3.0801,-3.0827,-3.0733,-3.0073,-2.9724,-2.949,-2.8765,-2.7845,-2.6862,-2.6149,-2.5827,-2.5681,-2.5632,-2.5617,-2.5615,-2.5624,-2.5564,-2.5503,-2.5432,-2.5332,-2.5198,-2.5069,-2.4898,-2.4673,-2.4388,-2.4136,-2.3837,-2.3369,-2.2643,-2.1982,-2.1584,-1.6667,-1.284,-1.2621,-1.2673,-1.2707,-1.2688,-1.7797,-2.0817,-1.9528,-1.9249,-1.8836,-1.8121,-1.8233,-1.893,-2.0315,-2.0686,-2.1552,-2.3042,-2.4633,-2.559,-2.5888,-2.7511,-2.8492,-2.87,-2.8821,-2.8892,-2.898,-2.898,-2.898,-2.898,-2.898,-2.9318,-2.9862,-2.994,-2.5351,-1.7211,-0.7052,0.4712,1.7028,2.597,2.9271,2.9303,-2.8034,-2.8711,-2.9437,-3.0275,-3.0736,-3.1406,-3.2626,-3.274,-3.3028,-3.3939,-3.462,-3.5088,-3.5291,-3.5503,-3.5756,-3.6062,-3.6301,-3.6591,-3.6913,-3.6852,-3.672,-3.6609,-3.5656,-3.506,-3.4867,-3.4238,-3.3438,-3.2515,-3.2297,-3.1534,-3.0229,-2.9101,0.0,0.0,0.0,-2.7226,0.0,-2.8946,-2.9571,-3.0055,-3.0549,-3.0745,-3.0759,-3.0798,-3.0807,-3.0699,-2.9845,-2.9279,-2.8791,-2.7917,-2.7052,-2.6256,-2.5792,-2.564,-2.5628,-2.5561,-2.554,-2.5537,-2.5518,-2.5449,-2.5376,-2.5313,-2.5209,-2.505,-2.4879,-2.4689,-2.4459,-2.4099,-2.3821,-2.3437,-2.2746,-2.2108,-2.0397,-1.656,-1.3075,-0.9603,-0.6059,-0.5556,-0.5558,-0.5599,-1.179,-1.5632,-1.4569,-1.7339,-1.8809,-1.7811,-1.7772,-1.846,-2.0008,-2.0281,-2.1125,-2.2686,-2.4462,-2.542,-2.5535,-2.7272,-2.821,-2.837,-2.8466,-2.8525,-2.8644,-2.8644,-2.8644,-2.8662,-2.9036,-2.9357,-2.926,-2.4382,-1.6583,-0.668,0.3805,1.4533,2.4701,2.9886,3.1728,3.1674,-2.9328,-2.9927,-3.0574,-3.1401,-3.1561,-3.1899,-3.28,-3.3111,-3.3502,-3.4382,-3.4739,-3.4994,-3.5274,-3.5549,-3.5844,-3.6208,-3.6527,-3.6786,-3.6938,-3.672,-3.6532,-3.6389,-3.5423,-3.4861,-3.4843,-3.4432,-3.3933,-3.3408,-3.2775,-3.2186,-3.1629,-3.0045,-2.9179,-2.8938,-2.8368,-2.8492,-2.9145,-2.935,-2.9883,-3.0586,-3.0653,-3.0691,-3.0714,-3.076,-3.0798,-3.0654,-2.9604,-2.8821,-2.8119,-2.7059,-2.6253,-2.5664,-2.56,-2.5581,-2.5565,-2.5493,-2.5466,-2.5437,-2.5382,-2.5302,-2.5225,-2.513,-2.5012,-2.4874,-2.4639,-2.4442,-2.4192,-2.3777,-2.3392,-2.2898,-2.2091,-2.1584,-1.8989,-1.1958,-0.9487,-0.6095,0.0678,0.1651,0.1696,0.1784,-0.4405,-0.8971,-0.9696,-1.4312,-1.742,-1.779,-1.7747,-1.8302,-1.9747,-2.0137,-2.1036,-2.2575,-2.4218,-2.5195,-2.5401,-2.6912,-2.7789,-2.8035,-2.8035,-2.8208,-2.846,-2.846,-2.855,-2.8729,-2.9308,-2.8344,-2.5611,-1.6189,-0.6276,0.3804,1.2206,2.2075,3.1565,3.1411,3.1274,3.1196,-3.0635,-3.0697,-3.0998,-3.1793,-3.2057,-3.2396,-3.3296,-3.3649,-3.3969,-3.4431,-3.4739,-3.5041,-3.5333,-3.5739,-3.6105,-3.6461,-3.6834,-3.6867,-3.6399,-3.6694,-3.629,-3.5041,-3.5092,-3.4866,-3.4278,-3.4465,-3.4297,-3.3739,-3.3081,-3.2455,-3.1841,-3.0117,-2.8778,-2.789,-2.8528,-2.8849,-2.897,-2.9838,-3.0317,-3.0519,-3.0577,-3.0645,-3.0704,-3.0716,-3.0759,-3.058,-2.8914,-2.8266,-2.7965,-2.6286,-2.5682,-2.56,-2.5529,-2.5518,-2.5492,-2.5434,-2.5365,-2.5302,-2.5234,-2.5168,-2.5063,-2.4877,-2.4737,-2.4572,-2.4317,-2.408,-2.3819,-2.3437,-2.2746,-2.2079,-2.1628,-2.1182,-1.8591,-1.1663,-0.5229,0.1249,0.796,0.8817,0.88,0.8913,0.2784,-0.3621,-0.9091,-1.021,-1.2913,-1.843,-1.8512,-1.8663,-1.9491,-2.0361,-2.1507,-2.2999,-2.4096,-2.4995,-2.5754,-2.675,-2.7324,-2.7465,-2.7526,-2.7967,-2.8662,-2.8662,-2.9029,-2.9677,-2.9747,-2.4803,-1.5958,-0.6253,0.4034,1.3773,1.4747,2.1714,3.1123,3.0965,3.0821,3.0733,-3.1301,-3.1379,-3.1649,-3.2404,-3.2657,-3.2856,-3.3298,-3.3607,-3.3899,-3.4349,-3.4691,-3.5024,-3.5379,-3.5871,-3.6301,-3.6632,-3.7108,-3.7184,-3.6694,-3.6536,-3.6065,-3.5101,-3.4833,-3.4604,-3.4381,-3.4651,-3.4717,-3.4634,-3.3997,-3.3596,-3.3371,-3.2157,-3.125,-3.0624,-3.038,-3.0594,-3.1146,-3.1556,-3.1513,-3.1172,-3.1221,-3.1004,-3.0645,-3.0649,-3.0678,-3.051,-2.8765,-2.8132,-2.7867,-2.6126,-2.5549,-2.5529,-2.5466,-2.5403,-2.5374,-2.5303,-2.5233,-2.5138,-2.4993,-2.4915,-2.4808,-2.4601,-2.4422,-2.4229,-2.3964,-2.3699,-2.3432,-2.3074,-2.2402,-2.1751,-2.1402,-2.0958,-1.709,-0.6311,-0.2115,0.3492,1.4119,1.5654,1.574,1.5826,0.9858,0.478,0.2343,-0.4993,-1.0623,-1.3167,-1.6718,-1.9114,-1.9927,-2.0426,-2.1354,-2.2872,-2.384,-2.4656,-2.5412,-2.6352,-2.6891,-2.7006,-2.75,-2.7959,-2.8335,-2.8783,-2.5996,-2.0582,-1.4459,-0.9861,-0.5895,0.4363,1.1092,1.5551,2.1878,2.6879,3.0535,3.0368,3.0241,3.0113,-3.1865,-3.1958,-3.2166,-3.2695,-3.2881,-3.3043,-3.3203,-3.345,-3.3761,-3.4151,-3.4546,-3.4977,-3.547,-3.6028,-3.6533,-3.6935,-3.7431,-3.7448,-3.6749,-3.6454,-3.5892,-3.5006,-3.4657,-3.4539,-3.4626,-3.487,-3.5092,-3.5316,-3.4648,-3.4355,-3.4371,-3.34,-3.2781,-3.2457,-3.1781,-3.1876,-3.2515,-3.2594,-3.2373,-3.1943,-3.1756,-3.1386,-3.0926,-3.0664,-3.0602,-3.044,-2.8958,-2.8264,-2.785,-2.6328,-2.5662,-2.543,-2.5382,-2.533,-2.5254,-2.5176,-2.5082,-2.4961,-2.4771,-2.462,-2.4512,-2.4284,-2.406,-2.3821,-2.3562,-2.3277,-2.2947,-2.2571,-2.1957,-2.1402,-2.1087,-2.0662,-1.6009,-0.2676,-0.0343,0.4382,1.7552,1.9523,1.9639,1.9767,1.5827,1.2291,1.033,0.2012,-0.5092,-0.9499,-1.3994,-1.7599,-2.0035,-2.0675,-2.1564,-2.29,-2.377,-2.4562,-2.5357,-2.6245,-2.6736,-2.6823,-2.7633,-2.8193,-2.8399,-2.6146,-1.9906,-1.0255,0.0012,0.4127,0.4415,1.4993,1.9289,1.9954,2.7349,3.013,2.9973,2.9842,2.9694,2.9589,-3.2382,-3.2382,-3.2437,-3.2578,-3.2578,-3.2703,-3.3043,-3.3203,-3.345,-3.3848,-3.425,-3.4818,-3.5677,-3.6284,-3.6816,-3.7339,-3.7809,-3.7562,-3.63,-3.6381,-3.588,-3.4479,-3.4602,-3.4769,-3.4889,-3.5102,-3.5325,-3.5611,-3.4781,-3.439,-3.4371,-3.3094,-3.2402,-3.2202,-3.2183,-3.2241,-3.2298,-3.2441,-3.2603,-3.2708,-3.1911,-3.1669,-3.1688,-3.0829,-3.0492,-3.0385,-2.9506,-2.8685,-2.7865,-2.692,-2.6004,-2.5302,-2.5303,-2.5262,-2.5195,-2.5032,-2.4907,-2.476,-2.4561,-2.4356,-2.4154,-2.3878,-2.361,-2.3341,-2.3067,-2.2755,-2.2368,-2.1811,-2.1339,-2.0942,-2.0663,-2.0289,-1.5674,-0.2451,-0.0138,0.4531,1.7552,1.9413,1.9487,1.969,2.0213,1.7948,1.1327,1.115,0.5374,-0.929,-1.0574,-1.3403,-1.9574,-2.131,-2.2449,-2.3259,-2.4071,-2.4875,-2.5684,-2.6498,-2.6951,-2.7114,-2.7916,-2.8665,-2.9069,-1.9932,-1.0349,-0.0393,1.0013,1.4402,1.5015,2.5497,2.9735,2.9632,2.9629,2.9544,2.947,2.935,2.9213,2.9075,-3.215,-3.215,-3.215,-3.2206,-3.2262,-3.2413,-3.2578,-3.2834,-3.314,-3.3539,-3.4,-3.448,-3.5161,-3.5994,-3.6719,-3.7339,-3.7358,-3.7025,-3.6313,-3.5999,-3.5405,-3.451,-3.4649,-3.4851,-3.5032,-3.5283,-3.5491,-3.5678,-3.5402,-3.5125,-3.4777,-3.3646,-3.3314,-3.369,-3.3168,-3.3347,-3.4016,-3.4149,-3.3642,-3.2699,-3.2508,-3.1751,-3.0748,-3.0475,-3.0352,-3.024,-2.9325,-2.8828,-2.8382,-2.6835,-2.6143,-2.5792,-2.5113,-2.4936,-2.4955,-2.4775,-2.4604,-2.4422,-2.4211,-2.3959,-2.3674,-2.3445,-2.3129,-2.2797,-2.2556,-2.2164,-2.1748,-2.1402,-2.1039,-2.0648,-2.0379,-2.0085,-1.5573,-0.2494,-0.0275,0.4291,1.7199,1.9101,1.9388,1.9918,2.0306,1.9901,1.8233,1.4148,0.9688,0.4952,0.0366,-0.7903,-2.1004,-2.2205,-2.288,-2.3671,-2.4053,-2.4814,-2.6038,-1.98,-1.6928,-1.7363,-1.1519,-0.9113,-0.95,0.0458,0.6661,1.0129,2.0369,2.4707,2.4823,2.806,2.935,2.9289,2.9182,2.909,2.9059,2.8889,2.8811,2.8763,-3.1796,-3.1796,-3.1796,-3.1796,-3.191,-3.1951,-3.212,-3.2272,-3.2532,-3.2926,-3.3298,-3.3748,-3.4317,-3.5107,-3.6036,-3.7132,-3.7003,-3.664,-3.6172,-3.566,-3.5076,-3.4487,-3.4691,-3.4925,-3.5178,-3.5403,-3.557,-3.5662,-3.5494,-3.5183,-3.4756,-3.4003,-3.3859,-3.4203,-3.3771,-3.3982,-3.4666,-3.4849,-3.4204,-3.3048,-3.2825,-3.191,-3.0676,-3.0335,-3.0221,-3.0106,-2.946,-2.9022,-2.8578,-2.7358,-2.6525,-2.5882,-2.5174,-2.4765,-2.4519,-2.4458,-2.4301,-2.408,-2.3777,-2.3459,-2.3183,-2.2883,-2.2599,-2.2258,-2.1965,-2.1521,-2.1119,-2.0974,-2.0628,-2.0308,-2.0104,-1.788,-1.2644,-0.2088,0.1686,0.6895,1.7341,1.9099,1.9493,1.9966,2.0589,2.119,2.1668,1.8199,1.4714,1.1784,0.7689,-0.0415,-1.3552,-1.4085,-1.4088,-1.4319,-1.4674,-1.514,-1.5727,-1.0027,-0.738,-0.7721,-0.2487,0.1764,0.5196,1.1555,1.6416,2.0205,2.6535,2.9198,2.9029,2.8951,2.8905,2.8811,2.8685,2.8637,2.8637,2.8429,2.8381,2.8348,-3.1437,-3.1437,-3.1422,-3.1422,-3.1422,-3.1422,-3.1552,-3.161,-3.1652,-3.1905,-3.2241,-3.2664,-3.3166,-3.3772,-3.4775,-3.6411,-3.6486,-3.624,-3.5805,-3.5235,-3.4729,-3.4335,-3.4591,-3.4905,-3.5273,-3.5485,-3.5576,-3.5537,-3.5056,-3.4661,-3.4315,-3.4136,-3.3972,-3.3868,-3.3998,-3.4173,-3.4386,-3.4666,-3.432,-3.354,-3.2847,-3.2054,-3.1202,-3.038,-3.0045,-2.9946,-2.9817,-2.9242,-2.8496,-2.8222,-2.7103,-2.5746,-2.5445,-2.4697,-2.3937,-2.4115,-2.3999,-2.3735,-2.3277,-2.2947,-2.2643,-2.2231,-2.1982,-2.1705,-2.1261,-2.0828,-2.0545,-2.0494,-1.9851,-1.9258,-1.9144,-1.3773,-0.7218,-0.0723,0.5313,1.1418,1.7919,1.9316,1.9755,1.9964,2.1054,2.1859,2.2105,2.2732,2.0133,1.29,1.2293,0.9034,0.1665,0.1877,0.2004,0.1538,0.091,0.0921,0.1624,0.1682,0.2021,0.2644,0.1821,0.6338,1.5405,1.5253,2.0195,2.8858,2.8873,2.8732,2.8589,2.8589,2.8493,2.8363,2.8235,2.8186,2.8137,2.8005,2.797,2.797,-3.0807,-3.0807,-3.0732,-3.0613,-3.0613,-3.0539,-3.045,-3.0375,-3.048,-3.0645,-3.0793,-3.1114,-3.16,-3.2011,-3.2513,-3.3128,-3.3921,-3.4454,-3.4588,-3.3586,-3.3105,-3.3479,-3.3934,-3.449,-3.5125,-3.5343,-3.5246,-3.485,-3.4377,-3.3942,-3.357,-3.3449,-3.339,-3.3361,-3.3625,-3.3842,-3.4124,-3.4363,-3.3738,-3.2543,-3.2428,-3.1516,-3.0224,-2.9914,-2.9715,-2.9588,-2.9416,-2.9145,-2.8741,-2.7875,-2.726,-2.6594,-2.5162,-2.4432,-2.4064,-2.375,-2.3482,-2.3189,-2.2772,-2.2432,-2.2108,-2.1748,-2.137,-2.0974,-2.0663,-2.041,-2.0204,-2.0131,-1.6019,-1.2427,-1.2334,-0.7116,-0.0728,0.5687,0.7932,1.128,1.8071,1.9182,1.9698,2.0709,2.1221,2.1723,2.2283,2.3083,2.2799,2.095,2.1394,2.0927,1.9058,1.9191,1.3633,0.1157,0.1186,0.1236,0.0862,0.8108,1.5263,2.217,2.1962,2.3103,2.5378,2.5237,2.639,2.8525,2.8429,2.8284,2.8152,2.8152,2.8103,2.8054,2.7955,2.789,2.789,2.7655,2.7554,2.7563,-3.0144,-3.0068,-2.9946,-2.9775,-2.9623,-2.9393,-2.9129,-2.8911,-2.8821,-2.8779,-2.8738,-2.8809,-2.9218,-2.9336,-2.948,-2.9648,-3.1152,-3.216,-3.225,-3.1059,-3.0751,-3.1617,-3.247,-3.3354,-3.4206,-3.4765,-3.4638,-3.3821,-3.3366,-3.2943,-3.257,-3.2577,-3.2631,-3.2713,-3.3014,-3.3343,-3.3698,-3.3986,-3.3436,-3.24,-3.2117,-3.1278,-3.0114,-2.9605,-2.9338,-2.9196,-2.8956,-2.8772,-2.8524,-2.7813,-2.721,-2.6561,-2.5409,-2.4629,-2.4041,-2.3622,-2.3118,-2.2591,-2.213,-2.1774,-2.143,-2.1023,-2.0597,-2.0273,-2.01,-1.77,-1.5461,-1.5421,-1.027,-0.5745,-0.5708,-0.0603,0.4832,0.8558,1.1509,1.4728,1.8754,1.9606,2.0062,2.0826,2.1236,2.1825,2.2644,2.3155,2.3612,2.3995,2.4437,2.4737,2.4737,2.5209,2.1474,1.2712,1.2854,1.3138,1.3223,1.8591,2.3825,2.8794,2.8747,2.87,2.8604,2.8493,2.8332,2.8201,2.8152,2.8005,2.784,2.784,2.774,2.7655,2.7539,2.7539,2.7488,2.7335,2.7476,2.7787,-2.9463,-2.9261,-2.9044,-2.883,-2.8454,-2.8025,-2.7564,-2.718,-2.6806,-2.6511,-2.6189,-2.6083,-2.6181,-2.6013,-2.59,-2.5841,-2.7346,-2.8494,-2.9021,-2.7689,-2.7256,-2.7955,-2.8568,-2.9785,-3.1622,-3.3206,-3.3518,-3.2553,-3.2066,-3.1706,-3.1431,-3.1519,-3.1664,-3.1898,-3.2247,-3.2677,-3.3148,-3.3393,-3.3176,-3.2518,-3.1967,-3.1182,-3.0272,-2.948,-2.8998,-2.8724,-2.846,-2.8201,-2.7974,-2.7689,-2.6939,-2.6096,-2.5618,-2.481,-2.3918,-2.3434,-2.1972,-2.0646,-2.1319,-2.0556,-1.916,-1.7548,-1.7027,-1.691,-1.6879,-1.2568,-0.8604,-0.8604,-0.3581,0.084,0.0911,0.5954,1.032,1.0912,1.535,1.899,1.9611,2.0124,2.0562,2.0832,2.139,2.2083,2.3035,2.3224,2.3639,2.4376,2.4554,2.4661,2.4661,2.543,2.6126,2.6589,2.6688,2.7203,2.8186,2.8429,2.8589,2.8747,2.8589,2.8477,2.8348,2.8186,2.8039,2.7955,2.7905,2.7755,2.7524,2.7524,2.7423,2.7181,2.7181,2.724,2.7314,2.7277,2.7674,2.8194,-2.8546,-2.8338,-2.8065,-2.755,-2.7043,-2.6382,-2.5484,-2.4874,-2.4258,-2.3587,-2.3105,-2.2747,-2.2524,-2.2187,-2.1745,-2.1112,-2.0072,-2.0959,-2.44,-2.2988,-2.1317,-1.9736,-1.7343,-1.8768,-2.4547,-2.8986,-3.1115,-3.0882,-3.0453,-3.0245,-3.0286,-3.0402,-3.0623,-3.096,-3.1401,-3.1844,-3.2298,-3.2565,-3.2437,-3.2014,-3.1982,-3.1102,-2.9795,-2.9598,-2.8945,-2.8102,-2.7759,-2.7465,-2.7126,-2.6673,-2.6252,-2.5791,-2.4882,-2.4317,-2.3797,-2.2723,-1.7777,-1.4031,-2.0344,-1.7593,-1.1321,-0.4772,-0.3572,-0.3955,-0.3844,-0.2998,-0.223,-0.223,0.2869,0.7454,0.7856,1.2961,1.7276,1.7785,1.8525,1.9277,2.0,2.0114,2.0492,2.1576,2.2015,2.2451,2.3128,2.3857,2.4413,2.4721,2.5303,2.572,2.5827,2.6218,2.6486,2.6791,2.7223,2.767,2.8186,2.8235,2.8348,2.846,2.8348,2.8235,2.8235,2.7989,2.779,2.7675,2.7539,2.7401,2.7269,2.7269,2.7233,2.7181,2.7107,2.7363,2.7764,2.7671,2.8039,2.8664,-2.7829,-2.7417,-2.6921,-2.6158,-2.5274,-2.4232,-2.3121,-2.2019,-2.1075,-2.0216,-1.9406,-1.8747,-1.838,-1.762,-1.6858,-1.5991,-1.4108,-1.3397,-1.4147,-1.5343,-1.5377,-1.4048,-1.2105,-1.2069,-1.4214,-1.5765,-1.6325,-1.59,-1.5496,-1.7593,-2.1982,-2.2247,-2.5055,-2.9827,-3.0352,-3.0881,-3.1367,-3.1664,-3.1795,-3.1751,-3.1376,-3.0592,-2.9531,-2.9047,-2.8202,-2.7265,-2.6965,-2.6639,-2.63,-2.5859,-2.5529,-2.4413,-1.9751,-1.8146,-1.7097,-1.2378,-1.08,-1.0495,-1.0084,-0.7457,-0.3998,-0.0536,0.0147,-0.0009,0.0055,0.2721,0.5175,0.5175,1.0155,1.4553,1.4703,1.6943,1.8954,1.9456,1.9347,1.9495,2.0103,2.0468,2.0974,2.1602,2.2153,2.2789,2.3608,2.4068,2.4531,2.5148,2.5576,2.5839,2.5893,2.615,2.6379,2.65,2.7218,2.7725,2.7989,2.8054,2.8103,2.8152,2.8103,2.8039,2.7989,2.7775,2.764,2.7488,2.7335,2.7248,2.7093,2.7093,2.7246,2.7433,2.7409,2.7788,2.8327,2.8231,2.8637,2.9232,-2.7027,-2.6333,-2.5545,-2.4589,-2.3312,-2.1933,-2.0525,-1.9081,-1.7712,-1.6653,-1.5502,-1.4771,-1.4641,-1.315,-1.1758,-1.0716,-0.8774,-0.6662,-0.4622,-0.657,-0.7741,-0.7482,-0.6872,-0.5561,-0.3418,-0.3984,-0.3982,-0.3353,-0.294,-0.5969,-1.2141,-1.2416,-1.7259,-2.5758,-2.6296,-2.7935,-3.0294,-3.0606,-3.0965,-3.1257,-3.0697,-3.005,-2.9298,-2.8459,-2.7504,-2.6553,-2.6106,-2.5733,-2.5125,-2.2996,-2.2099,-2.0525,-1.2745,-1.0266,-0.9089,-0.3125,-0.3433,-0.4471,0.1155,0.2679,0.304,0.4685,0.5088,0.5089,0.5089,0.8836,1.2307,1.2307,1.6006,1.9296,1.9265,1.9179,1.9201,1.9675,1.9654,1.9735,2.031,2.0874,2.1366,2.1824,2.2363,2.3148,2.4107,2.4216,2.4585,2.5397,2.5522,2.5619,2.5633,2.5893,2.6165,2.6394,2.7115,2.7524,2.774,2.7855,2.7955,2.802,2.7955,2.7905,2.774,2.7625,2.7563,2.7506,2.7402,2.7401,2.7389,2.7389,2.7627,2.7955,2.7955,2.8332,2.8898,2.8898,2.9305,2.9842,-2.6139,-2.5052,-2.3952,-2.2955,-2.1253,-1.945,-1.7763,-1.6036,-1.4379,-1.2806,-1.1442,-1.0968,-1.1866,-0.9329,-0.6934,-0.5362,-0.3683,-0.1738,0.0426,0.2704,0.3455,0.2336,0.1647,0.2909,0.6478,-0.0168,-0.3519,-0.3217,-0.2748,-0.2795,-0.3332,-0.3176,-0.7731,-1.6055,-1.6344,-2.1101,-2.8979,-2.9207,-2.9636,-3.0136,-3.007,-2.9683,-2.9032,-2.825,-2.7238,-2.6228,-2.5305,-2.4712,-2.3212,-1.6048,-1.3516,-1.209,-0.4535,-0.2241,-0.2205,-0.1515,0.3128,0.8216,0.8985,0.8704,0.9874,1.6751,1.8004,1.7553,1.7553,1.7922,1.8278,1.8278,1.8604,1.9073,1.9499,1.9555,1.9687,2.0079,2.0029,2.0233,2.091,2.0985,2.1393,2.2752,2.302,2.3507,2.4486,2.4667,2.4908,2.5174,2.523,2.53,2.5494,2.5743,2.6179,2.6727,2.6951,2.7248,2.7625,2.7625,2.774,2.802,2.7855,2.774,2.7625,2.7488,2.7558,2.7837,2.7837,2.8134,2.8592,2.8592,2.8621,2.8608,2.8608,2.9,2.9552,2.9552,2.9958,3.051,-2.4826,-2.3722,-2.2424,-2.0814,-1.89,-1.6968,-1.4814,-1.2794,-1.0761,-0.9052,-0.7574,-0.653,-0.6011,-0.4238,-0.2472,-0.0794,0.0882,0.2724,0.488,0.7041,0.8569,0.9043,1.0327,1.2102,1.4453,1.2579,1.1902,1.2489,1.2992,1.0699,0.585,0.5925,0.1389,-0.6827,-0.6965,-0.9026,-1.2729,-1.8111,-2.0564,-2.1357,-2.6671,-2.8416,-2.717,-2.1455,-1.8968,-1.7797,-1.1916,-0.9927,-0.9614,-0.6628,-0.5587,-0.4242,0.3286,0.5439,0.606,1.0486,1.3629,1.5648,1.5666,1.5728,1.6418,1.9137,1.9634,1.9444,1.9444,1.9444,1.9444,1.9444,1.9444,1.9508,1.9586,1.9623,1.9636,1.9695,2.002,2.0385,2.0706,2.1445,2.2153,2.2687,2.3276,2.3806,2.4261,2.4505,2.4721,2.4948,2.5118,2.523,2.53,2.5688,2.6002,2.6233,2.6447,2.6817,2.7335,2.7372,2.7386,2.7488,2.7437,2.7386,2.7335,2.7579,2.7797,2.7939,2.8239,2.8504,2.8681,2.8681,2.8913,2.9261,2.9261,2.9653,3.0219,3.0219,3.0364,3.0568,-2.3543,-2.2275,-2.0651,-1.8611,-1.649,-1.4441,-1.2632,-0.9938,-0.7323,-0.531,-0.3813,-0.2396,-0.0975,0.0266,0.1774,0.3901,0.5049,0.6546,0.8388,1.0583,1.2351,1.3418,1.5471,1.7204,1.8554,1.9681,2.0666,2.1479,2.2051,1.9637,1.4399,1.4598,1.0206,0.2187,0.2131,0.0554,-0.2471,-0.8355,-1.0947,-1.1616,-1.7492,-1.9594,-1.8503,-1.229,-0.9833,-0.8895,-0.2597,-0.0548,-0.0445,0.1896,0.2532,0.3647,1.1123,1.301,1.3397,1.8142,1.9344,1.9146,1.9028,1.9226,1.9436,1.954,1.9552,1.9552,1.9552,1.9552,1.9552,1.9592,1.9592,1.9604,1.9565,1.9565,1.9574,1.9642,2.0106,2.0531,2.0933,2.1857,2.2513,2.2807,2.3564,2.4149,2.4314,2.4767,2.5109,2.5271,2.5327,2.5308,2.5188,2.5508,2.5729,2.5893,2.6056,2.6433,2.6907,2.7026,2.713,2.7181,2.7181,2.7181,2.7159,2.7632,2.7919,2.8083,2.8624,2.8973,2.916,2.9218,2.9464,2.9797,2.987,3.019,3.0568,3.0568,3.0568,3.0568,-2.2413,-2.0584,-1.8541,-1.6595,-1.4018,-1.2049,-1.1386,-0.7632,-0.4086,-0.1691,-0.0178,0.1248,0.2668,0.3912,0.5783,0.8752,0.8969,0.9452,1.0838,1.3756,1.5419,1.5435,1.6211,1.7108,1.826,1.8624,1.9208,2.0107,2.0752,2.1439,2.2101,2.2641,1.8658,1.0987,1.0987,0.6383,-0.1423,-0.1623,-0.1734,-0.1801,-0.1872,-0.197,-0.2009,-0.1203,-0.0823,-0.0615,0.0121,0.0507,0.178,0.9028,1.0985,1.1643,1.8977,2.0393,1.9328,1.9052,1.8839,1.8625,1.8625,1.8356,1.8259,1.8827,1.8987,1.8987,1.8987,1.8987,1.904,1.9186,1.9186,1.9239,1.9368,1.942,1.9592,2.0079,2.0177,2.0668,2.194,2.2101,2.243,2.328,2.4067,2.4571,2.4875,2.5595,2.606,2.6294,2.5882,2.5468,2.5215,2.5188,2.5411,2.5907,2.5907,2.6016,2.6301,2.6621,2.6937,2.7181,2.7181,2.7144,2.7033,2.7501,2.7975,2.8426,2.8927,2.9511,3.0111,3.0266,3.0312,3.0312,3.0507,3.0568,3.0568,3.0568,3.0568,3.0568,-2.0242,-1.8476,-1.6563,-1.3935,-1.2407,-1.0453,-0.7092,-0.408,-0.1334,0.0801,0.2315,0.3916,0.5593,0.6741,0.815,1.0193,1.0783,1.1878,1.3931,1.5462,1.6708,1.7443,1.7544,1.7893,1.8566,1.8873,1.9346,2.0027,2.0424,2.0892,2.1428,2.1951,2.1088,1.9117,1.9364,1.8164,1.5556,0.9609,0.7165,0.6695,0.0719,-0.1661,-0.092,0.5419,0.7542,0.7946,1.4113,1.6043,1.5935,1.7911,1.8273,1.8277,2.0019,2.0225,1.98,1.9482,1.9321,1.9149,1.901,1.8634,1.834,1.8383,1.8356,1.841,1.8572,1.8572,1.8625,1.8774,1.8762,1.8827,1.8946,1.8958,1.9179,1.9806,2.0329,2.0885,2.1638,2.2305,2.2871,2.3542,2.4002,2.4491,2.5125,2.5582,2.5936,2.606,2.6195,2.6203,2.6148,2.6372,2.6534,2.6651,2.6912,2.7085,2.73,2.6728,2.65,2.6553,2.7054,2.727,2.7259,2.8211,2.8741,2.8956,2.954,2.994,3.0111,3.0172,3.0158,3.0158,3.0233,3.0233,3.028,3.0326,3.0387,3.0387,-1.8352,-1.6452,-1.4268,-1.1549,-0.9803,-0.7541,-0.3726,-0.1067,0.1335,0.3922,0.5075,0.6398,0.8158,0.9205,1.0331,1.1815,1.2838,1.4028,1.5726,1.6476,1.7302,1.8201,1.8285,1.8443,1.8947,1.9039,1.9394,2.0027,2.0443,2.0798,2.1099,2.1626,2.2028,2.2273,2.2506,2.2763,2.267,1.7581,1.5574,1.5342,1.0148,0.8168,0.887,1.4149,1.5874,1.6156,2.1158,2.27,2.2248,2.1915,2.1522,2.0955,2.0194,1.9889,1.969,1.9417,1.925,1.907,1.8868,1.8588,1.8302,1.8189,1.8047,1.7986,1.8096,1.8096,1.8205,1.8344,1.8398,1.8464,1.8679,1.8856,1.9219,1.9897,2.055,2.115,2.1801,2.2396,2.2924,2.3591,2.4167,2.4709,2.546,2.6039,2.6399,2.6354,2.6516,2.6596,2.6492,2.6722,2.6829,2.701,2.7216,2.7395,2.7485,2.6932,2.6792,2.7083,2.7454,2.764,2.7669,2.8624,2.9035,2.9064,2.9643,2.9927,2.9927,2.9974,2.9974,2.9974,3.005,3.0111,3.0111,3.0219,3.0266,3.0312,-1.6569,-1.425,-1.1669,-0.9271,-0.6536,-0.373,-0.0979,0.1425,0.4013,0.7245,0.7841,0.8603,1.0265,1.13,1.2334,1.3451,1.472,1.5816,1.6394,1.6886,1.7383,1.8031,1.8451,1.8919,1.9325,1.9134,1.9419,2.0134,2.0676,2.1005,2.1107,2.1653,2.1774,2.1722,2.1871,2.2023,2.2285,2.2359,2.2543,2.2787,2.2787,2.2896,2.3017,2.3017,2.3017,2.2957,2.2641,2.2519,2.2469,2.2185,2.1542,2.0754,1.9772,1.9456,1.9396,1.9083,1.889,1.8757,1.8574,1.8379,1.8235,1.8235,1.8017,1.7723,1.7723,1.7678,1.7767,1.803,1.8084,1.8193,1.8506,1.8928,1.9512,2.0272,2.0807,2.1391,2.2224,2.2395,2.275,2.3603,2.4391,2.5136,2.5836,2.6758,2.7181,2.6972,2.6933,2.6823,2.6604,2.6626,2.681,2.7113,2.7174,2.7234,2.7354,2.7354,2.7597,2.8082,2.8197,2.8167,2.8196,2.8717,2.8894,2.8923,2.9364,2.954,2.9602,2.9699,2.9747,2.9808,2.9974,3.005,3.005,3.005,3.0158,3.0251,-1.3928,-1.1558,-0.9113,-0.6291,-0.3773,-0.1245,0.1336,0.419,0.6605,0.7929,0.8877,1.0091,1.1752,1.2772,1.362,1.4657,1.5741,1.6566,1.6886,1.7375,1.7781,1.8273,1.8531,1.8975,1.9515,1.9478,1.9785,2.039,2.0463,2.0804,2.1279,2.1476,2.1632,2.1624,2.1832,2.1783,2.1651,2.18,2.1937,2.2111,2.2111,2.2247,2.2371,2.2371,2.2371,2.2371,2.2111,2.1975,2.1839,2.1348,2.1089,2.0848,2.0314,2.0079,1.9929,1.9759,1.9566,1.9437,1.9361,1.903,1.8754,1.8754,1.8401,1.8067,1.7912,1.7699,1.759,1.7755,1.7865,1.8018,1.8193,1.8707,1.9387,2.0029,2.0677,2.133,2.1916,2.2597,2.3235,2.3835,2.4703,2.5448,2.6189,2.6786,2.7095,2.722,2.7274,2.7407,2.7536,2.7782,2.7911,2.8039,2.8243,2.8447,2.8447,2.8636,2.8277,2.744,2.794,2.8177,2.8205,2.8816,2.9032,2.9032,2.917,2.9289,2.9477,2.9477,2.954,2.9665,2.9665,2.9741,2.9727,2.9837,2.9884,2.9931,-1.1435,-0.8988,-0.6417,-0.3766,-0.1303,0.1055,0.3467,0.5968,0.8017,0.9222,1.0356,1.1655,1.3039,1.3886,1.4734,1.5748,1.6566,1.7139,1.7375,1.7619,1.7942,1.8362,1.8612,1.8931,1.9469,1.9646,2.0081,2.0853,2.091,2.1126,2.1493,2.1778,2.1798,2.1654,2.1698,2.1581,2.1384,2.1284,2.1308,2.1411,2.1549,2.1675,2.1788,2.1788,2.1788,2.1788,2.1537,2.1285,2.1031,2.0635,2.0506,2.0388,2.0064,1.9933,1.9791,1.9605,1.9473,1.9341,1.9142,1.8899,1.8723,1.8723,1.852,1.8259,1.8077,1.7828,1.7641,1.7776,1.7746,1.7878,1.8293,1.8851,1.9518,2.0287,2.0862,2.1419,2.1827,2.2504,2.3224,2.3886,2.4621,2.5419,2.6296,2.6658,2.6943,2.7146,2.7335,2.7469,2.7656,2.7908,2.8105,2.8183,2.8392,2.8471,2.8471,2.8587,2.8275,2.7651,2.8277,2.8629,2.8643,2.8961,2.9099,2.9099,2.9099,2.9162,2.9289,2.9352,2.9415,2.9477,2.9602,2.9602,2.9602,2.9651,2.9761,2.987,-0.8899,-0.6287,-0.3658,-0.136,0.1117,0.3386,0.5499,0.7376,0.9135,1.0697,1.1918,1.3039,1.4223,1.4985,1.5824,1.673,1.7229,1.7546,1.77,1.77,1.7951,1.8362,1.8612,1.8922,1.9301,1.9696,2.0255,2.1128,2.1359,2.1535,2.1744,2.2058,2.2099,2.1798,2.1541,2.142,2.1308,2.0882,2.0786,2.0903,2.1031,2.1158,2.1273,2.1273,2.1273,2.1273,2.0903,2.0582,2.027,2.0118,1.9922,1.9802,1.9605,1.9539,1.9473,1.9142,1.9008,1.8942,1.8617,1.8482,1.8482,1.8482,1.8476,1.8369,1.8312,1.802,1.7793,1.798,1.7838,1.7912,1.8622,1.9154,1.9738,2.0476,2.1012,2.1498,2.1918,2.2443,2.3161,2.3954,2.4553,2.5362,2.6377,2.6578,2.6848,2.7156,2.7272,2.7343,2.7533,2.7709,2.7855,2.8013,2.8079,2.8079,2.8079,2.8079,2.8079,2.8079,2.8651,2.8972,2.8958,2.8958,2.8972,2.9035,2.9035,2.9035,2.9035,2.9289,2.9352,2.9415,2.954,2.9602,2.9602,2.9602,2.9713,2.9808,-0.604,-0.3319,-0.0892,0.1831,0.3823,0.572,0.7789,0.9218,1.0529,1.2009,1.2948,1.3957,1.5144,1.6139,1.6976,1.731,1.7546,1.77,1.77,1.787,1.8112,1.8362,1.8612,1.8922,1.9301,1.9696,2.0177,2.0644,2.1051,2.1405,2.178,2.2017,2.2062,2.1945,2.1609,2.1369,2.1141,2.0805,2.0733,2.0733,2.0733,2.0797,2.0786,2.0786,2.0786,2.0797,2.054,2.027,1.9933,1.9736,1.9671,1.9615,1.9407,1.9274,1.9142,1.8875,1.8751,1.8549,1.8482,1.8482,1.8482,1.8482,1.8499,1.8516,1.8711,1.8438,1.8187,1.8287,1.8414,1.8632,1.884,1.9371,1.9924,2.0239,2.0774,2.1446,2.2092,2.2857,2.3578,2.4169,2.4972,2.5786,2.6621,2.667,2.7083,2.7918,2.749,2.7341,2.7773,2.7595,2.7523,2.7603,2.7947,2.8079,2.8079,2.8079,2.8079,2.8079,2.821,2.8327,2.843,2.843,2.8495,2.8651,2.8651,2.8716,2.8844,2.9035,2.9226,2.9415,2.954,2.9602,2.9602,2.9602,2.9713,2.9822,-0.278,-0.0468,0.1833,0.4298,0.6114,0.7842,0.977,1.0956,1.2089,1.3379,1.4216,1.497,1.5891,1.6878,1.7456,1.7546,1.787,1.8103,1.8103,1.8282,1.8523,1.8763,1.8843,1.9002,1.9301,1.9394,1.9514,1.9832,2.0623,2.1151,2.1414,2.1489,2.1534,2.1418,2.1027,2.0773,2.0614,2.0347,2.027,2.027,2.0475,2.054,2.054,2.0388,2.0377,2.0313,2.0064,1.9813,1.9539,1.9407,1.9274,1.9142,1.8952,1.8808,1.8741,1.8539,1.8472,1.8337,1.8279,1.8212,1.8212,1.8212,1.8279,1.8405,1.8617,1.8578,1.8541,1.8647,1.8566,1.8714,1.9243,1.9599,1.9957,2.0425,2.0778,2.1277,2.1924,2.2698,2.3588,2.4612,2.518,2.5742,2.6432,2.6637,2.7015,2.7693,2.7426,2.7243,2.7455,2.7293,2.7214,2.7214,2.7482,2.7669,2.7669,2.7749,2.7736,2.7736,2.7736,2.7934,2.8197,2.8197,2.8249,2.843,2.843,2.8509,2.8716,2.8844,2.9035,2.9226,2.9415,2.954,2.9602,2.9602,2.9665,2.9713]},{"header":{"parameterUnit":"m.s-1","parameterCategory":1,"la1":30.6,"la2":28.766,"lo1":-90.7593,"lo2":-88.6598,"dy":0.0162,"dx":0.0183,"nx":116,"ny":114,"refTime":"2023-07-15T00:00:00:Z","depth":0,"parameterNumber":3,"parameterNumberName":"V-component_of_WINDS"},"data":[0.0,0.0,0.0,0.0,0.0,0.0,0.0,0.0,0.0,0.0,0.0,0.0,0.0,0.0,0.0,0.0,0.0,0.0,0.0,0.0,0.0,0.0,0.0,0.0,0.0,0.0,0.0,0.0,0.0,0.0,0.0,0.0,0.0,0.0,0.0,0.0,0.0,0.0,0.0,0.0,0.0,0.0,0.0,0.0,0.0,0.0,0.0,0.0,0.0,0.0,0.0,0.0,0.0,0.0,0.0,0.0,0.0,0.0,0.0,0.0,0.0,0.0,0.0,0.0,0.0,0.0,0.0,0.0,0.0,0.0,0.0,0.0,0.0,0.0,0.0,0.0,0.0,0.0,0.0,0.0,0.0,0.0,0.0,0.0,0.0,0.0,0.0,0.0,0.0,0.0,0.0,0.0,0.0,0.0,0.0,0.0,0.0,0.0,0.0,0.0,0.0,0.0,0.0,0.0,0.0,0.0,0.0,0.0,0.0,0.0,0.0,0.0,0.0,0.0,0.0,0.0,0.0,0.0,0.0,0.0,0.0,0.0,0.0,0.0,0.0,0.0,0.0,0.0,0.0,0.0,0.0,0.0,0.0,0.0,0.0,0.0,0.0,0.0,0.0,0.0,0.0,0.0,0.0,0.0,0.0,0.0,0.0,0.0,0.0,0.0,0.0,0.0,0.0,0.0,0.0,0.0,0.0,0.0,0.0,0.0,0.0,0.0,0.0,0.0,0.0,0.0,0.0,0.0,0.0,0.0,0.0,0.0,0.0,0.0,0.0,0.0,0.0,0.0,0.0,0.0,0.0,0.0,0.0,0.0,0.0,0.0,0.0,0.0,0.0,0.0,0.0,0.0,0.0,0.0,0.0,0.0,0.0,0.0,0.0,0.0,0.0,0.0,0.0,0.0,0.0,0.0,0.0,0.0,0.0,0.0,0.0,0.0,0.0,0.0,0.0,0.0,0.0,0.0,0.0,0.0,0.0,0.0,0.0,0.0,0.0,0.0,0.0,0.0,0.0,0.0,0.0,0.0,0.0,0.0,0.0,0.0,0.0,0.0,0.0,0.0,0.0,0.0,0.0,0.0,0.0,0.0,0.0,0.0,0.0,0.0,0.0,0.0,0.0,0.0,0.0,0.0,0.0,0.0,0.0,0.0,0.0,0.0,0.0,0.0,0.0,0.0,0.0,0.0,0.0,0.0,0.0,0.0,0.0,0.0,0.0,0.0,0.0,0.0,0.0,0.0,0.0,0.0,0.0,0.0,0.0,0.0,0.0,0.0,0.0,0.0,0.0,0.0,0.0,0.0,0.0,0.0,0.0,0.0,0.0,0.0,0.0,0.0,0.0,0.0,0.0,0.0,0.0,0.0,0.0,0.0,0.0,0.0,0.0,0.0,0.0,0.0,0.0,0.0,0.0,0.0,0.0,0.0,0.0,0.0,0.0,0.0,0.0,0.0,0.0,0.0,0.0,0.0,0.0,0.0,0.0,0.0,0.0,0.0,0.0,0.0,0.0,0.0,0.0,0.0,0.0,0.0,0.0,0.0,0.0,0.0,0.0,0.0,0.0,0.0,0.0,0.0,0.0,0.0,0.0,0.0,0.0,0.0,0.0,0.0,0.0,0.0,0.0,0.0,0.0,0.0,0.0,0.0,0.0,0.0,0.0,0.0,0.0,0.0,0.0,0.0,0.0,0.0,0.0,0.0,0.0,0.0,0.0,0.0,0.0,0.0,0.0,0.0,0.0,0.0,0.0,0.0,0.0,0.0,0.0,0.0,0.0,0.0,0.0,0.0,0.0,0.0,0.0,0.0,0.0,0.0,0.0,0.0,0.0,0.0,0.0,0.0,0.0,0.0,0.0,0.0,0.0,0.0,0.0,0.0,0.0,0.0,0.0,0.0,0.0,0.0,0.0,0.0,0.0,0.0,0.0,0.0,0.0,0.0,0.0,0.0,0.0,0.0,0.0,0.0,0.0,0.0,0.0,0.0,0.0,0.0,0.0,0.0,0.0,0.0,0.0,0.0,0.0,0.0,0.0,0.0,0.0,0.0,0.0,0.0,0.0,0.0,0.0,0.0,0.0,0.0,0.0,0.0,0.0,0.0,0.0,0.0,0.0,0.0,0.0,0.0,0.0,0.0,0.0,0.0,0.0,0.0,0.0,0.0,0.0,0.0,0.0,0.0,0.0,0.0,0.0,0.0,0.0,0.0,0.0,0.0,0.0,0.0,0.0,0.0,0.0,0.0,0.0,0.0,0.0,0.0,0.0,0.0,0.0,0.0,0.0,0.0,0.0,0.0,0.0,0.0,0.0,0.0,0.0,0.0,0.0,0.0,0.0,0.0,0.0,0.0,0.0,0.0,0.0,0.0,0.0,0.0,0.0,0.0,0.0,0.0,0.0,0.0,0.0,0.0,0.0,0.0,0.0,0.0,0.0,0.0,0.0,0.0,0.0,0.0,0.0,0.0,0.0,0.0,0.0,0.0,0.0,0.0,0.0,0.0,0.0,0.0,0.0,0.0,0.0,0.0,0.0,0.0,0.0,0.0,0.0,0.0,0.0,0.0,0.0,0.0,0.0,0.0,0.0,0.0,0.0,0.0,0.0,0.0,0.0,0.0,0.0,0.0,0.0,0.0,0.0,0.0,0.0,0.0,0.0,0.0,0.0,0.0,0.0,0.0,0.0,0.0,0.0,0.0,0.0,0.0,0.0,0.0,0.0,0.0,0.0,0.0,0.0,0.0,0.0,0.0,0.0,0.0,0.0,0.0,0.0,0.0,0.0,0.0,0.0,0.0,0.0,0.0,0.0,0.0,0.0,0.0,0.0,0.0,0.0,0.0,0.0,0.0,0.0,0.0,0.0,0.0,0.0,0.0,0.0,0.0,0.0,0.0,0.0,0.0,0.0,0.0,0.0,0.0,0.0,0.0,0.0,0.0,0.0,0.0,0.0,0.0,0.0,0.0,0.0,0.0,0.0,0.0,0.0,0.0,0.0,0.0,0.0,0.0,0.0,0.0,0.0,0.0,0.0,0.0,0.0,0.0,0.0,0.0,0.0,0.0,0.0,0.0,0.0,0.0,0.0,0.0,0.0,0.0,0.0,0.0,0.0,0.0,0.0,0.0,0.0,0.0,0.0,0.0,0.0,0.0,0.0,0.0,0.0,0.0,0.0,0.0,0.0,0.0,0.0,0.0,0.0,0.0,0.0,0.0,0.0,0.0,0.0,0.0,0.0,0.0,0.0,0.0,0.0,0.0,0.0,0.0,0.0,0.0,0.0,0.0,0.0,0.0,0.0,0.0,0.0,0.0,0.0,0.0,0.0,0.0,0.0,0.0,0.0,0.0,0.0,0.0,0.0,0.0,0.0,0.0,0.0,0.0,0.0,0.0,0.0,0.0,0.0,0.0,0.0,0.0,0.0,0.0,0.0,0.0,0.0,0.0,0.0,0.0,0.0,0.0,0.0,0.0,0.0,0.0,0.0,0.0,0.0,0.0,0.0,0.0,0.0,0.0,0.0,0.0,0.0,0.0,0.0,0.0,0.0,0.0,0.0,0.0,0.0,0.0,0.0,0.0,0.0,0.0,0.0,0.0,0.0,0.0,0.0,0.0,0.0,0.0,0.0,0.0,0.0,0.0,0.0,0.0,0.0,0.0,0.0,0.0,0.0,0.0,0.0,0.0,0.0,0.0,0.0,0.0,0.0,0.0,0.0,0.0,0.0,0.0,0.0,0.0,0.0,0.0,0.0,0.0,0.0,0.0,0.0,0.0,0.0,0.0,0.0,0.0,0.0,0.0,0.0,0.0,0.0,0.0,0.0,0.0,0.0,0.0,0.0,0.0,0.0,0.0,0.0,0.0,0.0,0.0,0.0,0.0,0.0,0.0,0.0,0.0,0.0,0.0,0.0,0.0,0.0,0.0,0.0,0.0,0.0,0.0,0.0,0.0,0.0,0.0,0.0,0.0,0.0,0.0,0.0,0.0,0.0,0.0,0.0,0.0,0.0,0.0,0.0,0.0,0.0,0.0,0.0,0.0,0.0,0.0,0.0,0.0,0.0,0.0,0.0,0.0,0.0,0.0,0.0,0.0,0.0,0.0,0.0,0.0,0.0,0.0,0.0,0.0,0.0,0.0,0.0,0.0,0.0,0.0,0.0,0.0,0.0,0.0,0.0,0.0,0.0,0.0,0.0,0.0,0.0,0.0,0.0,0.0,0.0,0.0,0.0,0.0,0.0,0.0,0.0,0.0,0.0,0.0,0.0,0.0,0.0,0.0,0.0,0.0,0.0,0.0,0.0,0.0,0.0,0.0,0.0,0.0,0.0,0.0,0.0,0.0,0.0,0.0,0.0,0.0,0.0,0.0,0.0,0.0,0.0,0.0,0.0,0.0,0.0,0.0,0.0,0.0,0.0,0.0,0.0,0.0,0.0,0.0,0.0,0.0,0.0,0.0,0.0,0.0,0.0,0.0,0.0,0.0,0.0,0.0,0.0,0.0,0.0,0.0,0.0,0.0,0.0,0.0,0.0,0.0,0.0,0.0,0.0,0.0,0.0,0.0,0.0,0.0,0.0,0.0,0.0,0.0,0.0,0.0,0.0,0.0,0.0,0.0,0.0,0.0,0.0,0.0,0.0,0.0,0.0,0.0,0.0,0.0,0.0,0.0,0.0,0.0,0.0,0.0,0.0,0.0,0.0,0.0,0.0,0.0,0.0,0.0,0.0,0.0,0.0,0.0,0.0,0.0,0.0,0.0,0.0,0.0,0.0,0.0,0.0,0.0,0.0,0.0,0.0,0.0,0.0,0.0,0.0,0.0,0.0,0.0,0.0,0.0,0.0,0.0,0.0,0.0,0.0,0.0,0.0,0.0,0.0,0.0,0.0,0.0,0.0,0.0,0.0,0.0,0.0,0.0,0.0,0.0,0.0,0.0,0.0,0.0,0.0,0.0,0.0,0.0,0.0,0.0,0.0,0.0,0.0,0.0,0.0,0.0,0.0,0.0,0.0,0.0,0.0,0.0,0.0,0.0,0.0,0.0,0.0,0.0,0.0,0.0,0.0,0.0,0.0,0.0,0.0,0.0,0.0,0.0,0.0,0.0,0.0,0.0,0.0,0.0,0.0,0.0,0.0,0.0,0.0,0.0,0.0,0.0,0.0,0.0,0.0,0.0,0.0,0.0,0.0,0.0,0.0,0.0,0.0,0.0,0.0,0.0,0.0,0.0,0.0,0.0,0.0,0.0,0.0,0.0,0.0,0.0,0.0,0.0,0.0,0.0,0.0,0.0,0.0,0.0,0.0,0.0,0.0,0.0,0.0,0.0,0.0,0.0,0.0,0.0,0.0,0.0,0.0,0.0,0.0,0.0,0.0,0.0,0.0,0.0,0.0,0.0,0.0,0.0,0.0,0.0,0.0,0.0,0.0,0.0,0.0,0.0,0.0,0.0,0.0,0.0,0.0,0.0,0.0,0.0,0.0,0.0,0.0,0.0,0.0,0.0,0.0,0.0,0.0,0.0,0.0,0.0,0.0,0.0,0.0,0.0,0.0,0.0,0.0,0.0,0.0,0.0,0.0,0.0,0.0,0.0,0.0,0.0,0.0,0.0,0.0,0.0,0.0,0.0,0.0,0.0,0.0,0.0,0.0,0.0,0.0,0.0,0.0,0.0,0.0,0.0,0.0,0.0,0.0,0.0,0.0,0.0,0.0,0.0,0.0,0.0,0.0,0.0,0.0,0.0,0.0,0.0,0.0,0.0,0.0,0.0,0.0,0.0,0.0,0.0,0.0,0.0,0.0,0.0,0.0,0.0,0.0,0.0,0.0,0.0,0.0,0.0,0.0,0.0,0.0,0.0,0.0,0.0,0.0,0.0,0.0,0.0,0.0,0.0,0.0,0.0,0.0,0.0,0.0,0.0,0.0,0.0,0.0,0.0,0.0,0.0,0.0,0.0,0.0,0.0,0.0,0.0,0.0,0.0,0.0,0.0,0.0,0.0,0.0,0.0,0.0,0.0,0.0,0.0,0.0,0.0,0.0,0.0,0.0,0.0,0.0,0.0,0.0,0.0,0.0,0.0,0.0,0.0,0.0,0.0,0.0,0.0,0.0,0.0,0.0,0.0,-1.9888,-1.8956,0.0,0.0,0.0,0.0,0.0,0.0,0.0,0.0,0.0,0.0,0.0,0.0,0.0,0.0,0.0,0.0,0.0,0.0,0.0,0.0,0.0,0.0,0.0,0.0,0.0,0.0,0.0,0.0,0.0,0.0,0.0,0.0,0.0,0.0,0.0,0.0,0.0,0.0,0.0,0.0,0.0,0.0,0.0,0.0,0.0,0.0,0.0,0.0,0.0,0.0,0.0,0.0,0.0,0.0,0.0,0.0,0.0,0.0,0.0,0.0,0.0,0.0,0.0,0.0,0.0,0.0,0.0,0.0,0.0,0.0,0.0,0.0,0.0,0.0,0.0,0.0,0.0,0.0,0.0,0.0,0.0,0.0,0.0,0.0,0.0,0.0,0.0,0.0,0.0,0.0,0.0,0.0,0.0,0.0,0.0,0.0,0.0,0.0,0.0,0.0,0.0,0.0,0.0,0.0,0.0,0.0,0.0,0.0,0.0,0.0,0.0,0.0,0.0,0.0,-2.1381,-2.0878,0.0,0.0,0.0,0.0,0.0,0.0,0.0,0.0,0.0,0.0,0.0,0.0,0.0,0.0,0.0,0.0,0.0,0.0,0.0,0.0,0.0,0.0,0.0,0.0,0.0,0.0,0.0,0.0,0.0,0.0,0.0,0.0,0.0,0.0,0.0,0.0,0.0,0.0,0.0,0.0,0.0,0.0,0.0,0.0,0.0,0.0,0.0,0.0,0.0,0.0,0.0,0.0,0.0,0.0,0.0,0.0,0.0,0.0,0.0,0.0,0.0,0.0,0.0,0.0,0.0,0.0,0.0,0.0,0.0,0.0,0.0,0.0,0.0,0.0,0.0,0.0,0.0,0.0,0.0,0.0,0.0,0.0,0.0,0.0,0.0,0.0,0.0,0.0,0.0,0.0,0.0,0.0,0.0,0.0,0.0,0.0,0.0,0.0,0.0,0.0,0.0,0.0,0.0,0.0,0.0,0.0,0.0,0.0,-2.2303,-2.2464,-2.2732,-2.2876,-2.2994,-2.3048,-2.3396,-2.3338,-2.3024,-2.3024,0.0,0.0,0.0,0.0,0.0,0.0,0.0,0.0,0.0,0.0,0.0,0.0,0.0,0.0,0.0,0.0,0.0,0.0,0.0,0.0,0.0,0.0,0.0,0.0,0.0,0.0,0.0,0.0,0.0,0.0,0.0,0.0,0.0,0.0,0.0,0.0,0.0,0.0,-1.3598,-1.4466,-1.5128,-1.5556,0.0,0.0,0.0,0.0,0.0,0.0,0.0,0.0,0.0,0.0,0.0,0.0,0.0,0.0,0.0,0.0,0.0,0.0,0.0,0.0,0.0,0.0,0.0,0.0,0.0,0.0,0.0,0.0,0.0,0.0,0.0,0.0,0.0,0.0,0.0,0.0,0.0,0.0,0.0,0.0,0.0,0.0,0.0,0.0,-1.6862,-1.6949,0.0,0.0,0.0,0.0,0.0,0.0,0.0,0.0,0.0,0.0,0.0,0.0,0.0,-2.0391,-2.1079,-2.1167,-2.1913,-2.3198,-2.3198,-2.3925,-2.5244,-2.5244,-2.5394,-2.5633,-2.5678,0.0,-2.2655,-2.2655,0.0,0.0,0.0,0.0,0.0,0.0,0.0,0.0,0.0,0.0,0.0,0.0,0.0,0.0,0.0,0.0,0.0,0.0,0.0,0.0,0.0,0.0,0.0,0.0,0.0,0.0,0.0,0.0,0.0,0.0,0.0,0.0,0.0,0.0,0.0,0.0,-1.2624,-1.357,-1.4259,-1.4904,-1.5515,-1.611,-1.6074,-1.6323,-1.6887,-1.738,0.0,0.0,0.0,0.0,0.0,0.0,0.0,0.0,0.0,0.0,0.0,0.0,0.0,0.0,0.0,0.0,0.0,0.0,0.0,0.0,0.0,0.0,0.0,0.0,0.0,0.0,0.0,0.0,0.0,0.0,0.0,0.0,0.0,0.0,0.0,0.0,0.0,0.0,0.0,-1.6876,-1.7632,-1.7611,-1.7505,-1.7434,0.0,0.0,0.0,0.0,0.0,0.0,0.0,0.0,0.0,-2.007,-2.1023,-2.1715,-2.2091,-2.2802,-2.3533,-2.4288,-2.4288,-2.4675,-2.5411,-2.5521,-2.5615,-2.5723,-2.5755,-2.5168,-2.4253,-2.4564,-2.4663,-2.4663,0.0,0.0,0.0,0.0,-2.471,-2.4928,0.0,0.0,0.0,0.0,0.0,0.0,0.0,0.0,0.0,0.0,0.0,0.0,0.0,0.0,0.0,-0.5707,0.0,0.0,0.0,0.0,0.0,0.0,0.0,0.0,0.0,0.0,0.0,0.0,-1.3184,-1.3841,-1.4371,-1.4977,-1.567,-1.6391,-1.71,-1.7434,-1.7497,-1.8043,-1.8124,0.0,0.0,0.0,0.0,0.0,0.0,0.0,0.0,0.0,0.0,0.0,0.0,0.0,0.0,0.0,0.0,0.0,0.0,0.0,0.0,0.0,0.0,0.0,0.0,0.0,0.0,0.0,0.0,0.0,0.0,0.0,0.0,0.0,0.0,0.0,0.0,0.0,0.0,-1.7819,-1.8524,-1.8645,-1.847,-1.8394,0.0,0.0,0.0,0.0,0.0,0.0,-2.002,-2.067,-2.1125,-2.1267,-2.2331,-2.2961,-2.3102,-2.4018,-2.4725,-2.5096,-2.5096,-2.5232,-2.5541,-2.5639,-2.5688,-2.5737,-2.5771,-2.579,-2.5842,-2.6031,-2.6092,-2.6092,-2.5971,-2.5971,-2.594,-2.5909,-2.5968,-2.6166,0.0,0.0,0.0,0.0,0.0,0.0,0.0,0.0,0.0,0.0,0.0,0.0,0.0,0.0,-0.4962,-0.5545,-0.5967,-0.6422,0.0,0.0,0.0,0.0,0.0,0.0,0.0,0.0,0.0,-1.2128,-1.2678,-1.3178,-1.368,-1.4923,-1.5887,-1.6661,-1.7953,-1.8373,-1.8161,-1.8731,-1.8849,-1.8667,0.0,0.0,0.0,0.0,0.0,0.0,0.0,0.0,0.0,0.0,0.0,0.0,0.0,0.0,0.0,0.0,0.0,0.0,0.0,0.0,0.0,0.0,0.0,0.0,0.0,0.0,0.0,0.0,0.0,0.0,0.0,0.0,0.0,0.0,0.0,0.0,0.0,0.0,0.0,-2.0316,-2.0246,0.0,0.0,0.0,0.0,-1.9903,-1.9958,-2.0249,-2.0921,-2.1546,-2.2239,-2.2846,-2.3568,-2.3969,-2.412,-2.419,-2.4617,-2.5354,-2.5354,-2.5759,-2.6409,-2.6409,-2.6515,-2.6634,-2.6634,-2.6634,-2.6585,-2.5838,-2.5555,-2.5555,-2.5508,-2.5523,-2.5506,-2.5506,-2.5956,-2.6542,0.0,0.0,0.0,0.0,0.0,0.0,0.0,0.0,0.0,0.0,0.0,0.0,0.0,-0.4155,-0.4514,-0.505,-0.5487,-0.5879,-0.6179,0.0,0.0,0.0,0.0,0.0,0.0,0.0,-1.0976,-1.1626,-1.2538,-1.331,-1.395,-1.4938,-1.5874,-1.6792,-1.7917,-1.8693,-1.9253,-1.9514,-1.9568,-1.9471,-1.9344,-1.9328,0.0,0.0,0.0,0.0,0.0,0.0,0.0,0.0,0.0,0.0,0.0,0.0,0.0,0.0,0.0,0.0,0.0,0.0,0.0,0.0,0.0,0.0,0.0,0.0,0.0,0.0,0.0,0.0,0.0,0.0,0.0,0.0,0.0,0.0,0.0,0.0,0.0,-2.0358,-2.0215,0.0,-2.0085,-2.0387,-2.0744,-2.1112,-2.1531,-2.2014,-2.2636,-2.2884,-2.3156,-2.3349,-2.401,-2.4329,-2.4382,-2.4799,-2.5213,-2.557,-2.557,-2.5791,-2.6096,-2.6096,-2.6218,-2.6312,-2.6312,-2.6379,-2.639,-2.6139,-2.609,-2.6279,-2.6279,-2.6293,-2.6257,-2.6257,-2.6454,-2.666,0.0,0.0,0.0,0.0,0.0,0.0,0.0,0.0,0.0,0.0,0.0,-0.3094,-0.3597,-0.3817,-0.4113,-0.4624,-0.4981,-0.527,-0.5529,0.0,0.0,0.0,0.0,0.0,0.0,-0.9731,-1.0391,-1.1042,-1.2029,-1.2899,-1.3616,-1.4595,-1.5576,-1.6646,-1.776,-1.8864,-1.9954,-2.0305,-2.0389,-2.0306,-2.0211,-2.0043,-1.9816,0.0,0.0,0.0,0.0,0.0,0.0,0.0,0.0,0.0,0.0,0.0,0.0,0.0,0.0,0.0,0.0,0.0,0.0,0.0,0.0,0.0,0.0,0.0,0.0,0.0,0.0,0.0,0.0,0.0,0.0,0.0,0.0,0.0,0.0,-2.0189,-2.0606,-2.0726,-2.056,-2.0553,-2.0712,-2.1049,-2.1492,-2.207,-2.2515,-2.2992,-2.3605,-2.3632,-2.3741,-2.3932,-2.4327,-2.4587,-2.4587,-2.5052,-2.53,-2.5453,-2.5453,-2.5508,-2.5619,-2.5619,-2.5729,-2.5784,-2.5853,-2.5976,-2.6016,-2.6016,-2.6111,-2.6326,-2.6418,-2.6472,-2.6418,-2.6418,-2.6418,-2.6418,0.0,0.0,0.0,0.0,0.0,0.0,0.0,0.0,0.0,0.0,-0.2735,-0.306,-0.3543,-0.3582,-0.3802,-0.4335,-0.4491,-0.4705,-0.4961,-0.528,0.0,0.0,0.0,0.0,-0.843,-0.8841,-0.9485,-1.0348,-1.1157,-1.1913,-1.2589,-1.3878,-1.5106,-1.6268,-1.7545,-1.891,-2.0265,-2.1022,-2.1284,-2.1206,-2.1718,-2.1171,-2.0098,0.0,0.0,0.0,0.0,0.0,0.0,0.0,0.0,0.0,0.0,0.0,0.0,0.0,0.0,0.0,0.0,0.0,0.0,0.0,0.0,0.0,0.0,0.0,0.0,0.0,0.0,0.0,0.0,0.0,0.0,0.0,0.0,0.0,-2.1209,-2.1161,-2.1259,-2.1589,-2.1526,-2.1596,-2.2076,-2.199,-2.214,-2.2751,-2.2791,-2.3111,-2.3683,-2.3723,-2.3976,-2.4593,-2.4549,-2.4677,-2.4778,-2.4778,-2.4835,-2.4948,-2.5005,-2.5005,-2.5005,-2.5118,-2.5174,-2.5174,-2.5369,-2.5494,-2.5494,-2.5494,-2.5494,-2.5494,-2.5907,-2.6002,-2.5893,-2.5893,-2.5893,-2.5893,0.0,0.0,0.0,0.0,0.0,0.0,0.0,0.0,0.0,0.0,-0.2494,-0.2753,-0.3124,-0.3155,-0.3323,-0.377,-0.3877,-0.4049,-0.4308,0.0,0.0,0.0,0.0,0.0,-0.7745,-0.8072,-0.8481,-0.8962,-0.9941,-1.0831,-1.1638,-1.3111,-1.4631,-1.6182,-1.7665,-1.9082,-2.0405,-2.1497,-2.2207,-2.2597,-2.2189,-2.1979,-2.1837,0.0,0.0,0.0,0.0,0.0,0.0,0.0,0.0,0.0,0.0,0.0,0.0,0.0,0.0,0.0,0.0,0.0,0.0,0.0,0.0,0.0,0.0,0.0,0.0,0.0,0.0,0.0,0.0,0.0,0.0,0.0,-2.1273,-2.145,-2.1558,-2.1815,-2.2074,-2.2387,-2.2298,-2.2207,-2.226,-2.2233,-2.2415,-2.306,-2.3099,-2.3349,-2.3984,-2.401,-2.4089,-2.4234,-2.4247,-2.4247,-2.4305,-2.4305,-2.4305,-2.4363,-2.4478,-2.4465,-2.4523,-2.4664,-2.4835,-2.4892,-2.4962,-2.5075,-2.5131,-2.5131,-2.5075,-2.5018,-2.5342,-2.5397,-2.5397,-2.5286,-2.523,-2.523,0.0,0.0,0.0,0.0,0.0,0.0,0.0,0.0,0.0,0.0,-0.2478,-0.2682,-0.2905,-0.2984,-0.3108,-0.3422,-0.3527,-0.3656,-0.3788,0.0,0.0,0.0,0.0,-0.6134,-0.6789,-0.7025,-0.7373,-0.7734,-0.862,-0.9653,-1.0755,-1.242,-1.4261,-1.6261,-1.7938,-1.9497,-2.0925,-2.2023,-2.2884,-2.3462,-2.3177,-2.2953,-2.2758,-2.2445,-2.2144,-2.1874,-2.1411,-2.1245,-2.1096,-2.0092,0.0,0.0,0.0,0.0,0.0,0.0,0.0,0.0,0.0,0.0,0.0,0.0,0.0,0.0,0.0,0.0,0.0,0.0,0.0,0.0,0.0,0.0,0.0,0.0,-2.1942,-2.2163,-2.2304,-2.2374,-2.2418,-2.243,-2.2361,-2.2343,-2.2369,-2.2382,-2.2613,-2.3135,-2.3174,-2.3315,-2.3636,-2.3662,-2.3662,-2.3662,-2.3662,-2.3721,-2.3793,-2.3793,-2.3852,-2.3897,-2.3956,-2.4015,-2.4015,-2.4216,-2.4332,-2.4447,-2.4492,-2.4536,-2.4593,-2.4593,-2.4593,-2.4536,0.0,0.0,0.0,0.0,-2.465,-2.4593,0.0,0.0,0.0,0.0,0.0,0.0,0.0,0.0,0.0,0.0,0.0,-0.2704,-0.2763,-0.2902,-0.3034,-0.3117,-0.3262,-0.3322,0.0,0.0,0.0,-0.467,-0.4981,-0.5277,-0.5609,-0.59,-0.6196,-0.6574,-0.7322,-0.8468,-1.0011,-1.1953,-1.4093,-1.6456,-1.8403,-2.0137,-2.1697,-2.2648,-2.3386,-2.4026,-2.4348,-2.3992,-2.3282,-2.3351,-2.297,-2.238,-2.2241,-2.2154,-2.2139,-2.1985,0.0,0.0,0.0,0.0,0.0,0.0,0.0,0.0,0.0,0.0,0.0,0.0,0.0,0.0,0.0,0.0,0.0,0.0,0.0,0.0,0.0,0.0,0.0,0.0,-2.2425,-2.3057,-2.318,-2.2815,-2.2447,-2.224,-2.2185,-2.2265,-2.2521,-2.245,-2.2594,-2.304,-2.3027,-2.3015,-2.3078,-2.3078,0.0,0.0,0.0,-2.315,-2.3343,-2.3343,-2.3403,-2.3509,-2.3497,-2.3509,-2.3569,-2.376,-2.3832,-2.3891,-2.3969,-2.4015,-2.4015,-2.4015,-2.4015,-2.4073,-2.4549,-2.4607,-2.4447,-2.4305,-2.4118,-2.4015,0.0,0.0,0.0,0.0,0.0,0.0,0.0,0.0,0.0,-0.2618,-0.2618,-0.2628,-0.2644,-0.2693,-0.2777,-0.281,-0.2818,-0.2898,0.0,0.0,-0.357,-0.3966,-0.4058,-0.4236,-0.4508,-0.4737,-0.4896,-0.5097,-0.6423,-0.783,-0.9337,-1.1881,-1.4471,-1.7103,-1.9221,-2.1002,-2.2526,-2.3487,-2.4132,-2.4568,-2.4797,-2.4685,-2.4401,-2.4475,-2.4415,-2.4178,-2.3472,-2.3188,-2.3014,-2.2232,-2.1948,-2.1869,-2.1714,0.0,0.0,0.0,0.0,0.0,0.0,0.0,0.0,0.0,0.0,0.0,0.0,0.0,0.0,0.0,0.0,0.0,0.0,0.0,0.0,-2.3138,-2.3063,-2.3036,-2.3137,-2.2815,-2.2693,-2.2871,-2.2824,-2.2695,-2.2687,-2.2243,-2.2206,-2.2763,-2.2392,-2.233,-2.2775,-2.28,-2.28,-2.28,-2.28,-2.28,-2.286,-2.286,-2.286,-2.286,-2.2969,0.0,-2.3198,-2.339,-2.3582,-2.3628,-2.3688,-2.3675,-2.3675,-2.3675,-2.3628,-2.3569,-2.3936,-2.3936,-2.3806,-2.3734,-2.3628,-2.3509,0.0,0.0,0.0,0.0,0.0,0.0,0.0,0.0,0.0,0.0,-0.2734,-0.2706,-0.2614,-0.2708,-0.2756,-0.2726,-0.264,0.0,0.0,-0.2868,-0.3017,-0.3236,-0.3297,-0.3403,-0.3456,-0.3616,-0.3727,-0.3757,-0.4968,-0.6711,-0.8988,-1.1807,-1.4844,-1.8106,-2.0378,-2.2125,-2.3383,-2.4141,-2.467,-2.5004,-2.5144,-2.5149,-2.5038,-2.4986,-2.4917,-2.485,-2.4365,-2.4147,-2.4005,-2.343,-2.3203,-2.312,-2.2942,-2.2792,-2.2524,0.0,0.0,0.0,0.0,0.0,0.0,0.0,0.0,0.0,0.0,0.0,0.0,0.0,0.0,-2.2801,-2.2916,0.0,-2.3218,-2.3286,-2.323,-2.3119,-2.2847,-2.2592,-2.2482,-2.2714,-2.2604,-2.2384,-2.1995,-2.1728,-2.1511,-2.1451,-2.1451,-2.15,-2.1753,-2.2041,-2.2197,-2.2197,-2.2197,-2.2247,-2.2309,-2.2309,-2.2371,-2.2445,-2.2604,-2.2518,-2.2379,-2.2857,-2.2952,-2.2761,-2.3037,-2.315,-2.315,-2.315,-2.3103,-2.3042,-2.3223,-2.3283,-2.3271,-2.3271,-2.315,-2.3042,0.0,0.0,0.0,0.0,0.0,0.0,0.0,0.0,0.0,0.0,-0.2845,-0.279,-0.2656,-0.2783,-0.2796,0.0,0.0,0.0,0.0,-0.2469,-0.2449,-0.2514,-0.2573,-0.2514,-0.2345,-0.2376,-0.2331,-0.2223,-0.3532,-0.5805,-0.8973,-1.2101,-1.5646,-1.9499,-2.1693,-2.3231,-2.4211,-2.4717,-2.5085,-2.5346,-2.5399,-2.5425,-2.542,-2.5263,-2.5139,-2.5053,-2.4975,-2.4907,-2.4802,-2.4629,-2.4479,-2.4375,-2.419,-2.3958,-2.3627,-2.2761,-2.2799,0.0,0.0,0.0,0.0,0.0,0.0,0.0,0.0,0.0,-2.3248,-2.3422,-2.3554,-2.3667,-2.3623,-2.3757,-2.3705,-2.3166,-2.3157,-2.303,-2.2519,-2.2235,-2.2061,-2.2099,-2.1966,-2.1677,-2.1104,-2.089,-2.0582,-2.017,-2.044,-2.0709,-2.0815,-2.1331,-2.1635,-2.1635,-2.1635,-2.1624,-2.1737,-2.18,-2.1815,-2.1906,-2.2017,-2.1862,-2.1366,-2.2042,-2.2065,-2.1743,-2.2297,-2.2592,-2.269,-2.269,-2.2678,-2.2629,-2.2629,-2.2616,-2.2665,-2.2787,-2.2739,-2.2629,0.0,0.0,0.0,0.0,0.0,0.0,0.0,0.0,0.0,0.0,0.0,0.0,0.0,0.0,0.0,0.0,0.0,0.0,-0.2255,-0.2017,-0.1876,-0.1898,-0.1621,-0.1341,-0.1117,-0.0756,-0.0423,-0.0158,-0.2763,-0.5851,-0.9438,-1.332,-1.7471,-2.1703,-2.3047,-2.4069,-2.4822,-2.5182,-2.5388,-2.5486,-2.5488,-2.5527,-2.5585,-2.5559,-2.543,-2.5265,-2.5192,-2.5087,-2.4972,-2.4817,-2.4594,-2.4373,-2.4229,-2.3999,-2.3735,-2.3459,0.0,-2.3168,-2.35,-2.3693,-2.3736,-2.3387,-2.3551,-2.3802,0.0,0.0,-2.425,-2.4278,-2.4422,-2.4415,-2.3865,-2.3917,-2.3923,-2.342,-2.2871,-2.2408,-2.2013,-2.1588,-2.1221,-2.1094,-2.0954,-2.0775,-2.0499,-1.9691,-1.9345,-1.9737,-1.9736,-1.9955,-2.0404,-2.0934,-2.1233,-2.1233,-2.1233,-2.1296,-2.1285,-2.14,-2.1241,-2.0871,-2.0981,-2.0878,-2.0567,-2.073,-2.0892,-2.1052,-2.1731,-2.2235,-2.269,-2.269,-2.2494,-2.2259,-2.2259,-2.2061,-2.1874,-2.2297,-2.2371,-2.2247,0.0,0.0,0.0,0.0,0.0,0.0,0.0,0.0,0.0,0.0,0.0,0.0,0.0,0.0,0.0,0.0,0.0,0.0,-0.1807,-0.1563,-0.1251,-0.0893,-0.0559,-0.0112,0.0557,0.1042,0.0493,-0.1139,-0.3094,-0.6739,-1.1909,-1.5392,-1.9233,-2.3269,-2.4606,-2.5736,-2.6657,-2.6834,-2.6919,-2.6864,-2.6393,-2.6223,-2.619,-2.5715,-2.5508,-2.5457,-2.535,-2.5236,0.0,0.0,-2.4746,-2.4526,-2.4375,-2.4134,-2.3876,-2.3678,-2.375,0.0,-2.4236,-2.4498,-2.4596,-2.4204,-2.4569,-2.492,-2.4698,-2.5047,-2.5282,-2.4912,-2.4905,-2.4791,-2.4106,-2.38,-2.3497,-2.2909,-2.2408,-2.1963,-2.1526,-2.1146,-2.0764,-2.0495,-2.0061,-1.9711,-1.9614,-1.9101,-1.8773,-1.8684,-1.894,-1.9309,-1.9812,-2.0303,-2.056,-2.056,-2.0646,-2.0722,-2.0722,-2.0914,-2.0864,-2.0734,-2.0538,-2.0317,-1.9948,-2.01,-2.044,-2.0937,-2.1224,-2.1632,-2.2135,-2.2135,-2.2011,-2.1886,-2.1886,-2.1824,-2.1698,-2.1937,-2.1937,-2.1886,0.0,0.0,0.0,0.0,0.0,0.0,0.0,0.0,0.0,0.0,0.0,0.0,0.0,0.0,0.0,0.0,0.0,0.0,0.0,-0.0958,-0.0417,0.0279,0.0725,0.0961,0.092,0.1351,0.008,-0.3033,-0.4922,-0.8686,-1.4198,-1.7298,-2.0878,-2.4744,-2.5801,-2.6874,-2.7863,-2.7893,-2.7881,-2.7772,-2.6921,-2.6597,-2.6529,-2.5731,-2.5492,-2.5533,-2.546,-2.535,0.0,0.0,-2.4923,-2.4716,-2.453,-2.4303,-2.4072,-2.4103,-2.4563,-2.5095,-2.505,-2.5289,-2.5444,-2.4991,-2.5329,-2.5695,-2.53,-2.5607,-2.5807,-2.5254,-2.5012,-2.4708,-2.3943,-2.3437,-2.2909,-2.2285,-2.1901,-2.1451,-2.1031,-2.0582,-2.0183,-1.9911,-1.934,-1.8956,-1.8743,-1.8581,-1.8304,-1.7841,-1.8319,-1.8738,-1.9082,-1.9598,-1.9846,-1.9846,-2.0064,-2.0205,-2.0205,-2.0399,-2.0409,-2.0264,-2.0138,-1.9754,-1.9213,-1.9345,-1.9855,-2.0664,-2.0664,-2.1063,-2.1698,-2.1698,-2.1698,-2.1624,-2.1561,-2.1509,-2.1498,-2.1446,-2.1509,-2.1498,0.0,0.0,0.0,0.0,0.0,0.0,0.0,0.0,0.0,0.0,0.0,0.0,0.0,0.0,0.0,0.0,0.0,0.0,0.0,-0.0202,0.0624,0.1501,0.2388,0.1704,-0.0664,-0.0514,-0.2061,-0.5401,-0.8635,-1.2002,-1.5502,-1.8667,-2.2319,-2.6246,-2.642,-2.6978,-2.7797,-2.7742,-2.7704,-2.763,-2.6682,-2.6355,-2.6329,-2.5592,-2.5345,-2.5406,-2.5485,0.0,0.0,0.0,-2.505,-2.4877,-2.4734,-2.4513,0.0,-2.497,-2.5805,-2.6437,-2.6057,-2.6165,-2.6245,-2.5721,-2.5711,-2.5761,-2.5559,-2.5595,-2.5592,-2.5301,-2.4751,-2.406,-2.3245,-2.2775,-2.2285,-2.1776,-2.1273,-2.0839,-2.0464,-1.9944,-1.9539,-1.9351,-1.8998,-1.8604,-1.8155,-1.802,-1.7822,-1.7626,-1.8133,-1.8413,-1.8423,-1.8968,-1.9341,-1.9341,-1.9539,-1.9605,-1.9605,-1.9802,-1.9641,-1.9125,-1.9471,-1.9149,-1.8209,-1.8181,-1.8904,-2.0135,-2.0135,-2.0734,-2.1698,-2.1698,-2.1624,-2.14,-2.1285,-2.1094,-2.0903,-2.0797,-2.0914,-2.1169,0.0,0.0,0.0,0.0,0.0,0.0,0.0,0.0,0.0,0.0,0.0,0.0,0.0,0.0,0.0,0.0,0.0,0.0,0.0,0.0892,0.0965,-0.0073,0.0448,-0.0418,-0.3001,-0.3212,-0.5128,-0.8881,-1.1063,-1.4399,-1.8805,-2.107,-2.3484,-2.5982,-2.6206,-2.6797,-2.7603,-2.7527,-2.7457,-2.7316,-2.6494,-2.6148,-2.6067,-2.5354,-2.5126,-2.5222,0.0,0.0,0.0,0.0,0.0,-2.5086,-2.4949,-2.4752,-2.4752,-2.5713,-2.6465,-2.7014,-2.704,-2.6847,-2.6453,-2.5811,-2.5616,-2.5407,-2.4881,-2.4723,-2.4427,-2.373,-2.3352,-2.2885,-2.2088,-2.1848,-2.1588,-2.1083,-2.0495,-2.0118,-1.9878,-1.9407,-1.8998,-1.8787,-1.8596,-1.8277,-1.785,-1.7765,-1.7644,-1.758,-1.7666,-1.7885,-1.8308,-1.8536,-1.8674,-1.8751,-1.8942,-1.9075,-1.9075,-1.9341,-1.9399,-1.924,-1.9371,-1.9131,-1.8566,-1.8684,-1.927,-2.0171,-2.0171,-2.0549,-2.1169,-2.1169,-2.1106,-2.0914,-2.0914,-2.085,-2.0722,-2.0442,-2.0366,-2.0495,0.0,0.0,0.0,0.0,0.0,0.0,0.0,0.0,0.0,0.0,0.0,0.0,0.0,0.0,0.0,0.0,0.0,0.0,0.0,0.0,0.0508,-0.0535,-0.1259,-0.3057,-0.6025,-0.664,-0.8943,-1.3066,-1.4697,-1.7376,-2.0993,-2.2524,-2.4117,-2.5703,-2.5954,-2.6533,-2.7358,-2.7261,-2.718,-2.7023,-2.6197,-2.586,-2.5785,-2.5096,-2.4858,0.0,0.0,0.0,0.0,0.0,-2.5406,-2.5287,-2.5139,-2.5348,-2.5807,-2.6745,-2.7337,-2.7738,-2.767,-2.7178,-2.6488,-2.5779,-2.5424,-2.5011,-2.4218,-2.3892,-2.3537,-2.2564,-2.2031,-2.1555,-2.0772,-2.065,-2.0545,-1.9984,-1.9738,-1.9452,-1.9264,-1.8808,-1.8395,-1.8114,-1.7988,-1.7784,-1.7442,-1.7331,-1.7302,-1.7521,-1.7455,-1.7581,-1.7988,-1.8066,-1.8134,-1.8202,-1.8405,-1.8549,-1.8607,-1.8808,-1.9008,-1.9208,-1.9072,-1.8942,-1.8826,-1.8945,-1.9315,-1.9992,-2.0053,-2.0398,-2.085,-2.085,-2.0722,-2.0604,-2.0529,-2.0464,-2.0399,-2.0053,-1.9911,-1.9922,0.0,0.0,0.0,0.0,0.0,0.0,0.0,0.0,0.0,0.0,0.0,0.0,0.0,0.0,0.0,0.0,0.0,0.0,0.0,0.0,0.0,-0.0265,-0.2877,-0.608,-0.9751,-1.0776,-1.3351,-1.7607,-1.9291,-2.0749,-2.2061,-2.3041,-2.4197,-2.5428,-2.5633,-2.6187,-2.6933,-2.6823,-2.6749,-2.6656,-2.5763,-2.5448,-2.5431,-2.4741,0.0,0.0,0.0,0.0,0.0,0.0,0.0,-2.555,-2.5409,-2.6288,-2.7478,-2.7997,-2.8421,-2.8603,-2.7974,-2.722,-2.6403,-2.5577,-2.5092,-2.4537,-2.3525,-2.3214,-2.2816,-2.1631,-2.092,-2.0203,0.0,0.0,-1.9154,-1.8691,-1.8874,-1.8834,-1.8509,-1.8192,-1.7803,-1.7382,-1.7235,-1.7107,-1.6908,-1.6682,-1.6821,-1.7392,-1.7401,-1.747,-1.747,-1.7579,-1.7638,-1.7638,-1.7862,-1.8076,-1.8269,-1.8269,-1.8539,-1.9065,-1.8585,-1.8636,-1.9062,-1.8848,-1.9065,-1.9618,-1.9839,-2.018,-2.0669,-2.0669,-2.054,-2.0335,-2.0118,-1.9987,-1.9868,-1.9671,-1.955,-1.955,0.0,0.0,0.0,0.0,0.0,0.0,0.0,0.0,0.0,0.0,0.0,0.0,0.0,0.0,0.0,0.0,0.0,0.0,0.0,0.0,0.0,0.0,0.0,0.0,0.0,0.0,0.0,0.0,0.0,-2.1608,-2.2539,-2.3194,-2.3822,-2.4386,-2.4542,-2.4709,-2.4856,-2.478,-2.4684,-2.4563,0.0,-2.421,-2.4153,0.0,0.0,0.0,0.0,0.0,0.0,0.0,0.0,-2.6455,-2.6379,-2.7364,-2.8553,-2.8428,-2.8686,-2.8824,-2.8021,-2.7217,-2.6335,-2.5297,-2.4333,-2.3378,-2.2358,-2.1435,-2.0617,-1.9801,-1.9297,-1.8758,-1.8071,-1.797,-1.7968,-1.7954,-1.777,-1.7627,-1.7668,-1.751,0.0,-1.6881,0.0,-1.6482,-1.6342,-1.6123,-1.6044,-1.6184,-1.6473,-1.6691,-1.6821,-1.6881,-1.695,-1.7107,-1.7314,-1.7442,-1.751,-1.7716,-1.8056,-1.8472,-1.8475,-1.869,-1.9097,-1.9112,-1.9382,-1.9814,-1.9878,-1.9955,-2.0064,-2.0064,-2.0009,-1.9802,-1.9605,-1.9473,-1.9417,-1.9142,-1.9008,-1.9008,0.0,0.0,0.0,0.0,0.0,0.0,0.0,0.0,0.0,0.0,0.0,0.0,0.0,0.0,0.0,0.0,0.0,0.0,0.0,0.0,0.0,0.0,0.0,0.0,0.0,0.0,0.0,0.0,0.0,0.0,0.0,-2.3289,-2.3642,-2.3873,-2.3958,-2.3921,-2.3821,0.0,0.0,0.0,0.0,0.0,0.0,0.0,0.0,0.0,0.0,0.0,0.0,0.0,0.0,-2.6854,-2.7204,-2.8096,-2.9002,-2.902,-2.9005,-2.8777,-2.7875,-2.6946,-2.5988,-2.4784,-2.3533,-2.2395,-2.1363,-2.0064,-1.8848,-1.809,-1.7386,-1.6727,-1.6316,-1.6257,-1.6402,0.0,0.0,0.0,-1.681,-1.6858,-1.6682,0.0,-1.5991,0.0,-1.5568,-1.5417,-1.5267,-1.5267,-1.5771,-1.6123,-1.6254,-1.6254,-1.6324,-1.6403,-1.6612,-1.6821,-1.6959,-1.7295,-1.7647,-1.793,-1.8046,-1.8385,-1.8741,-1.8865,-1.9131,-1.9407,-1.9539,-1.9539,-1.9539,-1.9539,-1.9407,-1.9208,-1.9142,-1.9019,-1.8952,-1.8674,-1.8607,-1.8539,0.0,0.0,0.0,0.0,0.0,0.0,0.0,0.0,0.0,0.0,0.0,0.0,0.0,0.0,0.0,0.0,0.0,0.0,0.0,0.0,0.0,0.0,0.0,0.0,0.0,0.0,0.0,0.0,0.0,0.0,0.0,0.0,0.0,0.0,0.0,0.0,0.0,0.0,0.0,0.0,0.0,0.0,0.0,0.0,0.0,0.0,0.0,0.0,0.0,0.0,-2.5588,-2.7051,-2.7829,-2.8548,-2.9187,-2.9517,-2.92,-2.8499,-2.7537,-2.6471,-2.5357,-2.4092,-2.2714,-2.1431,-2.0367,-1.8855,-1.7456,-1.6574,-1.55,-1.4666,-1.4453,-1.4477,-1.4662,-1.4894,0.0,-1.6033,-1.5959,-1.6058,-1.6009,-1.5726,-1.5355,-1.4999,-1.4864,-1.4649,-1.4497,-1.4497,-1.5133,-1.5551,-1.5621,-1.5621,-1.5692,-1.5692,-1.5912,-1.6202,-1.6533,-1.689,-1.7097,-1.7304,-1.751,-1.7784,-1.8202,-1.8317,-1.8519,-1.8674,-1.8942,-1.9008,-1.9008,-1.9008,-1.8942,-1.8741,-1.8674,-1.8539,-1.8405,-1.8269,-1.8202,-1.8134,0.0,0.0,0.0,0.0,0.0,0.0,0.0,0.0,0.0,0.0,0.0,0.0,0.0,0.0,0.0,0.0,0.0,0.0,0.0,0.0,0.0,0.0,0.0,0.0,0.0,0.0,0.0,0.0,0.0,0.0,0.0,0.0,0.0,0.0,0.0,0.0,0.0,0.0,0.0,0.0,0.0,0.0,0.0,0.0,0.0,0.0,0.0,0.0,0.0,0.0,-2.5279,-2.7656,-2.7801,-2.8722,-2.9679,-2.9308,-2.8746,-2.7995,-2.6857,-2.5749,-2.4524,-2.304,-2.1627,-2.0213,-1.8832,-1.7537,0.0,-1.5416,-1.4533,-1.3863,-1.3451,-1.3408,-1.3579,-1.3804,-1.4186,-1.4634,-1.5129,-1.5061,-1.5005,0.0,-1.4721,-1.4497,-1.4497,-1.4145,-1.3935,-1.3935,-1.3928,-1.4137,-1.4776,-1.4784,-1.4991,-1.5267,-1.5497,-1.578,-1.6202,-1.6272,-1.6403,-1.6742,-1.6968,-1.7245,-1.7579,-1.7774,-1.792,-1.8144,-1.8337,-1.8472,-1.8472,-1.8539,-1.8549,-1.8337,-1.8212,-1.7998,-1.7852,-1.7666,-1.7666,-1.7608,0.0,0.0,0.0,0.0,0.0,0.0,0.0,0.0,0.0,0.0,-0.6936,-0.6142,0.0,0.0,0.0,0.0,0.0,0.0,0.0,0.0,0.0,0.0,0.0,0.0,0.0,0.0,-1.8768,-1.958,0.0,0.0,0.0,-2.0872,-2.0872,-2.085,0.0,0.0,0.0,0.0,0.0,0.0,0.0,0.0,0.0,0.0,0.0,0.0,0.0,0.0,0.0,0.0,-2.1393,-2.3239,-2.6305,-2.8097,-2.8968,-2.8424,-2.7763,-2.6974,-2.5773,-2.4602,-2.3368,-2.1867,-2.0502,-1.9086,-1.7583,0.0,0.0,-1.4024,-1.3138,-1.2438,-1.227,-1.2125,0.0,-1.273,-1.3119,-1.3479,-1.395,-1.415,-1.4242,-1.4206,-1.403,-1.3928,-1.3775,-1.3492,-1.3346,-1.3346,-1.3273,-1.3492,-1.4145,-1.4281,-1.4489,-1.4776,-1.4927,-1.5141,-1.5497,-1.5709,-1.585,-1.6053,-1.6342,-1.6621,-1.683,-1.7019,-1.7235,-1.7451,-1.7657,-1.7716,-1.7725,-1.794,-1.794,-1.7872,-1.7657,-1.751,-1.7442,-1.7107,-1.7038,-1.7038,0.0,0.0,0.0,0.0,0.0,0.0,0.0,-0.6463,-0.7658,-0.8198,-0.9501,-1.0091,-0.9467,-0.8215,0.0,0.0,0.0,0.0,0.0,0.0,0.0,0.0,0.0,0.0,0.0,0.0,0.0,-1.9016,-1.9187,0.0,0.0,0.0,0.0,0.0,-1.9981,-1.9706,0.0,0.0,0.0,0.0,0.0,-1.9561,0.0,0.0,0.0,0.0,0.0,0.0,0.0,0.0,-1.7076,-1.8521,-2.3482,-2.6172,-2.7384,-2.6894,-2.6326,-2.5615,-2.4398,-2.3238,-2.1995,-2.0562,-1.9162,-1.7737,-1.6213,-1.492,0.0,-1.266,-1.1771,-1.1158,-1.1084,-1.0977,-1.1036,0.0,-1.2035,-1.2421,-1.2703,-1.3158,-1.3462,-1.3399,-1.3371,0.0,-1.3112,-1.29,-1.2746,-1.2673,-1.2673,-1.2973,-1.3572,-1.3775,-1.3985,-1.4217,-1.4353,-1.4577,-1.4792,-1.5141,-1.5363,-1.5363,-1.578,-1.5991,-1.6132,-1.6333,-1.6542,-1.6691,-1.6899,-1.7028,-1.7028,-1.7254,-1.7323,-1.7323,-1.7097,-1.7028,-1.6959,-1.6673,-1.6542,-1.6542,0.0,0.0,0.0,0.0,0.0,0.0,0.0,-0.6739,-0.8312,-0.9386,-1.1215,-1.3126,-1.5017,-1.3512,0.0,0.0,0.0,0.0,0.0,0.0,0.0,0.0,0.0,0.0,0.0,0.0,0.0,-1.8374,-1.847,0.0,0.0,0.0,0.0,0.0,0.0,-1.7709,-1.7337,-1.795,0.0,0.0,0.0,0.0,0.0,0.0,0.0,0.0,0.0,0.0,0.0,0.0,0.0,-1.6898,-1.8751,-2.1869,-2.477,-2.4345,0.0,0.0,-2.2747,-2.1657,-2.045,-1.8988,-1.752,-1.6031,-1.458,0.0,-1.2391,-1.1447,-1.0989,-1.0624,-1.0192,-1.0287,-1.0453,-1.0357,0.0,-1.1352,-1.1685,-1.1911,-1.2217,-1.2803,0.0,0.0,-1.2645,-1.2452,-1.2305,-1.2077,-1.2077,-1.2378,-1.2973,-1.3193,-1.3339,-1.3572,-1.379,-1.408,-1.4425,-1.4569,-1.4784,-1.4935,-1.5363,-1.5568,-1.5568,-1.5762,-1.5903,-1.5903,-1.6263,-1.6412,-1.6412,-1.6769,-1.683,-1.6673,-1.6673,-1.6542,-1.6412,-1.6342,-1.6342,-1.6342,0.0,0.0,0.0,0.0,0.0,0.0,0.0,-0.6555,-0.8267,-1.0021,-1.2094,-1.4278,-1.6478,-1.6664,-1.6447,0.0,0.0,0.0,0.0,0.0,0.0,0.0,0.0,0.0,0.0,0.0,-1.8391,-1.8469,-1.9021,0.0,0.0,0.0,0.0,0.0,0.0,-1.8375,-1.7666,-1.7647,0.0,0.0,0.0,0.0,0.0,0.0,0.0,0.0,0.0,0.0,-0.7493,0.0,0.0,0.0,-1.4327,-1.6884,0.0,0.0,-2.1713,-2.1296,-2.0681,-1.9788,-1.8754,-1.7566,-1.625,-1.4884,-1.3551,0.0,-1.1774,-1.0791,-1.0237,-0.9899,-0.9791,-0.957,-0.9553,-0.9835,0.0,0.0,-1.0838,-1.0989,-1.1276,-1.1744,-1.1905,-1.1984,-1.205,-1.2003,-1.1929,-1.1855,-1.1855,-1.1929,-1.2157,-1.2599,-1.29,-1.3119,-1.3346,-1.3564,-1.3855,-1.4,-1.4217,-1.4425,-1.4713,-1.4856,-1.4856,-1.4991,-1.5133,-1.5284,-1.5559,-1.5709,-1.585,-1.6123,-1.6193,-1.6114,-1.5982,-1.5921,-1.578,-1.57,-1.563,-1.563,0.0,0.0,0.0,0.0,0.0,0.0,-0.4986,-0.6455,-0.8187,-1.0235,-1.249,-1.4694,-1.6734,-1.819,-1.9021,-1.9124,0.0,0.0,0.0,0.0,0.0,0.0,0.0,0.0,0.0,0.0,-1.8804,-1.9109,-1.9717,-2.013,0.0,0.0,-2.0811,-2.0518,0.0,0.0,0.0,0.0,0.0,0.0,0.0,0.0,0.0,0.0,0.0,0.0,0.0,0.0,0.0,0.0,0.0,0.0,0.0,0.0,0.0,0.0,-1.8962,-1.869,-1.8319,-1.7635,-1.6764,-1.5801,-1.4658,-1.3515,0.0,0.0,-1.0926,-1.0077,-0.9557,-0.9254,-0.9234,-0.8954,-0.883,0.0,0.0,-0.9469,-0.9973,-1.0179,-1.0489,-1.1002,-1.1191,-1.1384,-1.152,-1.1409,-1.1335,-1.1335,-1.1335,-1.1335,-1.1409,-1.1855,-1.2224,-1.2599,-1.282,-1.3046,-1.32,-1.3492,-1.371,-1.3848,-1.4065,-1.4145,-1.4217,-1.4289,-1.4497,-1.4641,-1.4856,-1.5062,-1.5213,-1.5417,-1.5559,-1.5559,-1.5426,-1.5426,-1.5355,-1.5275,-1.5204,-1.5204,0.0,0.0,0.0,0.0,0.0,0.0,0.0,-0.6565,-0.822,-0.998,-1.2415,-1.4608,-1.6234,-1.7959,-1.9241,-1.9833,0.0,0.0,0.0,0.0,0.0,0.0,0.0,0.0,0.0,0.0,-1.9432,-2.0281,-2.03,-2.0699,-2.1479,-2.1348,-2.1151,-2.0859,0.0,0.0,0.0,0.0,0.0,0.0,0.0,0.0,0.0,0.0,0.0,0.0,0.0,0.0,0.0,0.0,0.0,0.0,0.0,0.0,0.0,0.0,-1.5938,-1.6148,-1.5655,-1.506,-1.4347,-1.3619,-1.269,-1.1727,0.0,-1.0393,-0.9805,-0.9169,-0.8997,-0.8905,-0.8477,-0.8427,-0.842,-0.8435,-0.8658,0.0,-0.9163,-0.9522,-1.0021,-1.0784,-1.0748,-1.075,-1.1063,-1.0738,-1.0519,-1.0519,-1.0519,-1.0594,-1.0812,-1.0812,-1.1186,-1.2003,-1.2224,-1.2378,-1.2599,-1.3046,-1.32,-1.32,-1.3419,-1.3645,-1.3797,-1.3797,-1.3928,-1.4129,-1.4353,-1.4433,-1.4425,-1.4792,-1.4935,-1.4935,-1.5133,-1.5204,-1.5204,-1.5204,-1.5204,-1.5204,0.0,0.0,0.0,0.0,0.0,0.0,0.0,-0.5809,-0.7321,-0.9271,-1.1629,-1.3812,-1.572,-1.7485,-1.8826,-1.9554,0.0,0.0,0.0,0.0,0.0,0.0,0.0,0.0,0.0,0.0,-1.9843,-2.0707,-2.1261,-2.1946,-2.2728,-2.3205,-2.327,-2.2977,-2.2331,-2.0096,0.0,0.0,0.0,0.0,0.0,0.0,-0.587,0.0,0.0,0.0,0.0,0.0,0.0,0.0,0.0,0.0,0.0,0.0,0.0,0.0,0.0,0.0,-1.3922,-1.3591,-1.3114,-1.2457,-1.1701,-1.1024,-1.0485,-0.9851,-0.922,-0.8827,-0.8318,-0.8017,-0.8234,-0.7907,-0.7784,-0.8193,-0.8123,0.0,0.0,0.0,0.0,-1.0018,-1.036,-1.0563,-1.0651,-1.0594,-1.0443,-1.0293,-1.0293,-1.0293,-1.0368,-1.0368,-1.0656,-1.1288,-1.1354,-1.1481,-1.164,-1.1982,-1.2155,-1.2298,-1.2722,-1.29,-1.2973,-1.3119,-1.3266,-1.3484,-1.3557,-1.371,-1.4008,-1.408,-1.4217,-1.4353,-1.4418,-1.4418,-1.4418,-1.4418,-1.4418,-1.4418,0.0,0.0,0.0,0.0,0.0,0.0,0.0,-0.5368,-0.6671,-0.8446,-1.0623,-1.2782,-1.4797,-1.6554,-1.8002,-1.9072,0.0,0.0,0.0,0.0,0.0,0.0,0.0,0.0,0.0,-1.9791,-2.0371,-2.1553,-2.2037,-2.2867,-2.3995,-2.4423,-2.4511,-2.4228,-2.3528,-2.115,0.0,0.0,0.0,0.0,0.0,0.0,-0.4934,0.0,0.0,0.0,0.0,0.0,0.0,0.0,0.0,0.0,0.0,0.0,0.0,0.0,-1.0187,-1.1443,0.0,-1.1791,-1.1456,-1.1042,-1.0601,0.0,0.0,-0.9073,-0.8587,-0.8125,-0.7636,-0.7432,-0.7707,-0.7462,-0.7284,-0.7759,-0.7757,-0.78,-0.8159,-0.8235,-0.8504,-0.9391,-0.9851,-1.0143,-1.0067,-1.0067,-0.9992,-0.9846,-0.9846,-0.9804,-0.9787,-0.9782,-0.9851,-1.0084,-1.0545,-1.0812,-1.0823,-1.1058,-1.1217,-1.1429,-1.186,-1.2065,-1.2217,-1.2471,-1.2673,-1.2893,-1.2973,-1.3119,0.0,-1.3499,-1.3637,-1.3775,-1.3848,-1.3848,-1.3848,-1.3848,-1.3848,-1.3848,0.0,0.0,0.0,0.0,0.0,0.0,0.0,0.0,0.0,0.0,-0.952,-1.1572,-1.3522,-1.5266,-1.688,0.0,0.0,0.0,0.0,0.0,0.0,0.0,0.0,0.0,0.0,-2.0103,-2.0925,-2.2604,-2.2604,-2.345,-2.5098,-2.504,-2.4898,-2.4652,-2.3688,-2.172,0.0,0.0,0.0,0.0,0.0,0.0,0.0,0.0,0.0,0.0,0.0,0.0,0.0,0.0,0.0,0.0,0.0,0.0,0.0,0.0,0.0,0.0,0.0,-0.9696,-0.9494,-0.9475,-0.929,-0.8968,0.0,0.0,0.0,0.0,-0.7031,-0.697,-0.705,-0.6971,-0.6955,-0.7233,-0.74,-0.7578,-0.7704,-0.7915,-0.827,-0.8783,-0.9264,-0.9468,-0.9246,-0.9236,-0.9221,-0.9221,-0.921,-0.9105,-0.8968,-0.8958,-0.8832,-0.8544,-0.9715,-1.0189,-1.0008,-1.0164,-1.0378,-1.0591,-1.0858,-1.1209,-1.152,-1.178,-1.2057,-1.2231,-1.2452,-1.2526,-1.2599,-1.2973,-1.3119,-1.3193,-1.3346,-1.3419,-1.3419,-1.3419,-1.3419,-1.3419,0.0,0.0,0.0,0.0,0.0,0.0,0.0,0.0,0.0,0.0,0.0,-1.0508,-1.2121,-1.419,0.0,0.0,0.0,0.0,0.0,0.0,0.0,0.0,0.0,0.0,0.0,-2.0098,-2.0917,-2.2597,-2.2656,-2.3515,-2.5097,-2.5076,-2.4973,-2.4744,-2.4054,-2.0887,0.0,0.0,0.0,0.0,0.0,0.0,0.0,0.0,0.0,0.0,-0.6988,-0.754,0.0,0.0,0.0,0.0,0.0,0.0,0.0,0.0,-0.7709,-0.786,-0.8101,0.0,-0.8699,-0.8435,-0.8311,-0.82,0.0,0.0,0.0,0.0,0.0,0.0,0.0,0.0,-0.6746,-0.6822,-0.69,-0.6957,-0.7042,-0.7618,-0.8122,-0.8272,-0.867,-0.8856,-0.8856,-0.8716,-0.8546,-0.8388,-0.8321,-0.8217,-0.8165,-0.8165,-0.8117,-0.7996,-0.8284,-0.8575,-0.8882,-0.9125,-0.9355,-0.9558,-0.9944,-1.0384,-1.0803,-1.1009,-1.129,-1.1632,-1.1632,-1.1855,-1.215,-1.2224,-1.2378,-1.2526,-1.2753,-1.2746,-1.2599,-1.2746,-1.2673,-1.2599,0.0,0.0,0.0,0.0,0.0,0.0,0.0,0.0,0.0,0.0,0.0,0.0,0.0,0.0,0.0,0.0,0.0,0.0,0.0,0.0,0.0,0.0,0.0,0.0,-1.9869,-1.9898,-2.0723,-2.2365,-2.2372,-2.3223,-2.4815,-2.4756,-2.462,-2.4366,-2.294,0.0,0.0,0.0,0.0,0.0,-0.8835,0.0,0.0,0.0,0.0,0.0,-0.8396,-0.8528,0.0,-0.8293,-0.814,-0.7983,0.0,0.0,0.0,0.0,-0.737,-0.7363,-0.7408,-0.7757,-0.8066,-0.7923,-0.7913,-0.7882,0.0,0.0,0.0,0.0,0.0,0.0,0.0,0.0,0.0,-0.6363,-0.6482,-0.6547,-0.6582,-0.7123,-0.7446,-0.7446,-0.7717,-0.7903,-0.7903,-0.781,-0.7748,-0.7599,-0.7507,-0.7412,-0.732,-0.7316,-0.7298,-0.7176,-0.7167,-0.7446,-0.8052,-0.8169,-0.8363,-0.8501,-0.8999,-0.9386,-0.9665,-1.0039,-1.0434,-1.0722,-1.0914,-1.1186,-1.1484,-1.1558,-1.1706,-1.1929,-1.2003,-1.2003,-1.2003,-1.215,-1.2077,-1.1874,0.0,0.0,0.0,0.0,0.0,0.0,0.0,0.0,0.0,0.0,0.0,0.0,0.0,0.0,0.0,0.0,0.0,0.0,0.0,0.0,0.0,0.0,0.0,-1.943,-1.9442,-1.95,-2.0327,-2.1935,-2.1878,-2.2701,-2.4298,-2.4173,-2.3942,-2.3547,-2.1353,-1.9354,0.0,0.0,-1.375,-1.2106,-1.1455,0.0,0.0,0.0,0.0,0.0,0.0,0.0,0.0,-0.8623,-0.8314,-0.8034,-0.7638,0.0,0.0,0.0,0.0,0.0,-0.7209,-0.7358,-0.7571,-0.7582,-0.7692,-0.7672,-0.7243,0.0,0.0,0.0,0.0,0.0,0.0,-0.6147,0.0,0.0,-0.6024,-0.6162,-0.624,-0.6431,-0.6539,-0.6539,-0.6698,-0.6809,-0.6809,-0.6785,-0.6766,-0.6766,-0.6746,-0.6662,-0.6507,-0.6499,-0.6431,-0.6226,-0.6218,-0.6548,-0.7195,-0.7265,-0.7396,-0.7536,-0.7974,-0.8275,-0.8451,-0.9053,-0.9491,-0.9801,-1.0148,-1.0404,-1.0663,-1.0887,-1.1037,-1.1186,-1.126,-1.1335,-1.1484,-1.1558,-1.1409,-1.1309,0.0,0.0,0.0,0.0,0.0,0.0,0.0,0.0,0.0,0.0,0.0,0.0,0.0,0.0,0.0,0.0,0.0,0.0,0.0,0.0,0.0,0.0,-1.8263,-1.8695,-1.8744,-1.8761,-1.9556,-2.1171,-2.1152,-2.195,-2.3487,-2.3343,-2.2835,-2.2004,-2.0844,-1.9537,-1.8082,-1.6809,-1.5472,-1.4204,-1.3453,0.0,0.0,0.0,0.0,0.0,0.0,0.0,0.0,-0.9283,-0.8867,-0.853,-0.8051,0.0,0.0,0.0,0.0,0.0,-0.7251,-0.725,-0.7267,-0.7206,-0.7217,-0.7161,-0.6966,0.0,0.0,0.0,0.0,0.0,0.0,-0.5889,-0.5753,0.0,-0.5343,-0.535,-0.5533,-0.5688,-0.5779,-0.5779,-0.5923,-0.609,-0.609,-0.5895,-0.5818,-0.5818,-0.5702,-0.5621,-0.5596,-0.5593,-0.5586,-0.5561,-0.5561,-0.5624,-0.569,-0.6284,-0.6679,-0.6872,-0.7038,-0.7336,-0.7768,-0.7976,-0.8483,-0.9129,-0.9233,-0.9511,-1.0067,-1.0067,-1.0218,-1.0363,-1.0594,-1.0663,-1.0663,-1.0887,-1.0812,-1.0732,0.0,0.0,0.0,0.0,0.0,0.0,0.0,0.0,0.0,0.0,0.0,0.0,0.0,0.0,0.0,0.0,0.0,0.0,0.0,0.0,0.0,-1.6638,-1.7044,-1.7485,-1.7935,-1.7997,-1.8745,-2.0298,-2.0293,-2.1066,-2.2531,-2.2339,-2.1843,-2.1132,-2.0387,-1.9432,-1.8416,-1.7354,-1.6343,-1.5344,0.0,0.0,0.0,0.0,0.0,0.0,0.0,0.0,0.0,0.0,-0.9129,-0.8538,-0.8206,0.0,0.0,0.0,0.0,0.0,-0.7377,-0.7251,-0.724,-0.7288,-0.7304,-0.7279,-0.7063,0.0,0.0,0.0,0.0,0.0,0.0,0.0,-0.5408,-0.5012,-0.4858,-0.482,-0.4815,-0.4873,-0.491,-0.491,-0.4968,-0.5005,-0.5005,-0.4947,-0.491,-0.491,-0.4855,-0.4821,-0.4821,-0.4821,-0.4821,-0.4821,-0.4821,-0.4821,-0.4821,-0.5087,-0.5484,-0.6017,-0.6218,-0.6461,-0.6672,-0.7043,-0.7586,-0.8226,-0.8344,-0.8733,-0.9236,-0.9236,-0.9463,-0.9695,-0.9846,-0.9992,-1.0143,-1.0143,-1.0149,-1.0236,0.0,0.0,0.0,0.0,0.0,0.0,0.0,0.0,0.0,0.0,0.0,0.0,0.0,0.0,0.0,0.0,0.0,0.0,0.0,0.0,-1.5883,-1.6009,-1.5994,-1.6374,-1.7134,-1.719,-1.7864,-1.9204,-1.9376,-2.0174,-2.1592,-2.1368,-2.1007,-2.0514,-1.9965,-1.9266,-1.8511,-1.7625,-1.6808,-1.6076,0.0,0.0,0.0,0.0,0.0,0.0,0.0,0.0,0.0,0.0,0.0,0.0,0.0,0.0,0.0,-0.7953,-0.7829,-0.7712,-0.7461,-0.7293,-0.7231,-0.7442,0.0,-0.7388,-0.7212,0.0,0.0,0.0,0.0,0.0,0.0,-0.5362,-0.4987,-0.4463,-0.4347,-0.4292,-0.409,-0.4023,-0.4023,-0.4023,-0.4023,-0.4023,-0.4023,-0.4023,-0.4023,-0.4023,-0.4023,-0.4023,-0.4023,-0.4023,-0.4023,-0.4023,-0.4023,-0.4023,-0.4023,-0.4023,-0.4422,-0.516,-0.5491,-0.5627,-0.5631,-0.615,-0.6712,-0.7244,-0.7436,-0.7847,-0.833,-0.8376,-0.8632,-0.9018,-0.9018,-0.9241,-0.9614,-0.9468,-0.9535,-0.9759,0.0,0.0,0.0,0.0,0.0,0.0,0.0,0.0,0.0,0.0,0.0,0.0,0.0,0.0,0.0,0.0,0.0,0.0,0.0,0.0,-1.5388,-1.5433,-1.5448,-1.5754,-1.6367,-1.6394,-1.6835,-1.7741,-1.8361,-1.9357,-2.0681,-2.0613,-2.0392,-2.0025,-1.9588,-1.9109,-1.8461,-1.7747,-1.7102,-1.6423,-1.5812,0.0,0.0,0.0,0.0,0.0,0.0,0.0,0.0,0.0,0.0,0.0,0.0,0.0,-0.8332,-0.807,-0.7946,-0.7836,-0.7496,-0.7293,-0.7231,-0.7442,-0.7398,0.0,-0.7436,-0.7289,0.0,-0.649,0.0,0.0,0.0,-0.5086,-0.4475,-0.3918,-0.3694,-0.3498,-0.3293,-0.3293,-0.3293,-0.3293,-0.3293,-0.3293,-0.3293,-0.3293,-0.3293,-0.3293,-0.3293,-0.3293,-0.3293,-0.3293,-0.3293,-0.3293,-0.3293,-0.3293,-0.3293,-0.3293,-0.3625,-0.4353,-0.4694,-0.4897,-0.4897,-0.5306,-0.5659,-0.6022,-0.6395,-0.6707,-0.7174,-0.7491,-0.7791,-0.8178,-0.8178,-0.8403,-0.878,-0.8775,-0.8918,-0.9137,0.0,0.0,0.0,0.0,0.0,0.0,0.0,0.0,0.0,0.0,0.0,0.0,0.0,0.0,0.0,0.0,0.0,0.0,0.0,0.0,-1.4963,-1.5011,-1.5041,-1.5118,-1.5344,-1.5638,-1.6185,-1.6984,-1.8206,-1.905,-1.9556,-1.9901,-1.9925,-1.9596,-1.9236,-1.8808,-1.8344,-1.772,-1.7102,-1.6552,-1.5957,-1.5424,0.0,0.0,0.0,0.0,0.0,0.0,0.0,0.0,-0.9984,-0.9096,0.0,-0.861,-0.8398,-0.8103,-0.7946,-0.7836,-0.7496,-0.7346,-0.7326,-0.7352,-0.7328,0.0,0.0,-0.7252,-0.6874,-0.649,-0.6055,0.0,0.0,-0.4683,-0.4263,-0.3692,-0.3471,-0.3161,-0.2758,-0.2691,-0.2691,-0.2555,-0.2555,-0.2555,-0.2555,-0.2555,-0.2555,-0.2555,-0.2555,-0.2555,-0.2555,-0.2555,-0.2555,-0.2555,-0.2555,-0.2555,-0.2555,-0.2555,-0.269,-0.3023,-0.3825,-0.4159,-0.4159,-0.4556,-0.4898,-0.5246,-0.5596,-0.5888,-0.6261,-0.6565,-0.6865,-0.7176,-0.7411,-0.7642,-0.7791,-0.7791,-0.7756,-0.7783,0.0,0.0,0.0,0.0,0.0,0.0,0.0,0.0,0.0,0.0,0.0,0.0,0.0,0.0,0.0,0.0,0.0,0.0,0.0,-1.388,-1.4651,-1.4683,-1.47,-1.4732,-1.4732,-1.5013,-1.5488,-1.6095,-1.7614,-1.8489,-1.8698,-1.9289,-1.9457,-1.9176,-1.8936,-1.8592,-1.8187,-1.7639,-1.7144,-1.6637,-1.6044,-1.5513,0.0,0.0,0.0,0.0,0.0,0.0,0.0,0.0,-1.0155,0.0,0.0,0.0,-0.8398,-0.807,-0.7912,-0.7753,-0.737,-0.7255,-0.7283,0.0,0.0,0.0,-0.7351,-0.709,-0.6712,-0.6327,-0.5775,-0.5178,-0.4619,0.0,-0.3957,-0.3411,-0.3094,-0.2758,-0.2288,-0.2154,-0.208,-0.1994,-0.1925,-0.1919,-0.1903,-0.1902,-0.1835,-0.1835,-0.1835,-0.1835,-0.1835,-0.1835,-0.1843,-0.1858,-0.1859,-0.1867,-0.1884,-0.1884,-0.1884,-0.1884,-0.2686,-0.3222,-0.3489,-0.3823,-0.4066,-0.4288,-0.4725,-0.5064,-0.5303,-0.5704,-0.5935,-0.6251,-0.656,-0.6714,-0.6714,-0.6714,-0.6633,-0.6521,0.0,0.0,0.0,0.0,0.0,0.0,0.0,0.0,0.0,0.0,0.0,0.0,0.0,0.0,0.0,0.0,0.0,0.0,0.0,-1.3653,-1.4397,-1.4397,-1.4452,-1.4501,-1.4501,-1.4501,-1.4658,-1.5013,-1.6463,-1.7519,-1.8193,-1.8796,-1.8974,-1.8784,-1.8669,-1.8383,-1.7948,-1.7557,-1.7144,-1.6625,-1.6044,-1.5513,-1.5062,0.0,0.0,0.0,0.0,0.0,0.0,0.0,-1.0155,-0.9136,0.0,0.0,0.0,-0.8002,-0.7795,-0.7587,-0.7112,-0.6987,-0.7003,0.0,0.0,0.0,-0.7079,-0.6864,-0.6539,-0.6109,-0.5426,-0.4783,-0.4391,-0.4028,-0.3635,-0.3076,-0.269,-0.2288,-0.1951,-0.1748,-0.1597,-0.1615,-0.1417,-0.1274,-0.1302,-0.1174,-0.1112,-0.1112,-0.1112,-0.1112,-0.1112,-0.1112,-0.1064,-0.1093,-0.1094,-0.111,-0.1075,-0.1076,-0.1076,-0.1076,-0.1412,-0.195,-0.2686,-0.3025,-0.3159,-0.3236,-0.3843,-0.4077,-0.4167,-0.4754,-0.5082,-0.5318,-0.547,-0.5622,-0.5622,-0.5622,-0.5544,-0.5584,0.0,0.0,0.0,0.0,0.0,0.0,0.0,0.0,0.0,0.0,0.0,0.0,0.0,0.0,0.0,0.0,0.0,0.0,0.0,-1.3355,-1.4059,-1.4111,-1.413,-1.4149,-1.4149,-1.4305,-1.4497,-1.4794,-1.5712,-1.6454,-1.7107,-1.7718,-1.8167,-1.8422,-1.8266,-1.7988,-1.7639,-1.7282,-1.6863,-1.6436,-1.6013,-1.5468,-1.4915,0.0,0.0,0.0,0.0,0.0,0.0,0.0,0.0,0.0,0.0,0.0,0.0,-0.7739,-0.7496,-0.73,-0.7063,-0.7055,0.0,-0.6961,0.0,0.0,0.0,-0.6652,0.0,0.0,-0.5197,-0.4752,-0.4213,-0.3851,-0.348,-0.2929,-0.2523,-0.2139,-0.1767,-0.1437,-0.1164,-0.1067,-0.0876,-0.0748,-0.0741,-0.0679,-0.0617,-0.0556,-0.0556,-0.0494,-0.0432,-0.037,-0.0372,-0.0375,-0.0319,-0.0324,-0.0327,-0.0333,-0.0403,-0.0539,-0.074,-0.121,-0.195,-0.2354,-0.249,-0.2496,-0.3063,-0.335,-0.3364,-0.3917,-0.4304,-0.446,-0.4535,-0.4535,-0.4535,-0.4382,-0.4226,-0.4086,0.0,0.0,0.0,0.0,0.0,0.0,0.0,0.0,0.0,0.0,0.0,0.0,0.0,0.0,0.0,0.0,0.0,0.0,0.0,0.0,-1.3762,-1.3835,-1.3881,-1.3914,-1.3947,-1.4092,-1.4222,-1.4433,-1.5235,-1.5915,-1.6472,-1.7121,-1.7657,-1.8042,-1.7882,-1.7639,-1.7352,-1.7031,-1.665,-1.6275,-1.5869,-1.5334,-1.4777,0.0,0.0,0.0,0.0,0.0,0.0,0.0,0.0,0.0,0.0,0.0,0.0,-0.7398,-0.7199,-0.7074,-0.6795,-0.6878,0.0,-0.6799,-0.6855,-0.6815,-0.644,0.0,0.0,0.0,-0.4975,-0.4555,-0.3978,-0.357,-0.3239,-0.2778,-0.2314,-0.1875,-0.1524,-0.1205,-0.0879,-0.073,-0.0485,-0.0302,-0.0298,-0.0178,-0.0119,0.0,0.0059,0.0119,0.0238,0.0297,0.0299,0.0303,0.0375,0.0383,0.0387,0.0332,0.0269,0.0135,-0.0067,-0.0404,-0.0875,-0.148,-0.1749,-0.1821,-0.2279,-0.2637,-0.2819,-0.3165,-0.337,-0.3446,-0.3446,-0.3444,-0.3366,-0.3212,-0.2978,-0.283,0.0,0.0,0.0,0.0,0.0,0.0,0.0,0.0,0.0,0.0,0.0,0.0,0.0,0.0,0.0,0.0,0.0,0.0,0.0,0.0,-1.348,-1.3547,-1.3708,-1.3788,-1.3841,-1.3874,-1.3894,-1.3967,-1.4916,-1.5634,-1.615,-1.6695,-1.7231,-1.7638,-1.7488,-1.7365,-1.7157,-1.6808,-1.6479,-1.6113,-1.5647,-1.5153,-1.4605,-1.415,0.0,0.0,0.0,0.0,0.0,0.0,0.0,0.0,0.0,0.0,-0.7293,-0.7054,-0.6956,-0.685,-0.6395,0.0,0.0,-0.6514,-0.6559,0.0,-0.6228,-0.5959,-0.5681,-0.5336,-0.4846,-0.4333,-0.3773,-0.328,-0.2846,-0.2505,-0.203,-0.1601,-0.1292,-0.0984,-0.0669,-0.0471,-0.0176,0.0,0.0056,0.028,0.0449,0.0449,0.0617,0.0729,0.0785,0.0898,0.0967,0.0997,0.1028,0.106,0.109,0.0925,0.0871,0.0874,0.0539,0.0404,0.0337,-0.0605,-0.101,-0.1083,-0.1498,-0.1997,-0.2425,-0.2408,-0.2354,-0.2354,-0.2354,-0.2275,-0.2118,-0.204,-0.196,-0.173,0.0,0.0,0.0,0.0,0.0,0.0,0.0,0.0,0.0,0.0,0.0,0.0,0.0,0.0,0.0,0.0,0.0,0.0,0.0,0.0,-1.3116,-1.3301,-1.3391,-1.3493,-1.3493,-1.3628,-1.3682,-1.3682,-1.4119,-1.4801,-1.5748,-1.5867,-1.6414,-1.7282,-1.7115,-1.6947,-1.6808,-1.6436,-1.6088,-1.5691,-1.5334,-1.4823,-1.4269,-1.3858,-1.3334,0.0,0.0,0.0,0.0,0.0,0.0,0.0,-0.7621,-0.7286,-0.6953,-0.6824,-0.6615,-0.6424,-0.6328,-0.635,0.0,0.0,-0.6027,-0.5955,-0.5905,-0.5631,-0.5352,-0.5179,-0.4791,-0.4307,-0.3727,-0.3175,-0.2706,-0.2255,-0.1822,-0.1409,-0.1135,-0.0774,-0.0471,-0.0171,0.0057,0.0226,0.0281,0.0505,0.0673,0.0785,0.0954,0.1122,0.1403,0.1459,0.1519,0.1585,0.1519,0.1508,0.1555,0.1409,0.1315,0.121,0.1144,0.1009,0.0875,0.0134,-0.0408,-0.0696,-0.1006,-0.1257,-0.1593,-0.1555,-0.1571,-0.1571,-0.1571,-0.1414,-0.1178,-0.1021,-0.0785,-0.0629,0.0,0.0,0.0,0.0,0.0,0.0,0.0,0.0,0.0,0.0,0.0,0.0,0.0,0.0,0.0,0.0,0.0,0.0,0.0,0.0,0.0,-1.299,-1.3082,-1.3151,-1.3267,-1.3323,-1.3391,-1.3425,-1.3547,0.0,0.0,0.0,0.0,-1.6863,-1.6663,-1.6534,-1.6436,-1.6044,-1.5703,-1.5424,-1.4971,-1.4466,-1.3952,-1.3409,-1.289,-1.2323,-1.1877,0.0,0.0,0.0,0.0,0.0,0.0,0.0,-0.676,-0.648,-0.6314,-0.6108,-0.5947,0.0,0.0,-0.5701,0.0,-0.5462,-0.5462,-0.5293,-0.5069,-0.4849,-0.4574,-0.419,-0.3694,-0.3124,-0.2584,-0.2125,-0.1693,-0.1292,-0.0924,-0.0576,-0.0229,0.0056,0.028,0.0505,0.0617,0.0785,0.101,0.1234,0.1347,0.1515,0.1793,0.185,0.1905,0.2015,0.1966,0.1956,0.1988,0.1892,0.1818,0.178,0.1671,0.148,0.1344,0.0672,0.0203,-0.0207,-0.0283,-0.0508,-0.0671,-0.0688,-0.0699,-0.0707,-0.0707,-0.055,-0.0314,-0.0079,0.0079,0.0314,0.0,0.0,0.0,0.0,0.0,0.0,0.0,0.0,0.0,0.0,0.0,0.0,0.0,0.0,0.0,0.0,0.0,0.0,0.0,0.0,0.0,0.0,-1.2733,-1.2803,-1.299,-1.3037,-1.306,-1.3094,0.0,0.0,0.0,0.0,0.0,-1.6392,0.0,-1.6069,-1.6057,-1.5558,-1.5289,-1.5131,-1.4512,-1.3999,-1.3573,-1.2919,-1.2393,-1.1877,-1.1318,-1.0524,-0.9671,-0.9124,0.0,0.0,0.0,0.0,-0.6471,-0.6129,-0.5916,-0.5747,-0.5423,0.0,-0.5344,-0.5226,-0.512,0.0,-0.5014,-0.4904,-0.4736,-0.446,-0.4301,-0.4027,-0.3583,-0.3023,-0.2521,-0.2017,-0.1569,-0.1122,-0.0729,-0.0393,-0.0056,0.0224,0.0505,0.0785,0.0898,0.1122,0.1347,0.1628,0.1797,0.1964,0.2127,0.2238,0.235,0.235,0.2414,0.2397,0.2411,0.2415,0.2361,0.2386,0.2124,0.1951,0.1748,0.1277,0.0807,0.0472,0.0346,0.0213,0.0145,0.0074,0.0076,0.0156,0.0156,0.0313,0.055,0.0785,0.0942,0.1178,0.0,0.0,0.0,0.0,0.0,0.0,0.0,0.0,0.0,0.0,0.0,0.0,0.0,0.0,0.0,0.0,0.0,0.0,-1.1137,0.0,0.0,-1.2282,-1.2401,-1.2473,-1.2579,-1.2697,-1.2745,-1.278,0.0,0.0,0.0,0.0,0.0,-1.5881,0.0,0.0,-1.5558,-1.5017,-1.4754,-1.4627,-1.3952,-1.3467,-1.3016,-1.2452,-1.1877,-1.1318,-1.071,-0.9965,-0.9124,-0.8579,-0.7843,0.0,0.0,0.0,-0.5824,-0.5715,-0.5423,-0.5108,0.0,0.0,-0.4625,0.0,-0.4684,-0.4743,0.0,0.0,-0.4463,-0.4132,-0.4021,-0.3855,-0.3299,-0.2798,-0.2354,-0.174,-0.1346,-0.0954,-0.0505,-0.0224,0.0056,0.0336,0.0673,0.0954,0.1066,0.1459,0.1741,0.1797,0.2188,0.2465,0.2577,0.274,0.285,0.2963,0.2863,0.2853,0.2878,0.2783,0.2749,0.2704,0.265,0.2487,0.2288,0.2087,0.1681,0.1145,0.0831,0.0702,0.0706,0.0507,0.0595,0.0761,0.0761,0.108,0.1414,0.1648,0.1882,0.2118,0.0,0.0,0.0,0.0,0.0,0.0,0.0,0.0,0.0,0.0,0.0,0.0,0.0,0.0,0.0,-0.9518,-1.0252,-1.0934,-1.146,-1.1732,-1.1918,-1.1957,-1.2066,-1.2174,-1.2318,-1.2401,-1.2437,0.0,0.0,0.0,0.0,-1.3674,-1.4343,0.0,0.0,0.0,0.0,-1.4523,-1.4244,-1.4104,-1.3409,-1.2929,-1.2491,-1.1868,-1.1318,-1.0702,-1.0138,-0.9519,-0.8834,-0.8268,-0.7626,-0.703,-0.6509,0.0,0.0,0.0,-0.485,0.0,-0.4223,-0.4021,-0.391,0.0,-0.4024,-0.4082,-0.4024,-0.3968,-0.3913,-0.3577,-0.3355,-0.3188,-0.3019,-0.2573,-0.2073,-0.1684,-0.1234,-0.0842,-0.0449,-0.0112,0.0224,0.0505,0.0842,0.1122,0.1459,0.1685,0.1965,0.23,0.2575,0.2854,0.3079,0.3246,0.3302,0.3357,0.3302,0.3266,0.3201,0.3203,0.3153,0.3091,0.3065,0.2913,0.2757,0.269,0.2285,0.1615,0.1362,0.1244,0.1262,0.1207,0.1232,0.1337,0.1505,0.1675,0.1926,0.2417,0.2663,0.2821,0.0,0.0,0.0,0.0,0.0,0.0,0.0,0.0,0.0,0.0,0.0,0.0,0.0,0.0,0.0,0.0,-1.0498,-1.1094,-1.1538,-1.1571,-1.1634,-1.1712,-1.1785,-1.1884,-1.2102,-1.2113,0.0,0.0,0.0,0.0,-1.3098,-1.3068,-1.3661,0.0,-1.4616,-1.4523,0.0,0.0,0.0,0.0,-1.288,-1.2393,-1.1959,-1.1309,-1.071,-1.0138,-0.9614,-0.904,-0.8455,-0.7877,-0.7343,-0.6756,-0.6154,-0.5668,0.0,0.0,0.0,0.0,0.0,0.0,-0.3135,-0.319,-0.3304,-0.3304,0.0,-0.3304,-0.319,-0.2852,-0.2575,-0.2408,-0.2462,-0.2127,-0.1737,-0.1458,-0.1066,-0.0673,-0.0336,0.0,0.0393,0.0729,0.101,0.1403,0.1741,0.1893,0.2168,0.2687,0.2941,0.3159,0.3522,0.3694,0.3749,0.3805,0.3805,0.3694,0.358,0.3585,0.355,0.3463,0.345,0.332,0.3191,0.3147,0.2824,0.2287,0.1951,0.1839,0.1873,0.1873,0.1833,0.1952,0.2135,0.2316,0.2501,0.3006,0.335,0.3522,0.0,0.0,0.0,0.0,0.0,0.0,0.0,0.0,0.0,0.0,0.0,0.0,-0.9256,-0.9742,-1.0245,-1.0681,-1.0653,-1.0773,-1.1191,-1.1223,-1.1298,-1.1522,-1.1522,0.0,-1.1819,-1.1819,0.0,0.0,0.0,0.0,-1.2889,-1.2721,-1.3051,-1.3858,-1.3973,-1.402,-1.401,0.0,0.0,0.0,0.0,-1.1877,-1.1477,-1.0702,-1.0087,-0.9562,-0.9033,-0.8455,-0.7877,-0.7348,-0.6756,-0.6154,-0.5555,-0.5007,-0.446,0.0,0.0,0.0,0.0,-0.2294,0.0,-0.2294,-0.2408,-0.2519,0.0,-0.2408,-0.2408,-0.1958,-0.1734,-0.1567,-0.1233,-0.129,-0.1234,-0.0954,-0.0673,-0.0336,-0.0056,0.0224,0.0505,0.0842,0.1291,0.1628,0.1797,0.2179,0.2595,0.2843,0.3202,0.3568,0.3959,0.4082,0.4249,0.4463,0.4245,0.4138,0.4138,0.3983,0.3879,0.3893,0.3817,0.3796,0.3739,0.3586,0.3431,0.3364,0.2691,0.2359,0.2362,0.2227,0.2261,0.2454,0.2457,0.2754,0.3255,0.3481,0.3917,0.4384,0.0,0.0,0.0,0.0,0.0,0.0,0.0,0.0,0.0,0.0,0.0,0.0,0.0,-1.0134,-1.0491,-1.0664,-1.0833,-1.0978,-1.1109,-1.1158,-1.1274,-1.1627,-1.1804,-1.2073,-1.2509,-1.2291,0.0,0.0,0.0,-1.1975,-1.2679,-1.2478,-1.2751,-1.342,-1.3467,-1.3467,-1.3467,-1.2949,0.0,0.0,0.0,-1.1413,-1.1052,-1.0401,-0.9944,-0.9513,-0.889,-0.8273,-0.7681,-0.6966,-0.63,-0.5715,-0.4986,-0.4401,-0.3738,-0.2905,-0.2238,0.0,0.0,0.0,0.0,-0.1625,-0.1682,-0.1738,-0.1625,-0.1624,-0.1511,-0.1288,-0.1008,-0.0784,-0.0561,-0.0729,-0.0842,-0.0617,-0.0336,-0.0056,0.0112,0.0449,0.0842,0.1122,0.1432,0.1793,0.2224,0.2417,0.2738,0.3188,0.351,0.3852,0.4257,0.4374,0.4527,0.4732,0.468,0.4629,0.4525,0.4241,0.4137,0.4219,0.4224,0.4159,0.4113,0.4045,0.3966,0.383,0.3426,0.3092,0.2757,0.2757,0.2772,0.2868,0.3124,0.3397,0.3759,0.4182,0.4631,0.5135,0.0,0.0,0.0,0.0,0.0,0.0,0.0,0.0,0.0,0.0,0.0,0.0,0.0,0.0,-1.1068,-1.118,-1.1422,-1.1533,-1.1504,-1.1504,-1.1619,-1.1942,-1.2127,-1.2399,-1.2848,-1.2666,-1.2465,0.0,0.0,0.0,0.0,-1.2343,-1.2544,-1.3084,-1.2929,-1.289,0.0,0.0,0.0,-1.1778,0.0,-1.0817,-1.0539,-0.9933,-0.9511,-0.9201,-0.861,-0.8027,-0.7354,-0.6681,-0.5951,-0.5243,-0.4568,-0.3716,-0.2847,-0.1959,-0.1345,0.0,-0.0954,0.0,0.0,0.0,-0.0785,-0.0785,-0.0729,-0.0672,-0.056,-0.0392,-0.0222,0.0,0.011,-0.0055,-0.0164,-0.0112,0.0112,0.0336,0.0505,0.0785,0.1117,0.1381,0.1729,0.2066,0.2511,0.2677,0.3027,0.3518,0.3722,0.4055,0.4514,0.4629,0.479,0.4948,0.4956,0.4901,0.4743,0.4522,0.4458,0.4552,0.4523,0.4485,0.4496,0.444,0.4326,0.4228,0.4028,0.3694,0.3291,0.3291,0.3291,0.3297,0.363,0.3885,0.4142,0.4651,0.5176,0.5603,0.0,0.0,0.0,0.0,0.0,0.0,0.0,0.0,0.0,0.0,0.0,0.0,0.0,0.0,0.0,-1.2373,-1.2415,-1.2382,-1.2307,-1.2307,-1.235,-1.2393,-1.2436,-1.2531,-1.2817,-1.2807,-1.2569,0.0,0.0,0.0,0.0,0.0,-1.2555,-1.2881,-1.2323,-1.2224,-1.2421,0.0,-1.1628,-1.1226,-1.0616,-1.0249,-0.994,-0.9301,-0.8922,-0.8575,-0.8162,-0.7573,-0.6921,-0.6435,-0.5652,-0.4807,-0.4164,-0.2928,-0.168,-0.1233,-0.0729,0.0,0.0,0.0,0.0,0.0,0.0224,0.028,0.0393,0.0449,0.0505,0.0672,0.0654,0.0692,0.0798,0.0878,0.0826,0.0498,0.0727,0.0951,0.1119,0.123,0.1437,0.1656,0.2071,0.2405,0.2574,0.296,0.3366,0.3791,0.3918,0.4234,0.4788,0.4868,0.4994,0.5113,0.5124,0.5069,0.4901,0.4897,0.4897,0.4901,0.4727,0.4706,0.4918,0.4684,0.4693,0.4758,0.4428,0.4092,0.3825,0.3825,0.3825,0.3825,0.3961,0.4227,0.4533,0.4882,0.5387,0.596,0.0,0.0,0.0,0.0,0.0,0.0,0.0,0.0,0.0,0.0,0.0,0.0,-1.1995,-1.2194,-1.232,-1.2404,-1.2382,-1.2297,-1.2307,-1.2307,-1.2453,-1.2775,-1.283,-1.3086,-1.3524,-1.3297,-1.3096,-1.2957,0.0,0.0,0.0,0.0,0.0,0.0,-1.2175,-1.1778,-1.1477,-1.1377,0.0,-1.0624,-1.0242,-0.9936,-0.968,-0.9185,-0.8888,-0.8691,-0.799,-0.7418,-0.6826,-0.6116,-0.5355,-0.4476,-0.3216,-0.2187,-0.1346,-0.0785,-0.0336,0.0,0.0336,0.0,0.0,0.0,0.0,0.0,0.0729,0.0898,0.1059,0.1087,0.1234,0.1375,0.1339,0.1422,0.1473,0.1504,0.13,0.1248,0.1353,0.1613,0.1815,0.205,0.2347,0.2594,0.2858,0.317,0.3469,0.3687,0.4014,0.4381,0.4695,0.501,0.5157,0.51,0.5175,0.5242,0.5183,0.5069,0.5069,0.5069,0.5015,0.4944,0.488,0.485,0.481,0.488,0.4619,0.4543,0.4495,0.4231,0.4164,0.4164,0.4498,0.4782,0.5164,0.5339,0.5883,0.6495,0.0,0.0,0.0,0.0,0.0,0.0,0.0,0.0,0.0,0.0,0.0,0.0,-1.284,-1.3257,-1.3486,-1.3486,-1.3273,-1.3113,-1.3113,-1.2937,-1.2948,-1.3196,-1.3263,-1.3445,-1.381,-1.3605,-1.3408,-1.3218,0.0,0.0,0.0,0.0,0.0,0.0,0.0,0.0,0.0,0.0,0.0,-1.0066,-0.9749,-0.9448,-0.9168,-0.8841,-0.8548,-0.8247,-0.7727,-0.7138,-0.6601,-0.5902,-0.499,-0.3882,-0.2578,-0.1744,-0.1142,-0.0563,-0.0168,0.0,0.0,0.0,0.0,0.101,0.0,0.0,0.129,0.1458,0.1555,0.1502,0.1685,0.1804,0.1688,0.18,0.1927,0.2023,0.1924,0.1895,0.1857,0.2067,0.2257,0.2366,0.2651,0.2929,0.3161,0.3401,0.3615,0.3836,0.4144,0.4394,0.4625,0.4889,0.5077,0.5076,0.5186,0.5221,0.5297,0.5242,0.5183,0.5187,0.5113,0.5087,0.5107,0.4963,0.4908,0.4984,0.4795,0.4803,0.4817,0.4674,0.4564,0.4564,0.4827,0.5093,0.5439,0.5663,0.6101,0.6662,0.0,0.0,0.0,0.0,0.0,0.0,0.0,0.0,0.0,0.0,-1.2546,-1.2875,-1.3683,-1.45,-1.4997,-1.4997,-1.4624,-1.4386,-1.4386,-1.3903,-1.3645,-1.3645,-1.3594,-1.361,-1.3763,-1.3763,-1.3564,-1.3146,0.0,0.0,0.0,0.0,0.0,0.0,0.0,0.0,0.0,0.0,-0.9302,-0.933,-0.9138,-0.8801,-0.8463,-0.8276,-0.7942,-0.7601,-0.7204,-0.6745,-0.6218,-0.5617,-0.4537,-0.3192,-0.2238,-0.1603,-0.1119,-0.057,-0.0169,0.0,0.0,0.0,0.0,0.129,0.1459,0.0,0.1797,0.1906,0.1994,0.1923,0.1963,0.1993,0.1958,0.2069,0.2243,0.229,0.2553,0.2662,0.2364,0.2587,0.2752,0.2656,0.302,0.33,0.3407,0.3612,0.3836,0.4064,0.4236,0.439,0.4507,0.4621,0.4839,0.5039,0.5072,0.5169,0.5297,0.5297,0.5297,0.5297,0.5183,0.521,0.5362,0.5016,0.4983,0.5076,0.4984,0.4934,0.496,0.5163,0.509,0.4894,0.509,0.5289,0.5557,0.5822,0.6152,0.6573,-1.0715,0.0,0.0,0.0,0.0,0.0,0.0,0.0,0.0,0.0,-1.3993,-1.4531,-1.4707,-1.4894,-1.4997,-1.4997,-1.4914,-1.4811,-1.4696,-1.4266,-1.3971,-1.3841,-1.3575,-1.3467,-1.3467,-1.3467,-1.3426,-1.3334,0.0,0.0,0.0,0.0,0.0,0.0,0.0,0.0,0.0,0.0,-0.8302,-0.7961,-0.8342,-0.8276,-0.7898,-0.7833,-0.7497,-0.7012,-0.6683,-0.6214,-0.5617,-0.4625,-0.382,-0.3085,-0.248,-0.1809,-0.1217,-0.0825,-0.035,0.0116,0.0508,0.0785,0.101,0.1459,0.1572,0.0,0.1797,0.1906,0.1981,0.1967,0.208,0.217,0.2203,0.2248,0.2373,0.269,0.2862,0.2876,0.2652,0.2885,0.3103,0.3077,0.3385,0.3598,0.366,0.3884,0.4064,0.4108,0.4328,0.4473,0.4511,0.4646,0.4728,0.4853,0.5003,0.5169,0.5297,0.5297,0.5297,0.5297,0.5297,0.5203,0.5175,0.4953,0.4982,0.5089,0.5132,0.5271,0.5463,0.569,0.5557,0.5292,0.5422,0.5749,0.6083,0.6218,0.6613,0.7077,-1.1213,0.0,0.0,0.0,0.0,0.0,0.0,0.0,0.0,0.0,-1.5111,-1.5691,-1.5691,-1.6094,-1.6213,-1.592,-1.5694,-1.5403,-1.5026,-1.4538,-1.4296,-1.4202,-1.3872,-1.3629,-1.3629,-1.3435,-1.3276,-1.319,0.0,0.0,0.0,0.0,0.0,0.0,0.0,0.0,0.0,0.0,-0.7503,-0.6993,-0.7581,-0.7507,-0.711,-0.7191,-0.6923,-0.6482,-0.6148,-0.5554,-0.4827,-0.4228,-0.3593,-0.2954,-0.2526,-0.198,-0.1443,-0.1035,-0.0664,-0.03,0.0232,0.0575,0.0859,0.1183,0.1403,0.0,0.0,0.185,0.1977,0.2,0.2168,0.2311,0.2314,0.246,0.2684,0.2907,0.3167,0.3344,0.3306,0.3439,0.3571,0.3571,0.3832,0.4008,0.4008,0.41,0.4192,0.4192,0.4324,0.4408,0.4408,0.4447,0.4574,0.4796,0.4893,0.5076,0.5297,0.5297,0.5297,0.5297,0.5297,0.5242,0.5183,0.5069,0.506,0.5099,0.5233,0.5384,0.5538,0.5788,0.5888,0.5888,0.5818,0.5951,0.6284,0.635,0.6806,0.7396,-1.1754,0.0,0.0,0.0,0.0,0.0,0.0,0.0,0.0,0.0,0.0,-1.6643,-1.6643,-1.7234,-1.7451,-1.6961,-1.6524,-1.608,-1.5465,-1.4969,-1.469,-1.4546,-1.418,-1.4002,-1.4002,-1.3491,-1.3213,-1.3086,0.0,0.0,0.0,0.0,0.0,0.0,0.0,0.0,0.0,0.0,-0.675,-0.6232,-0.6621,-0.6615,-0.6315,-0.6453,-0.6318,-0.5947,-0.555,-0.4957,-0.4233,-0.4028,-0.3558,-0.2945,-0.2554,-0.2145,-0.1745,-0.1256,-0.0997,-0.0741,-0.0179,0.0236,0.0585,0.0849,0.1234,0.1572,0.0,0.0,0.0,0.2068,0.223,0.2415,0.2429,0.2697,0.2951,0.3123,0.352,0.3877,0.4008,0.41,0.41,0.4016,0.4232,0.436,0.436,0.436,0.436,0.436,0.436,0.436,0.436,0.436,0.4525,0.4845,0.4853,0.4983,0.5293,0.5297,0.5297,0.5297,0.5297,0.5297,0.5297,0.5183,0.5128,0.5148,0.5376,0.5461,0.5548,0.5883,0.6218,0.6486,0.6152,0.6222,0.6486,0.6613,0.7003,0.7596,-1.2319,-1.2373,0.0,0.0,0.0,0.0,0.0,0.0,0.0,0.0,0.0,-1.7574,-1.7574,-1.7544,-1.7523,-1.74,-1.7235,-1.6828,-1.6198,-1.5761,-1.5345,-1.4782,-1.4459,-1.4231,-1.4231,-1.3755,-1.3478,-1.3428,0.0,0.0,0.0,0.0,0.0,0.0,-0.8942,0.0,0.0,0.0,-0.5991,-0.5391,-0.5246,-0.54,-0.5715,-0.5763,-0.5546,-0.5153,-0.4824,-0.4561,-0.4233,-0.3961,-0.3424,-0.2954,-0.2743,-0.2341,-0.1864,-0.1617,-0.1284,-0.0952,-0.0419,0.0,0.0351,0.0792,0.1122,0.1403,0.1572,0.0,0.2049,0.2237,0.0,0.2486,0.285,0.0,0.0,0.3565,0.3965,0.4316,0.4487,0.484,0.4888,0.4499,0.4491,0.4574,0.4574,0.4574,0.4574,0.4574,0.4574,0.4574,0.4574,0.4574,0.4707,0.4948,0.496,0.5089,0.5293,0.5297,0.5297,0.5297,0.5297,0.5297,0.5297,0.5183,0.5183,0.5317,0.5549,0.582,0.6026,0.6459,0.6679,0.6815,0.6486,0.6552,0.6881,0.7265,0.7526,0.7756,-1.2765,-1.2647,0.0,0.0,0.0,0.0,0.0,0.0,0.0,0.0,-1.7554,-1.8049,-1.7922,-1.8094,-1.808,-1.7624,-1.7466,-1.7169,-1.6547,-1.6279,-1.5916,-1.537,-1.4888,-1.4542,-1.4301,-1.3844,-1.3447,-1.3138,-1.2661,0.0,0.0,0.0,0.0,0.0,-0.8408,0.0,-0.6907,0.0,-0.5336,-0.4798,-0.4615,-0.4484,-0.4546,-0.4852,-0.4766,-0.4425,-0.4295,-0.4097,-0.3832,-0.3696,-0.3293,-0.282,-0.2753,-0.242,-0.2014,-0.1724,-0.152,-0.1241,-0.0616,-0.0182,0.012,0.0682,0.1066,0.1347,0.1629,0.1906,0.2218,0.2519,0.0,0.0,0.0,0.0,0.0,0.0,0.4608,0.4884,0.5193,0.5371,0.5328,0.4932,0.4975,0.4971,0.4971,0.4797,0.4709,0.4709,0.4661,0.4618,0.4618,0.4727,0.4874,0.5104,0.5216,0.5405,0.5572,0.5517,0.5458,0.5458,0.5352,0.5297,0.5297,0.5242,0.5294,0.5519,0.5825,0.6059,0.6307,0.6634,0.7007,0.7204,0.7068,0.7134,0.7269,0.7531,0.7936,0.8461,-1.3431,0.0,0.0,0.0,0.0,0.0,0.0,0.0,-1.7214,-1.7398,-1.8081,-1.8503,-1.8318,-1.8548,-1.8475,-1.7813,-1.7718,-1.7409,-1.687,-1.6638,-1.6319,-1.5909,-1.5463,-1.5053,-1.4696,-1.4167,-1.3689,-1.3162,0.0,0.0,0.0,0.0,0.0,0.0,0.0,-0.7074,-0.6317,0.0,-0.4787,-0.4252,-0.3998,-0.3727,-0.3487,-0.4015,-0.414,-0.3961,-0.3961,-0.3694,-0.3431,-0.3431,-0.3092,-0.2621,-0.2554,-0.2354,-0.2018,-0.1614,-0.1472,-0.1316,-0.0626,-0.0245,0.012,0.0626,0.1066,0.1459,0.1796,0.2128,0.25,0.2929,0.3369,0.0,0.0,0.0,0.4879,0.5195,0.0,0.5608,0.5901,0.5933,0.5841,0.5404,0.5371,0.5371,0.5323,0.5154,0.5067,0.5067,0.4927,0.4863,0.4963,0.5066,0.5221,0.5431,0.5575,0.5747,0.5845,0.5732,0.5677,0.5677,0.5462,0.5407,0.5407,0.5401,0.5494,0.5686,0.6036,0.6339,0.6548,0.6928,0.7269,0.7591,0.7722,0.7787,0.7797,0.7992,0.845,0.9012,-1.4594,-1.3967,0.0,0.0,0.0,0.0,0.0,-1.7228,-1.7864,-1.8288,-1.8754,-1.8988,-1.8787,-1.8607,-1.8472,-1.8317,-1.7901,-1.7504,-1.71,-1.6883,-1.6637,-1.623,-1.6201,-1.5984,-1.5557,-1.4823,-1.4298,-1.3846,-1.2527,0.0,0.0,0.0,0.0,0.0,-0.7444,-0.6529,-0.5773,-0.4901,-0.4181,-0.3583,-0.336,-0.3047,-0.29,-0.3577,-0.3818,-0.3825,-0.3825,-0.3558,-0.3226,-0.3226,-0.2825,-0.2357,-0.2288,-0.2087,-0.1817,-0.1412,-0.1189,-0.1028,-0.0436,-0.006,0.0293,0.0792,0.1234,0.1684,0.1903,0.246,0.3016,0.3456,0.3959,0.4442,0.4952,0.5417,0.5808,0.604,0.6322,0.0,0.0,0.6598,0.6428,0.583,0.5712,0.568,0.568,0.568,0.568,0.568,0.5539,0.5595,0.583,0.5749,0.5806,0.6083,0.6098,0.6053,0.6,0.6,0.5896,0.5795,0.5677,0.5567,0.5572,0.5583,0.5727,0.5934,0.624,0.6593,0.6926,0.7311,0.7591,0.7731,0.8252,0.8452,0.8479,0.877,0.8991,0.9333,-1.4599,0.0,0.0,0.0,0.0,-1.591,-1.688,-1.7697,-1.8216,-1.8361,-1.8977,-1.9257,-1.9061,-1.9194,-1.9081,-1.8786,-1.8643,-1.8318,-1.7817,-1.759,-1.7083,-1.628,-1.6167,-1.5844,-1.5296,-1.4791,-1.4326,-1.3797,-1.2826,0.0,0.0,0.0,0.0,0.0,0.0,-0.5987,0.0,-0.4291,-0.3618,-0.3189,-0.2757,-0.2498,-0.2455,-0.3078,-0.3157,-0.3088,-0.3088,-0.2954,-0.2822,-0.2691,-0.249,-0.2221,-0.2085,-0.1793,-0.1438,-0.1244,-0.1027,-0.081,-0.0242,0.0119,0.0468,0.1018,0.1514,0.2017,0.246,0.3016,0.3569,0.4177,0.4798,0.5354,0.5993,0.6494,0.6967,0.7315,0.7424,0.7504,0.0,0.7489,0.7238,0.6901,0.6483,0.6233,0.6153,0.6062,0.6013,0.6013,0.6079,0.6119,0.6207,0.6422,0.6612,0.6673,0.6723,0.6684,0.6603,0.649,0.6399,0.6262,0.614,0.6098,0.6119,0.6125,0.622,0.6467,0.6666,0.6922,0.7302,0.7567,0.7862,0.8252,0.8452,0.8935,0.9489,0.9432,0.9638,0.9722,-1.5151,0.0,0.0,-1.5522,-1.5884,-1.6547,-1.7455,-1.8103,-1.857,-1.8827,-1.926,-1.9483,-1.9445,-1.9511,-1.9462,-1.9004,-1.8922,-1.8661,-1.8106,-1.7942,-1.7431,-1.6555,-1.6381,-1.5993,-1.5261,-1.495,-1.4438,-1.3646,-1.292,-1.1961,0.0,0.0,0.0,0.0,0.0,-0.5273,-0.4401,-0.3572,-0.2963,-0.2481,-0.2012,-0.1836,-0.1884,-0.2218,-0.242,-0.2554,-0.2554,-0.2487,-0.242,-0.2288,-0.2072,-0.1855,-0.1658,-0.1365,-0.1079,-0.089,-0.0685,-0.0423,0.0059,0.0409,0.0806,0.1409,0.1905,0.2406,0.3016,0.3572,0.4125,0.4897,0.55,0.6159,0.6907,0.757,0.8088,0.8486,0.8583,0.8618,0.0,0.8392,0.8139,0.7802,0.7202,0.6823,0.6745,0.6696,0.6611,0.6611,0.6774,0.6881,0.6933,0.7254,0.7434,0.7431,0.7488,0.7399,0.7269,0.7104,0.6992,0.6871,0.6692,0.6592,0.6676,0.6684,0.6784,0.697,0.7112,0.7343,0.7722,0.7922,0.8187,0.8522,0.887,0.946,1.008,0.997,0.94,0.8209,-1.6197,-1.6279,-1.6136,-1.5725,-1.6436,-1.7342,-1.8126,-1.8564,-1.8992,-1.9723,-1.9661,-1.9656,-1.9877,-1.973,-1.9521,-1.9072,-1.8905,-1.8601,-1.8155,-1.7913,-1.7575,-1.6963,-1.6855,-1.643,-1.5505,-1.5308,-1.4647,-1.3603,-1.268,0.0,0.0,0.0,0.0,0.0,-0.5542,0.0,-0.3458,-0.274,-0.2056,-0.1481,-0.1134,-0.0984,-0.1076,-0.121,-0.1614,-0.2087,-0.2154,-0.2018,-0.1883,-0.188,-0.1582,-0.1224,-0.1096,-0.0947,-0.0678,-0.037,-0.0121,0.0118,0.0529,0.0862,0.1289,0.1903,0.2408,0.2912,0.3516,0.4125,0.4736,0.5508,0.6159,0.6907,0.7765,0.8554,0.9188,0.9536,0.9881,0.9937,0.9456,0.9399,0.9188,0.8585,0.7957,0.7531,0.7461,0.7419,0.7419,0.7419,0.76,0.7809,0.793,0.8141,0.8235,0.8262,0.8287,0.8148,0.7942,0.7852,0.7753,0.7628,0.7335,0.717,0.7185,0.7207,0.7361,0.7558,0.7703,0.7857,0.8052,0.8382,0.8522,0.8685,0.9645,1.0036,1.0043,1.0117,0.8099,0.4686,-1.6797,-1.7139,-1.7497,-1.7643,-1.7882,-1.8162,-1.8637,-1.9238,-1.9714,-1.9796,-2.0073,-2.0239,-2.036,-2.0361,-2.0168,-1.9706,-1.962,-1.9266,-1.8366,-1.8262,-1.7854,-1.6931,-1.6629,-1.6169,-1.5477,-1.4878,-1.4166,-1.3243,-1.2455,0.0,-0.9775,0.0,0.0,0.0,0.0,-0.3448,-0.251,-0.1788,-0.11,-0.0551,-0.052,-0.0468,-0.0539,-0.0539,-0.0741,-0.101,-0.1413,-0.1412,-0.1274,-0.1117,-0.0974,-0.0772,-0.0566,-0.0306,-0.006,0.006,0.0291,0.0568,0.0909,0.1297,0.1792,0.2352,0.2965,0.3516,0.4128,0.4677,0.5281,0.6055,0.675,0.7545,0.8402,0.9287,1.0033,1.0563,1.0962,1.113,1.0765,1.0691,1.0567,1.0241,1.0048,0.9391,0.7983,0.7863,0.7863,0.7863,0.8119,0.8409,0.8687,0.8832,0.8947,0.9093,0.9119,0.8993,0.8559,0.8649,0.8593,0.8432,0.8176,0.8083,0.8143,0.8137,0.8163,0.8233,0.8291,0.8382,0.8641,0.8765,0.9137,0.9651,1.0182,0.877,0.6526,0.6513,0.4082,0.0119,-1.7494,-1.8093,-1.8657,-1.8988,-1.9011,-1.9043,-1.9329,-1.9772,-2.0191,-2.0438,-2.0585,-2.0686,-2.0803,-2.0738,-2.0498,-1.9942,-1.9784,-1.9386,-1.8617,-1.8364,-1.7787,-1.6867,-1.6413,-1.5831,-1.5083,-1.4553,-1.3677,-1.2511,-1.1854,0.0,-0.8878,0.0,0.0,0.0,0.0,-0.2282,-0.1285,-0.0403,0.012,0.0379,0.033,0.0269,0.0,0.0,-0.0067,-0.0135,-0.0471,-0.0668,-0.0725,-0.0649,-0.0444,-0.0248,-0.0061,0.0178,0.0461,0.0577,0.0797,0.101,0.1347,0.1737,0.2238,0.2742,0.3355,0.3962,0.4629,0.5175,0.5828,0.6696,0.745,0.819,0.9138,1.0012,1.083,1.1733,1.2186,1.2324,1.2019,1.1925,1.1758,1.1378,1.1236,1.0677,0.9364,0.9023,0.8799,0.8602,0.8887,0.9209,0.9474,0.9596,0.9692,0.9821,0.9943,0.9791,0.9469,0.9538,0.9471,0.9256,0.9113,0.9,0.8958,0.8958,0.8958,0.8958,0.8958,0.9017,0.9285,0.9527,0.9993,1.032,0.8901,0.4678,-0.0547,-0.0723,-0.2128,-0.4361,-1.8367,-1.9034,-1.9667,-2.0003,-1.995,-1.9982,-2.0194,-2.0315,-2.0652,-2.1293,-2.1092,-2.0988,-2.1165,-2.0984,-2.0586,-1.9942,-1.9715,-1.9329,-1.8692,-1.8201,-1.762,-1.6768,-1.6183,-1.5447,-1.4411,-1.4079,-1.3162,-1.1642,-1.1073,0.0,0.0,0.0,0.0,0.0,0.0,0.0,0.0,0.1145,0.1446,0.1291,0.1263,0.1076,0.0874,0.0539,0.0472,0.0539,0.0403,0.0132,-0.0194,-0.0193,0.0062,0.0294,0.0469,0.0631,0.0842,0.1122,0.129,0.1515,0.1853,0.2244,0.2745,0.313,0.3688,0.4353,0.5069,0.5673,0.6431,0.7385,0.809,0.8837,0.9909,1.0779,1.1742,1.2967,1.2771,1.2433,1.2214,1.2088,1.1817,1.1318,1.1697,0.0,1.1067,1.0429,0.987,0.9435,0.9697,0.9994,1.0202,1.036,1.0433,1.0541,1.0668,1.0682,1.0465,1.0538,1.0424,1.0174,1.0034,0.9837,0.9646,0.9646,0.9646,0.9646,0.9646,0.9798,1.004,1.0496,1.0586,0.9986,0.6175,-0.0518,-0.8087,-0.9145,-0.9288,-0.905,-1.9495,-1.9884,-2.0312,-2.0687,-2.0935,-2.1319,-2.2048,-2.1436,-2.1023,-2.1335,-2.137,-2.1344,-2.1195,-2.0886,-2.0411,-1.9942,-1.9539,-1.9073,-1.8523,-1.8031,-1.7379,-1.6389,-1.5646,-1.4835,-1.3823,-1.3202,-1.2155,-1.066,-0.9956,-0.8544,0.0,0.0,0.0,0.0,0.0,0.0,0.2219,0.2489,0.2498,0.2322,0.2128,0.1817,0.1412,0.1076,0.0875,0.0738,0.0525,0.0389,0.0386,0.0502,0.0608,0.0821,0.1085,0.1297,0.1458,0.1624,0.1847,0.2128,0.2467,0.2856,0.3357,0.3858,0.4467,0.5069,0.5673,0.6381,0.7133,0.7865,0.8666,0.951,1.0466,1.1913,1.3208,1.3884,1.0516,0.783,0.7887,0.7766,0.7597,0.7399,1.1067,1.3198,1.2203,1.1113,1.0334,0.989,0.9848,1.0118,1.0801,1.0597,1.0745,1.1301,1.1552,1.1527,1.1189,1.1466,1.1439,1.1233,1.0919,1.073,1.0548,1.0548,1.0548,1.0548,1.0548,1.0816,1.1314,1.1493,0.9605,0.6222,0.1906,-0.3315,-0.8911,-1.3304,-1.4914,-1.485,-2.0461,-2.0859,-2.1289,-2.1595,-2.1823,-2.2093,-2.2528,-2.2084,-2.1757,-2.1935,-2.1738,-2.1502,-2.1205,-2.0809,-2.0333,-1.9784,-1.9301,-1.8745,-1.8103,-1.7282,-1.6541,-1.5823,-1.4769,-1.3899,-1.321,-1.2377,-1.1351,-1.0018,-0.8881,-0.728,-0.5262,-0.338,0.0,0.0,0.0,0.2922,0.0,0.3682,0.3565,0.3292,0.2874,0.242,0.1949,0.1614,0.1412,0.1206,0.1042,0.1022,0.1005,0.0853,0.1004,0.1319,0.1577,0.1793,0.1961,0.2293,0.2516,0.274,0.3077,0.3463,0.3962,0.4463,0.5014,0.5668,0.6376,0.7079,0.7771,0.8712,0.9444,1.0312,1.1715,1.2957,1.3057,1.0754,0.841,0.5972,0.329,0.2862,0.2816,0.2822,0.7225,0.9959,0.9192,1.073,1.1358,1.0439,1.0312,1.0604,1.132,1.1069,1.1232,1.1999,1.2263,1.2261,1.1975,1.2357,1.2413,1.2042,1.1864,1.167,1.1428,1.1428,1.1428,1.1435,1.1658,1.201,1.2195,1.0037,0.6449,0.1931,-0.3122,-0.8264,-1.3203,-1.589,-1.6959,-1.7019,-2.1603,-2.1943,-2.2315,-2.2605,-2.2616,-2.2648,-2.286,-2.265,-2.2491,-2.2435,-2.2025,-2.1655,-2.1195,-2.0731,-2.0177,-1.9557,-1.8913,-1.8141,-1.7421,-1.6349,-1.5507,-1.4887,-1.3775,-1.2947,-1.2424,-1.1521,-1.0456,-0.9187,-0.7718,-0.5965,-0.3954,-0.1772,0.0191,0.196,0.3735,0.464,0.4877,0.4714,0.4466,0.4095,0.356,0.3023,0.2552,0.2218,0.1951,0.1741,0.1616,0.1637,0.1597,0.13,0.1376,0.1738,0.2071,0.2294,0.2462,0.2961,0.3183,0.3405,0.3793,0.4177,0.4618,0.5113,0.566,0.6317,0.7182,0.7824,0.8508,0.9607,1.0415,1.1416,1.2948,1.3884,1.2748,0.7729,0.619,0.3772,-0.1558,-0.2325,-0.2292,-0.2174,0.2196,0.5471,0.6118,0.9339,1.1367,1.1225,1.1036,1.1215,1.1807,1.1685,1.1962,1.2772,1.2945,1.2976,1.2873,1.3345,1.3329,1.285,1.285,1.2707,1.2523,1.2523,1.2562,1.2641,1.2972,1.2545,1.1336,0.6747,0.1919,-0.2999,-0.7443,-1.2426,-1.7139,-1.7501,-1.7784,-1.792,-2.3085,-2.3132,-2.3253,-2.3526,-2.3398,-2.3429,-2.375,-2.3452,-2.3021,-2.2467,-2.2025,-2.1578,-2.1021,-2.0323,-1.9706,-1.9082,-1.8264,-1.7388,-1.6492,-1.5576,-1.4662,-1.3627,-1.2772,-1.2005,-1.1303,-1.0455,-0.927,-0.7712,-0.6281,-0.4417,-0.2157,-0.0131,0.2265,0.4918,0.5545,0.5935,0.6026,0.5665,0.5209,0.4697,0.4161,0.3627,0.3092,0.2755,0.2488,0.2272,0.2022,0.2039,0.214,0.2069,0.2021,0.2071,0.2627,0.2907,0.313,0.3574,0.3904,0.4177,0.4677,0.512,0.5614,0.6145,0.6686,0.7337,0.8019,0.8764,0.9503,1.0312,1.1715,1.3006,1.3779,1.449,1.3322,0.8167,0.3494,-0.1399,-0.6829,-0.7631,-0.765,-0.7579,-0.3092,0.1708,0.6046,0.6726,0.8588,1.2667,1.2195,1.189,1.2298,1.2416,1.2859,1.3751,1.3772,1.3927,1.4129,1.4298,1.43,1.407,1.395,1.3944,1.4212,1.4212,1.4395,1.4716,1.475,1.1831,0.6692,0.1301,-0.4087,-0.8987,-0.9531,-1.3047,-1.7969,-1.824,-1.8519,-1.8741,-2.3694,-2.3753,-2.3849,-2.4308,-2.4165,-2.4091,-2.4082,-2.3751,-2.3298,-2.2628,-2.2101,-2.1568,-2.0944,-2.0089,-1.9301,-1.8665,-1.77,-1.6652,-1.5576,-1.4576,-1.3574,-1.2689,-1.1739,-1.0994,-1.0594,-0.9528,-0.8335,-0.6889,-0.5081,-0.3013,-0.0728,0.1404,0.3837,0.6509,0.6805,0.6923,0.7048,0.6635,0.6054,0.5426,0.5015,0.4357,0.3627,0.3424,0.3157,0.2871,0.2643,0.2709,0.2806,0.2746,0.2629,0.2627,0.3183,0.3514,0.3849,0.4405,0.4791,0.5171,0.5655,0.6154,0.6647,0.7171,0.7759,0.8402,0.902,0.9695,1.0372,1.1191,1.2482,1.3658,1.4233,1.488,1.2531,0.3943,0.0964,-0.3357,-1.2219,-1.3369,-1.3207,-1.3104,-0.8457,-0.4497,-0.2568,0.303,0.7267,0.9049,1.133,1.2772,1.3065,1.3013,1.3408,1.4223,1.4324,1.4596,1.5044,1.5138,1.5059,1.4893,1.5087,1.5102,1.5145,1.5385,1.3677,1.015,0.6324,0.3516,0.1199,-0.442,-0.8059,-1.044,-1.4005,-1.6877,-1.8988,-1.9253,-1.9452,-1.9649,-2.434,-2.4412,-2.446,-2.4862,-2.4778,-2.4562,-2.4345,-2.397,-2.353,-2.2927,-2.2327,-2.1645,-2.0789,-1.9766,-1.8816,-1.8014,-1.696,-1.5799,-1.4568,-1.3539,-1.2622,-1.1713,-1.0761,-1.0067,-0.9765,-0.8613,-0.7379,-0.5989,-0.3871,-0.165,0.0525,0.3216,0.5633,0.7792,0.7924,0.7947,0.7881,0.7375,0.6734,0.5992,0.5599,0.4971,0.4209,0.4105,0.3825,0.3535,0.3427,0.347,0.3481,0.3525,0.3492,0.3461,0.3793,0.4125,0.4567,0.5179,0.5618,0.605,0.6637,0.7176,0.767,0.8243,0.8817,0.9444,1.0123,1.0669,1.1316,1.2255,1.3324,1.4233,1.4697,1.5289,1.2118,0.1192,-0.0374,-0.4122,-1.5325,-1.6748,-1.6552,-1.6367,-1.3163,-1.0359,-0.8745,-0.2314,0.3166,0.6559,0.9708,1.2152,1.3641,1.388,1.4273,1.4942,1.5143,1.5498,1.5922,1.6083,1.6065,1.5958,1.6277,1.6441,1.6396,1.4868,1.0696,0.4432,-0.1855,-0.4484,-0.4776,-1.0596,-1.3072,-1.3586,-1.7846,-1.966,-1.9933,-2.0129,-2.0313,-2.0431,-2.53,-2.53,-2.5229,-2.5111,-2.5111,-2.4981,-2.4562,-2.4345,-2.397,-2.3372,-2.2777,-2.1863,-2.0391,-1.9292,-1.8256,-1.7115,-1.6049,-1.4796,-1.3392,-1.2705,-1.1745,-1.0541,-0.9922,-0.9316,-0.8699,-0.7702,-0.6388,-0.4688,-0.2661,-0.0525,0.1726,0.5538,0.7854,0.9006,0.9001,0.8865,0.8654,0.7938,0.7153,0.6358,0.5842,0.53,0.4807,0.4607,0.4489,0.427,0.4344,0.4287,0.4227,0.4565,0.4702,0.4632,0.4519,0.4739,0.5183,0.5837,0.6268,0.675,0.7509,0.815,0.8732,0.9406,0.9961,1.0576,1.125,1.1783,1.2463,1.3563,1.4258,1.4801,1.522,1.578,1.258,0.1495,-0.0138,-0.3956,-1.5325,-1.6876,-1.6791,-1.6522,-1.6961,-1.5194,-0.9803,-0.965,-0.5033,0.6719,0.7508,0.9428,1.3962,1.4991,1.5646,1.5985,1.6389,1.67,1.7,1.7291,1.7419,1.7273,1.7613,1.7999,1.8164,1.1917,0.533,-0.1532,-0.758,-1.0416,-1.1263,-1.7279,-1.9868,-1.9987,-2.0268,-2.0495,-2.0635,-2.0839,-2.1031,-2.1221,-2.5688,-2.5688,-2.5688,-2.5618,-2.5548,-2.5324,-2.5111,-2.4743,-2.4299,-2.3813,-2.315,-2.2392,-2.1231,-1.9747,-1.8407,-1.7115,-1.5761,-1.4398,-1.3127,-1.2132,-1.1248,-1.0304,-0.9609,-0.877,-0.7927,-0.6619,-0.4988,-0.2965,-0.0772,0.2225,0.5898,0.7768,0.9161,0.9979,0.9746,0.9405,0.9035,0.8435,0.7612,0.6801,0.6466,0.5956,0.5353,0.5442,0.5352,0.5196,0.5435,0.5538,0.5581,0.5643,0.5796,0.6014,0.6087,0.5987,0.5991,0.6696,0.723,0.7759,0.8514,0.9197,0.9806,1.0438,1.1032,1.1616,1.212,1.2861,1.3589,1.4233,1.4731,1.5209,1.5567,1.5976,1.2611,0.1382,-0.0304,-0.4216,-1.5691,-1.7199,-1.7229,-1.7544,-1.7574,-1.6997,-1.5642,-1.2245,-0.8533,-0.4741,-0.1072,0.5432,1.5613,1.6356,1.6623,1.6962,1.6999,1.7375,1.8148,1.3292,1.0941,1.1168,0.665,0.4744,0.4972,-0.1453,-0.5614,-0.813,-1.4529,-1.7461,-1.787,-1.9923,-2.0839,-2.0892,-2.1008,-2.1135,-2.121,-2.1474,-2.1612,-2.1675,-2.6094,-2.6094,-2.6094,-2.6094,-2.5955,-2.5873,-2.5664,-2.5441,-2.5075,-2.4587,-2.4082,-2.3412,-2.2499,-2.1094,-1.9464,-1.7513,-1.5898,-1.4525,-1.3344,-1.2279,-1.1312,-1.038,-0.9458,-0.8385,-0.7157,-0.5449,-0.3503,-0.1245,0.1938,0.5337,0.8746,0.967,1.0433,1.1031,1.0648,1.0228,0.9695,0.9013,0.8212,0.7402,0.7052,0.6565,0.5963,0.6172,0.6148,0.6125,0.6531,0.67,0.6795,0.7012,0.7107,0.7238,0.7576,0.7512,0.7379,0.7711,0.819,0.8764,0.9607,1.0261,1.0872,1.1534,1.208,1.2657,1.3198,1.3909,1.4582,1.4891,1.5334,1.5724,1.592,1.4479,1.0239,0.1064,-0.2177,-0.6805,-1.6171,-1.7578,-1.7784,-1.8135,-1.8377,-1.8583,-1.8836,-1.589,-1.2904,-1.0379,-0.7076,-0.0615,0.9891,1.0187,1.0049,1.0026,1.0132,1.0454,1.091,0.6543,0.4478,0.4708,0.0603,-0.2532,-0.4824,-0.8907,-1.2259,-1.5019,-1.9102,-2.1019,-2.1285,-2.1423,-2.1486,-2.1612,-2.1714,-2.1776,-2.1776,-2.2111,-2.2173,-2.2247,-2.6496,-2.6496,-2.6483,-2.6483,-2.6483,-2.6483,-2.6358,-2.6289,-2.6208,-2.5836,-2.5417,-2.4838,-2.4097,-2.3103,-2.1415,-1.8753,-1.6724,-1.5196,-1.4194,-1.3174,-1.2043,-1.0743,-0.9674,-0.8219,-0.6458,-0.4278,-0.1864,0.0853,0.5396,0.8562,1.0409,1.1174,1.1781,1.2077,1.1706,1.1186,1.0513,0.9695,0.8876,0.813,0.7583,0.7106,0.6703,0.6805,0.6868,0.712,0.7642,0.7835,0.797,0.8628,0.861,0.8427,0.8948,0.9234,0.9309,0.8837,0.9093,0.971,1.0669,1.1316,1.1913,1.2706,1.3208,1.3695,1.4408,1.4994,1.5412,1.5513,1.5579,1.5664,1.5711,1.1203,0.564,-0.0008,-0.5431,-1.0978,-1.6783,-1.8091,-1.8422,-1.8455,-1.9377,-1.9943,-1.9729,-2.02,-1.7891,-1.1564,-1.1215,-0.8611,-0.2434,-0.2571,-0.2623,-0.2166,-0.1684,-0.1611,-0.1952,-0.2005,-0.2254,-0.2714,-0.2394,-0.551,-1.1556,-1.1757,-1.5357,-2.1451,-2.1463,-2.1651,-2.1937,-2.1937,-2.2061,-2.2259,-2.2359,-2.242,-2.2482,-2.2678,-2.2751,-2.2751,-2.7255,-2.7255,-2.731,-2.7443,-2.7443,-2.7497,-2.7537,-2.7591,-2.7445,-2.7232,-2.7005,-2.6574,-2.5933,-2.5235,-2.439,-2.3413,-1.9683,-1.7084,-1.6405,-1.5129,-1.3882,-1.2517,-1.0781,-0.844,-0.5328,-0.2471,0.1385,0.6381,0.889,1.0947,1.2384,1.2924,1.3237,1.331,1.2739,1.215,1.1335,1.0588,0.9674,0.872,0.8311,0.7858,0.7466,0.7736,0.8032,0.8345,0.9064,0.947,0.9756,1.0215,1.0464,1.061,1.0551,1.0814,1.0967,1.0081,1.021,1.0813,1.1665,1.2307,1.2957,1.3589,1.4212,1.4823,1.522,1.5591,1.5856,1.6013,1.2742,0.9885,1.0032,0.529,-0.0493,-0.6233,-0.8359,-1.1479,-1.7836,-1.8768,-1.9105,-1.9999,-2.0226,-2.0435,-2.078,-2.1152,-2.0709,-1.9114,-1.9264,-1.8761,-1.716,-1.7128,-1.2384,-0.1993,-0.1792,-0.1733,-0.1464,-0.6684,-1.1871,-1.6858,-1.6776,-1.7568,-1.9124,-1.9278,-2.0342,-2.1987,-2.2111,-2.2297,-2.2494,-2.2494,-2.2555,-2.2616,-2.2739,-2.2787,-2.2787,-2.3103,-2.3223,-2.3334,-2.7987,-2.8039,-2.817,-2.8379,-2.8481,-2.8634,-2.8876,-2.9038,-2.9073,-2.9032,-2.899,-2.8809,-2.8339,-2.7961,-2.7611,-2.7286,-2.2947,-1.9998,-1.9666,-1.8387,-1.6958,-1.5506,-1.1979,-0.8316,-0.4731,-0.0076,0.5022,1.0421,1.2144,1.3561,1.4672,1.4846,1.4871,1.4736,1.4099,1.3302,1.2432,1.162,1.0864,1.006,0.9513,0.9043,0.8777,0.8981,0.925,0.9627,1.0325,1.0829,1.1308,1.1806,1.2115,1.2315,1.2462,1.2753,1.2986,1.2693,1.2227,1.2012,1.2841,1.3474,1.405,1.4652,1.5311,1.5768,1.5988,1.4142,1.2408,1.2488,0.7952,0.3986,0.4072,-0.0768,-0.5888,-0.9298,-1.2181,-1.5318,-1.9168,-1.9864,-2.0237,-2.0826,-2.1052,-2.1261,-2.1677,-2.1877,-2.2018,-2.218,-2.2392,-2.2469,-2.2469,-2.2499,-1.8999,-1.1246,-1.1173,-1.1172,-1.0949,-1.459,-1.8199,-2.1698,-2.1761,-2.1824,-2.1949,-2.2061,-2.2235,-2.2432,-2.2494,-2.2678,-2.2848,-2.2848,-2.2969,-2.3103,-2.321,-2.321,-2.3271,-2.345,-2.3675,-2.3943,-2.8702,-2.8881,-2.9044,-2.9338,-2.9594,-2.9922,-3.0346,-3.0586,-3.0837,-3.104,-3.121,-3.1222,-3.1063,-3.1001,-3.0866,-3.066,-2.6873,-2.4229,-2.3501,-2.2322,-2.0914,-1.9393,-1.44,-0.9391,-0.4585,0.3197,0.9374,1.3734,1.5295,1.633,1.6977,1.6936,1.6748,1.6341,1.5641,1.472,1.373,1.307,1.2322,1.1675,1.1007,1.0585,1.035,1.0367,1.0555,1.0954,1.1571,1.2189,1.2749,1.3356,1.3726,1.3949,1.4494,1.4834,1.5164,1.5658,1.393,1.2283,1.4111,1.4194,1.3667,1.3223,1.3483,1.3816,1.3853,1.0177,0.6753,0.6753,0.2078,-0.2041,-0.2159,-0.7064,-1.1312,-1.1909,-1.6317,-1.9837,-2.0486,-2.1022,-2.1386,-2.1479,-2.1862,-2.2276,-2.2538,-2.2624,-2.2728,-2.3031,-2.3098,-2.3098,-2.3098,-2.3303,-2.3114,-2.2609,-2.2493,-2.2424,-2.242,-2.2111,-2.1937,-2.1761,-2.1937,-2.2049,-2.2247,-2.242,-2.2604,-2.2739,-2.28,-2.2982,-2.3198,-2.3198,-2.3318,-2.3628,-2.3628,-2.368,-2.3744,-2.3816,-2.4163,-2.4725,-2.956,-2.9732,-2.9964,-3.0464,-3.0837,-3.1302,-3.2038,-3.2416,-3.2782,-3.322,-3.3462,-3.3565,-3.3551,-3.3681,-3.3806,-3.3951,-3.3078,-3.1073,-2.77,-2.6444,-2.5405,-2.4481,-2.1417,-1.4996,-0.4938,0.8175,1.5683,1.7206,1.8298,1.8899,1.9017,1.8905,1.8583,1.8055,1.7316,1.6489,1.5579,1.5013,1.4104,1.3097,1.276,1.233,1.1812,1.1883,1.2138,1.2512,1.3166,1.3768,1.4423,1.5168,1.5696,1.6038,1.6158,1.6479,1.6818,1.6968,1.268,0.9199,1.5192,1.3197,0.8075,0.2289,0.1204,0.1578,0.1691,0.1128,0.0582,0.0582,-0.4023,-0.8243,-0.8879,-1.3899,-1.8205,-1.8906,-1.9953,-2.0854,-2.1354,-2.1569,-2.2071,-2.3036,-2.2997,-2.3147,-2.3741,-2.4066,-2.42,-2.4082,-2.4435,-2.4622,-2.4509,-2.4235,-2.4058,-2.3807,-2.3251,-2.2809,-2.242,-2.2359,-2.2247,-2.2135,-2.2247,-2.2359,-2.2359,-2.2665,-2.2909,-2.3017,-2.321,-2.3403,-2.3497,-2.3497,-2.3569,-2.3628,-2.3772,-2.4103,-2.4563,-2.4697,-2.5136,-2.5696,-3.0237,-3.0584,-3.097,-3.1592,-3.2204,-3.2898,-3.3641,-3.4233,-3.4731,-3.5193,-3.5557,-3.5821,-3.5879,-3.6127,-3.636,-3.6558,-3.6279,-3.536,-3.3736,-3.1458,-2.9538,-2.8023,-2.4016,-1.7157,-0.7165,0.0723,0.5186,0.6103,0.6778,0.9552,1.4275,1.3969,1.5962,1.9836,1.9058,1.819,1.7298,1.6748,1.6026,1.523,1.4882,1.4347,1.3849,1.3777,1.3908,1.4118,1.4641,1.5226,1.5881,1.6553,1.7058,1.6857,1.326,1.2355,1.1916,0.8193,0.725,0.7213,0.6455,0.4349,0.1575,-0.1674,-0.2241,-0.1992,-0.1933,-0.4334,-0.6565,-0.6565,-1.1278,-1.5538,-1.5906,-1.8409,-2.0594,-2.1326,-2.1582,-2.1843,-2.2425,-2.2832,-2.3192,-2.3677,-2.386,-2.412,-2.4554,-2.4707,-2.4855,-2.4929,-2.5024,-2.5061,-2.5005,-2.4708,-2.4492,-2.439,-2.3556,-2.2957,-2.2665,-2.2616,-2.2555,-2.2494,-2.2555,-2.2604,-2.2665,-2.2896,-2.309,-2.3271,-2.345,-2.3582,-2.376,-2.376,-2.3999,-2.4377,-2.4463,-2.4801,-2.5283,-2.5419,-2.5785,-2.6321,-3.0955,-3.1522,-3.2114,-3.2779,-3.3604,-3.4427,-3.5194,-3.5887,-3.6517,-3.6969,-3.7424,-3.774,-3.7895,-3.819,-3.8458,-3.8639,-3.8385,-3.8272,-3.8336,-3.5888,-3.3532,-3.1466,-2.499,-1.8049,-1.0841,-0.6901,-0.4561,-0.384,-0.3397,0.03,0.6939,0.6602,1.0785,1.8543,1.7737,1.8055,1.9114,1.8572,1.7968,1.7415,1.7016,1.6571,1.6074,1.5856,1.5799,1.5876,1.6234,1.6711,1.7027,1.5953,1.5836,1.498,0.8238,0.6199,0.5274,0.0014,0.066,0.1863,-0.3691,-0.5012,-0.5213,-0.6946,-0.7166,-0.6973,-0.6973,-1.0484,-1.3729,-1.3729,-1.7467,-2.0783,-2.1024,-2.1207,-2.1608,-2.2336,-2.251,-2.2802,-2.3467,-2.3908,-2.4256,-2.4345,-2.4728,-2.5041,-2.5293,-2.5297,-2.5348,-2.5508,-2.5411,-2.5286,-2.53,-2.5005,-2.4721,-2.4505,-2.3675,-2.3198,-2.2969,-2.286,-2.2739,-2.269,-2.2739,-2.28,-2.2969,-2.3078,-2.3334,-2.3701,-2.3821,-2.403,-2.4339,-2.4339,-2.4658,-2.5171,-2.5171,-2.5511,-2.602,-2.602,-2.6386,-2.687,-3.1709,-3.2501,-3.3271,-3.3872,-3.4851,-3.5822,-3.6622,-3.7326,-3.7953,-3.8554,-3.894,-3.9218,-3.9425,-3.9619,-3.9831,-4.0053,-4.0085,-3.9806,-3.908,-3.8675,-3.7595,-3.5646,-2.5122,-1.8365,-1.6341,-0.7693,-0.3155,-0.3079,-0.2665,-0.2164,-0.1589,-0.1507,0.2968,1.088,1.0513,1.4367,2.1055,2.0737,2.0084,1.9291,1.9249,1.891,1.8406,1.7997,1.7943,1.7942,1.7967,1.8286,1.7811,1.1606,0.9641,0.8544,0.1528,-0.075,-0.0902,-0.1232,-0.5791,-1.0805,-1.1096,-1.0845,-1.2085,-1.8768,-2.0084,-1.9753,-1.9753,-2.0079,-2.0389,-2.0389,-2.0753,-2.1276,-2.1943,-2.2103,-2.2351,-2.3098,-2.3348,-2.3585,-2.4161,-2.4354,-2.4828,-2.5716,-2.5791,-2.5879,-2.6144,-2.6108,-2.5906,-2.5729,-2.5674,-2.5633,-2.5494,-2.5188,-2.4734,-2.4171,-2.3949,-2.3582,-2.3078,-2.3078,-2.2969,-2.269,-2.286,-2.2969,-2.3078,-2.3271,-2.385,-2.4628,-2.4628,-2.5,-2.5631,-2.5631,-2.5657,-2.5759,-2.5759,-2.6112,-2.6608,-2.6608,-2.6974,-2.7471,-3.2648,-3.3411,-3.4203,-3.516,-3.6115,-3.7019,-3.7849,-3.8517,-3.9133,-3.9604,-3.9893,-4.0097,-4.0217,-4.0325,-4.0413,-4.0441,-4.0439,-4.022,-3.9741,-3.8939,-3.749,-3.5285,-3.0424,-2.7023,-2.5416,-2.1356,-1.9048,-1.8692,-1.8298,-1.5279,-0.9883,-0.9861,-0.537,0.2706,0.2449,0.3878,0.6804,1.1987,1.3871,1.3803,1.9113,2.0931,1.9922,1.454,1.2674,1.2174,0.7054,0.5617,0.5805,0.3341,0.2576,0.1419,-0.5635,-0.8064,-0.9199,-1.379,-1.721,-1.9497,-1.9432,-1.908,-1.9394,-2.2209,-2.2786,-2.2666,-2.2666,-2.2666,-2.2666,-2.2666,-2.2666,-2.274,-2.3135,-2.318,-2.3298,-2.3681,-2.4071,-2.4402,-2.4567,-2.522,-2.5823,-2.6214,-2.6425,-2.6556,-2.6592,-2.6394,-2.6165,-2.5948,-2.5784,-2.5674,-2.5633,-2.5244,-2.4892,-2.4677,-2.4447,-2.4041,-2.345,-2.3378,-2.339,-2.3271,-2.333,-2.339,-2.345,-2.3974,-2.4378,-2.4719,-2.5205,-2.5553,-2.5824,-2.5824,-2.6033,-2.6347,-2.6347,-2.67,-2.721,-2.721,-2.734,-2.7523,-3.3467,-3.43,-3.5234,-3.6331,-3.7256,-3.8118,-3.8878,-3.9491,-3.9999,-4.0335,-4.0524,-4.0632,-4.0633,-4.0644,-4.0625,-4.0516,-4.0389,-4.0193,-3.9889,-3.8818,-3.7182,-3.4954,-3.3752,-3.2527,-3.1187,-3.0162,-2.9377,-2.8764,-2.8352,-2.4909,-1.8765,-1.8684,-1.4047,-0.5772,-0.5896,-0.4596,-0.1913,0.3896,0.6194,0.6439,1.2305,1.4433,1.3443,0.7568,0.5507,0.4982,-0.0856,-0.2579,-0.2401,-0.4605,-0.5219,-0.6284,-1.3434,-1.5853,-1.707,-2.2303,-2.3994,-2.4177,-2.4245,-2.4063,-2.3894,-2.3809,-2.3824,-2.3824,-2.3824,-2.3824,-2.3824,-2.3767,-2.3767,-2.3782,-2.3839,-2.3839,-2.3958,-2.4255,-2.4608,-2.5017,-2.5394,-2.6048,-2.6594,-2.6703,-2.7108,-2.7296,-2.7123,-2.7029,-2.6926,-2.6747,-2.6342,-2.598,-2.5743,-2.5397,-2.5174,-2.5005,-2.4835,-2.4434,-2.391,-2.3806,-2.3688,-2.3628,-2.3628,-2.3628,-2.3713,-2.4447,-2.4918,-2.5175,-2.5887,-2.6317,-2.6488,-2.6424,-2.6647,-2.7065,-2.7013,-2.7183,-2.7523,-2.7523,-2.7523,-2.7523,-3.4023,-3.5296,-3.6388,-3.7273,-3.8255,-3.9104,-3.9708,-4.02,-4.0576,-4.0766,-4.0859,-4.086,-4.0713,-4.0632,-4.0507,-4.0311,-4.0043,-3.9751,-3.9416,-3.8578,-3.7226,-3.5287,-3.3988,-3.304,-3.244,-3.1304,-3.0443,-2.981,-2.9364,-2.8842,-2.8288,-2.7959,-2.3041,-1.4514,-1.4514,-0.9781,-0.1813,-0.1876,-0.2012,-0.2185,-0.2125,-0.2169,-0.2342,-0.2799,-0.2893,-0.2864,-0.3455,-0.3499,-0.4379,-1.166,-1.3748,-1.4572,-2.1831,-2.4089,-2.4082,-2.4276,-2.4441,-2.4605,-2.4605,-2.4806,-2.4902,-2.4426,-2.4302,-2.4302,-2.4302,-2.4302,-2.4261,-2.412,-2.412,-2.4078,-2.4024,-2.3982,-2.4195,-2.4906,-2.5028,-2.5409,-2.6615,-2.6811,-2.6969,-2.7378,-2.7809,-2.8018,-2.7748,-2.8177,-2.844,-2.8197,-2.7513,-2.6721,-2.5771,-2.5743,-2.5522,-2.5018,-2.5018,-2.4905,-2.4633,-2.4287,-2.3936,-2.3628,-2.3628,-2.37,-2.3916,-2.4653,-2.5411,-2.6162,-2.6857,-2.752,-2.8079,-2.7855,-2.7776,-2.7776,-2.759,-2.7523,-2.7523,-2.7523,-2.7523,-2.7523,-3.4364,-3.5873,-3.7202,-3.8285,-3.9053,-3.9702,-4.0219,-4.0518,-4.074,-4.0793,-4.0774,-4.0671,-4.0435,-4.028,-4.0058,-3.9769,-3.9552,-3.9156,-3.8536,-3.8032,-3.7308,-3.6365,-3.5381,-3.4372,-3.3321,-3.2201,-3.1416,-3.0986,-2.9996,-2.9289,-2.8826,-2.8479,-2.675,-2.3926,-2.3701,-2.2133,-1.9296,-1.3226,-1.0622,-1.0067,-0.4078,-0.1654,-0.2262,-0.8265,-1.0333,-1.0788,-1.6969,-1.8867,-1.8907,-2.1252,-2.2069,-2.247,-2.5055,-2.5887,-2.592,-2.6208,-2.6351,-2.6477,-2.6529,-2.6245,-2.5711,-2.4957,-2.4806,-2.4766,-2.4645,-2.4645,-2.4605,-2.4467,-2.4451,-2.4426,-2.4359,-2.4374,-2.4548,-2.5124,-2.5557,-2.6138,-2.6961,-2.73,-2.7745,-2.8306,-2.8353,-2.8423,-2.8649,-2.8662,-2.8553,-2.844,-2.7969,-2.7612,-2.7314,-2.7071,-2.6884,-2.6768,-2.6562,-2.6385,-2.6134,-2.5034,-2.439,-2.4332,-2.4682,-2.4879,-2.4978,-2.6078,-2.6684,-2.6884,-2.7546,-2.7919,-2.8079,-2.8013,-2.8,-2.8,-2.7947,-2.7947,-2.7868,-2.7789,-2.7723,-2.7723,-3.4881,-3.631,-3.7661,-3.8989,-3.9686,-4.0197,-4.0552,-4.0728,-4.0779,-4.0729,-4.0602,-4.0395,-4.0096,-3.9869,-3.9592,-3.9257,-3.8934,-3.8542,-3.7966,-3.7667,-3.7317,-3.6908,-3.6277,-3.5428,-3.4182,-3.3143,-3.2437,-3.205,-3.1181,-3.0403,-2.9717,-2.936,-2.8838,-2.8253,-2.8042,-2.786,-2.7379,-2.2103,-1.9756,-1.9116,-1.3968,-1.1829,-1.2265,-1.7318,-1.9086,-1.9512,-2.4773,-2.6461,-2.6281,-2.6585,-2.6578,-2.6581,-2.6798,-2.6879,-2.6977,-2.7222,-2.7364,-2.749,-2.7582,-2.73,-2.688,-2.6342,-2.5655,-2.51,-2.5021,-2.5021,-2.4942,-2.4791,-2.4751,-2.4726,-2.4564,-2.4797,-2.516,-2.5697,-2.6303,-2.6949,-2.7531,-2.778,-2.8182,-2.8746,-2.8801,-2.9059,-2.9548,-2.9562,-2.9319,-2.8886,-2.8684,-2.8396,-2.8039,-2.7792,-2.7661,-2.7485,-2.7335,-2.7157,-2.701,-2.6122,-2.5536,-2.5255,-2.5602,-2.5775,-2.5801,-2.681,-2.7314,-2.734,-2.8007,-2.8276,-2.8276,-2.8197,-2.8197,-2.8197,-2.8145,-2.8079,-2.8079,-2.7934,-2.7855,-2.7776,-3.5331,-3.6643,-3.7872,-3.9372,-4.0135,-4.0591,-4.0769,-4.0795,-4.074,-4.0569,-4.0339,-4.0043,-3.969,-3.9408,-3.9117,-3.8789,-3.8346,-3.7949,-3.7703,-3.7485,-3.7279,-3.697,-3.6806,-3.6149,-3.5044,-3.4167,-3.3465,-3.3017,-3.2611,-3.1887,-3.0854,-3.0497,-2.9832,-2.8826,-2.8762,-2.8572,-2.8268,-2.8235,-2.8088,-2.789,-2.789,-2.7775,-2.7675,-2.7675,-2.7675,-2.7725,-2.7959,-2.8057,-2.8122,-2.8396,-2.8202,-2.7793,-2.7592,-2.753,-2.7572,-2.7766,-2.7874,-2.794,-2.8062,-2.8167,-2.8214,-2.8214,-2.6837,-2.5548,-2.5429,-2.5365,-2.5256,-2.5045,-2.5005,-2.4926,-2.467,-2.5233,-2.5893,-2.6419,-2.7117,-2.7752,-2.8192,-2.8281,-2.8473,-2.8888,-2.9327,-2.9824,-3.0383,-3.0646,-3.0454,-2.9564,-2.9521,-2.9145,-2.8281,-2.8181,-2.8006,-2.7712,-2.7652,-2.7593,-2.7474,-2.7474,-2.7119,-2.6417,-2.6409,-2.6497,-2.6524,-2.7252,-2.766,-2.7687,-2.8356,-2.8651,-2.8587,-2.843,-2.8352,-2.8287,-2.8197,-2.8145,-2.8145,-2.8145,-2.8,-2.7842,-3.4691,-3.6658,-3.8326,-3.9166,-4.0096,-4.0743,-4.0798,-4.0722,-4.0559,-4.0321,-4.0043,-3.9735,-3.9357,-3.9017,-3.873,-3.8433,-3.8002,-3.7649,-3.7485,-3.7261,-3.7069,-3.6851,-3.6766,-3.6451,-3.5942,-3.4959,-3.4269,-3.3935,-3.3067,-3.2344,-3.1846,-3.169,-3.1037,-3.0038,-2.9911,-2.9438,-2.8732,-2.8668,-2.8589,-2.8429,-2.8429,-2.8348,-2.825,-2.825,-2.825,-2.825,-2.8429,-2.851,-2.859,-2.8982,-2.9027,-2.896,-2.9147,-2.9215,-2.927,-2.9432,-2.9561,-2.9646,-2.9672,-2.9304,-2.8878,-2.8878,-2.8199,-2.7297,-2.6555,-2.5873,-2.5355,-2.524,-2.5162,-2.5029,-2.4926,-2.5397,-2.5962,-2.658,-2.7191,-2.7798,-2.8432,-2.8793,-2.921,-2.9831,-3.0235,-3.0734,-3.121,-3.1087,-3.0896,-3.0498,-3.0424,-3.0172,-2.9789,-2.9533,-2.9412,-2.929,-2.9119,-2.8948,-2.8948,-2.8761,-2.8154,-2.7083,-2.7577,-2.781,-2.7838,-2.8441,-2.8779,-2.8779,-2.8917,-2.8908,-2.8716,-2.8716,-2.8651,-2.8522,-2.8522,-2.8471,-2.8457,-2.8314,-2.8235,-2.8157,-3.4934,-3.6387,-3.7839,-3.9116,-3.9803,-4.0299,-4.0653,-4.0539,-4.0304,-3.9945,-3.9687,-3.9345,-3.897,-3.8676,-3.8382,-3.802,-3.7649,-3.7392,-3.7261,-3.7147,-3.6992,-3.6829,-3.6725,-3.6561,-3.6233,-3.5626,-3.5135,-3.4705,-3.4122,-3.3482,-3.2782,-3.2593,-3.2014,-3.1069,-3.0561,-3.0117,-2.9705,-2.9295,-2.906,-2.8936,-2.8858,-2.8763,-2.8653,-2.8653,-2.8653,-2.8653,-2.8842,-2.9029,-2.9213,-2.947,-2.956,-2.9665,-2.9886,-2.9973,-3.0044,-3.0189,-3.0274,-3.0359,-3.0485,-3.0245,-2.9963,-2.9963,-2.9353,-2.8523,-2.7571,-2.6682,-2.6031,-2.5986,-2.558,-2.5297,-2.5528,-2.6066,-2.6619,-2.7167,-2.7811,-2.8295,-2.8574,-2.9064,-2.9592,-3.0164,-3.0677,-3.1112,-3.1477,-3.1351,-3.1132,-3.0955,-3.0762,-3.0642,-3.0447,-3.019,-3.0007,-2.996,-2.9789,-2.9741,-2.9741,-2.9602,-2.9279,-2.8633,-2.8649,-2.8629,-2.8643,-2.8961,-2.9099,-2.9099,-2.9099,-2.9035,-2.8908,-2.8844,-2.878,-2.8716,-2.8587,-2.8587,-2.8587,-2.8509,-2.8365,-2.8222,-3.5362,-3.6117,-3.7144,-3.8941,-3.9359,-3.97,-4.0409,-4.0287,-3.9965,-3.9576,-3.9287,-3.897,-3.8554,-3.8285,-3.7967,-3.7577,-3.7372,-3.7203,-3.7108,-3.7108,-3.7009,-3.6829,-3.6725,-3.6544,-3.6301,-3.6088,-3.58,-3.5337,-3.5198,-3.4631,-3.3643,-3.3485,-3.2918,-3.2014,-3.1196,-3.0733,-3.0573,-2.9822,-2.9412,-2.9305,-2.9213,-2.9121,-2.9013,-2.9013,-2.9013,-2.9013,-2.9305,-2.9531,-2.977,-2.9826,-2.9957,-3.006,-3.0189,-3.0231,-3.0274,-3.0485,-3.0568,-3.0609,-3.0831,-3.0912,-3.0912,-3.0912,-3.0299,-2.954,-2.8744,-2.7748,-2.701,-2.6909,-2.6322,-2.594,-2.6349,-2.6978,-2.7545,-2.7926,-2.8526,-2.892,-2.8824,-2.9381,-2.9913,-3.0385,-3.1006,-3.146,-3.1715,-3.1674,-3.1574,-3.1516,-3.1234,-3.1042,-3.0848,-3.0505,-3.0266,-3.0172,-3.0111,-3.0111,-3.0111,-3.0111,-3.0111,-3.0111,-2.954,-2.9226,-2.9212,-2.9212,-2.9226,-2.9162,-2.9162,-2.9162,-2.9162,-2.8908,-2.8844,-2.878,-2.8651,-2.8587,-2.8587,-2.8587,-2.8444,-2.8287,-3.5149,-3.6117,-3.7157,-3.812,-3.8816,-3.9451,-4.007,-3.9926,-3.9641,-3.9279,-3.898,-3.8609,-3.8201,-3.7792,-3.7466,-3.7334,-3.7203,-3.7108,-3.7108,-3.7048,-3.693,-3.6829,-3.6725,-3.6544,-3.6301,-3.6088,-3.5844,-3.5577,-3.5383,-3.5102,-3.4686,-3.4559,-3.3973,-3.2998,-3.2189,-3.1385,-3.0617,-2.9852,-2.9473,-2.9473,-2.9473,-2.9428,-2.9412,-2.9412,-2.9412,-2.9428,-2.9608,-2.977,-2.9973,-3.0103,-3.0146,-3.0205,-3.0316,-3.0401,-3.0485,-3.0651,-3.0749,-3.0871,-3.0912,-3.0912,-3.0912,-3.0912,-3.0788,-3.0664,-3.0384,-2.9081,-2.7872,-2.776,-2.7559,-2.7365,-2.7412,-2.7923,-2.8323,-2.8243,-2.8724,-2.9249,-2.972,-3.0195,-3.0727,-3.1356,-3.182,-3.2272,-3.2728,-3.2788,-3.2854,-3.3124,-3.2617,-3.2154,-3.1808,-3.1054,-3.0568,-3.0522,-3.0233,-3.0111,-3.0111,-3.0111,-3.0111,-3.0111,-2.9988,-2.9851,-2.9699,-2.9699,-2.9637,-2.954,-2.954,-2.9477,-2.9352,-2.9162,-2.8972,-2.878,-2.8651,-2.8587,-2.8587,-2.8587,-2.8444,-2.83,-3.532,-3.5778,-3.6497,-3.7725,-3.8067,-3.8546,-3.9553,-3.9505,-3.9234,-3.8855,-3.8535,-3.8249,-3.7897,-3.7468,-3.7223,-3.7203,-3.7048,-3.6913,-3.6913,-3.6869,-3.6748,-3.6626,-3.6585,-3.6502,-3.6301,-3.5719,-3.5386,-3.5231,-3.5363,-3.5027,-3.427,-3.4223,-3.3639,-3.2667,-3.1919,-3.1385,-3.0998,-3.0166,-2.977,-2.977,-2.9653,-2.9608,-2.9608,-2.9665,-2.9649,-2.9694,-2.9886,-3.0076,-3.0231,-3.0316,-3.0401,-3.0485,-3.0626,-3.0692,-3.0733,-3.0855,-3.0895,-3.0975,-3.1032,-3.1072,-3.1072,-3.1072,-3.1032,-3.0935,-3.0831,-3.0168,-2.9386,-2.8715,-2.8184,-2.7875,-2.813,-2.8383,-2.8634,-2.8901,-2.913,-2.9421,-3.0037,-3.0535,-3.1161,-3.2075,-3.2228,-3.2507,-3.3081,-3.3041,-3.3213,-3.3744,-3.2976,-3.2467,-3.2288,-3.1397,-3.0895,-3.0895,-3.0657,-3.0462,-3.0462,-3.0416,-3.0401,-3.0401,-3.0401,-3.0219,-2.9974,-2.9974,-2.9898,-2.9699,-2.9699,-2.9651,-2.9477,-2.9352,-2.9162,-2.8972,-2.878,-2.8651,-2.8587,-2.8587,-2.8522,-2.8444]}]]